     2              OBSERVATION DATA                        RINEX VERSION / TYPE
DAT2RIN 1.01d Dan Johnson 12SEP96 4:29:30 GMT               PGM / RUN BY / DATE
Mojave '96 team Central Washington U                        OBSERVER / AGENCY
15926 TRIMBLE 4000SSI Nav 7.09 Sig 3.03                     REC # / TYPE / VERS
63793 TRIMBLE CHOKE                                         ANT # / TYPE
3188 WONOGA                                                 MARKER NAME
 -2422501.0000 -4530818.0000  3771649.0000                  APPROX POSITION XYZ
        0.0814        0.0000        0.0000                  ANTENNA: DELTA H/E/N
     1     1     0                                          WAVELENGTH FACT L1/2
     5    L1    C1    P1    L2    P2                        # / TYPES OF OBSERV
    30                                                      INTERVAL
  1996     9     5     0     0   30.000000                  TIME OF FIRST OBS
  1996     9     5    23    59    0.000000                  TIME OF LAST OBS
                                                            COMMENT
PANGA GPS Data Analysis Center                              COMMENT
Department of Geology                                       COMMENT
Central Washington University                               COMMENT
Ellensburg, WA 98926                                        COMMENT
                                                            COMMENT
http://www.panga.cwu.edu                                    COMMENT
ftp://panga.cwu.edu                                         COMMENT
                                                            COMMENT
    25                                                      # OF SATELLITES
           1   742   742     0   739   739                  PRN / # OF OBS
           2   843   844     0   832   832                  PRN / # OF OBS
           3   903   903     0   894   894                  PRN / # OF OBS
           4   757   759     0   747   747                  PRN / # OF OBS
           5   711   712     0   694   694                  PRN / # OF OBS
           6   778   779     0   767   767                  PRN / # OF OBS
           7   737   737     0   735   735                  PRN / # OF OBS
           9   867   868     0   858   858                  PRN / # OF OBS
          10   866   866     0   842   842                  PRN / # OF OBS
          14   697   701     0   692   692                  PRN / # OF OBS
          15   869   869     0   863   863                  PRN / # OF OBS
          16   879   879     0   851   851                  PRN / # OF OBS
          17   840   844     0   823   823                  PRN / # OF OBS
          18   761   763     0   747   747                  PRN / # OF OBS
          19   844   846     0   832   832                  PRN / # OF OBS
          21   850   851     0   837   837                  PRN / # OF OBS
          22   881   882     0   847   847                  PRN / # OF OBS
          23   791   791     0   789   789                  PRN / # OF OBS
          24   696   697     0   694   694                  PRN / # OF OBS
          25   646   646     0   643   643                  PRN / # OF OBS
          26   930   931     0   911   911                  PRN / # OF OBS
          27   809   812     0   794   794                  PRN / # OF OBS
          28   693     2   693   693   693                  PRN / # OF OBS
          29   845   845     0   824   824                  PRN / # OF OBS
          31   925   925     0   901   901                  PRN / # OF OBS
                                                            END OF HEADER
 96  9  5  0  0 30.0000000  0  6  1 14 15 21 25 29
  14665194.67010  22332908.81300                  11560494.28250  22332913.09040
  -2777588.96510  23527346.32000                  -2095747.78550  23527351.32440
  -6389828.70210  20982698.64100                  -4867652.08450  20982702.68440
  24995469.39510  23001961.37500                   3692020.67250  23001966.74240
  -6831867.22110  20936186.89100                  -5168693.06850  20936189.59840
  -2008579.53510  23658025.98400                  -1497162.70850  23658030.67240
 96  9  5  0  1  0.0000000  0  6  1 14 15 21 25 29
  14784981.07200  22355703.93000                  11653834.31340  22355707.93840
  -2813096.45600  23520587.35900                  -2123415.90940  23520593.07840
  -6368929.75900  20986675.52300                  -4851367.19440  20986679.54340
  25120246.33400  23025706.07800                   3789249.41340  23025711.36340
  -6810023.42200  20940343.82000                  -5151671.91940  20940346.52740
  -2032424.64200  23653489.38300                  -1515743.25940  23653492.92240
 96  9  5  0  1 30.0000000  0  6  1 14 15 21 25 29
  14904828.36800  22378509.74200                  11747221.79040  22378513.77340
  -2848604.47700  23513832.40600                  -2151084.46840  23513837.08240
  -6347453.10700  20990762.33600                  -4834632.13940  20990766.30940
  25245263.46300  23049496.30500                   3886665.29840  23049501.14540
  -6787665.55500  20944598.36700                  -5134250.18840  20944601.22740
  -2056143.59400  23648974.44500                  -1534225.52340  23648978.45340
 96  9  5  0  2  0.0000000  0  6  1 14 15 21 25 29
  15024767.48600  22401333.66400                  11840680.82440  22401337.89540
  -2884080.68900  23507081.08600                  -2178728.22440  23507086.27740
  -6325368.57400  20994965.14800                  -4817423.41240  20994969.09840
  25370542.52700  23073335.89800                   3984285.27540  23073340.69140
  -6764759.79500  20948957.14800                  -5116401.53940  20948959.98440
  -2079685.99000  23644494.28900                  -1552570.19740  23644498.94140
 96  9  5  0  2 30.0000000  0  6  1 14 15 21 25 29
  15144836.40800  22424182.60900                  11934240.99440  22424186.88740
  -2919513.51000  23500338.59400                  -2206338.19040  23500343.62140
  -6302664.06100  20999285.88300                  -4799731.58640  20999289.93840
  25496089.72600  23097227.23400                   4082114.20440  23097231.88740
  -6741320.61800  20953417.62500                  -5098137.23740  20953420.52040
  -2103016.44900  23640056.14100                  -1570749.74640  23640060.23040
 96  9  5  0  3  0.0000000  0  6  1 14 15 21 25 29
  15265020.22500  22447052.10200                  12027890.70640  22447055.98040
  -2954939.24300  23493597.36700                  -2233942.59940  23493601.69140
  -6279377.81900  21003716.92200                  -4781586.46640  21003720.70740
  25621861.49100  23121160.28900                   4180118.15540  23121164.69540
  -6717411.17800  20957967.32000                  -5079506.49040  20957970.21540
  -2126147.39400  23635653.97700                  -1588773.80140  23635659.21540
 96  9  5  0  3 30.0000000  0  6  1 14 15 21 25 29
  15385326.18000  22469945.65600                  12121635.58940  22469949.95740
  -2990352.72300  23486857.82800                  -2261537.49240  23486862.22340
  -6255492.87900  21008262.05500                  -4762974.82440  21008266.10940
  25747853.60500  23145135.25000                   4278293.77140  23145141.12140
  -6693016.99900  20962608.96900                  -5060498.03140  20962611.75840
  -2149070.00400  23631291.50800                  -1606635.53240  23631296.39540
 96  9  5  0  4  0.0000000  0  6  1 14 15 21 25 29
  15505735.14200  22492858.93800                  12215460.72140  22492862.78140
  -3025775.74900  23480117.84400                  -2289139.81340  23480122.74240
  -6231018.66800  21012919.44500                  -4743904.02040  21012923.37140
  25874052.12600  23169150.73400                   4376630.23940  23169154.56640
  -6668139.48500  20967343.47700                  -5041112.94640  20967346.20740
  -2171806.69800  23626965.17200                  -1624352.41440  23626969.18040
 96  9  5  0  4 30.0000000  0  6  1 14 15 21 25 29
  15626255.78200  22515793.75800                  12309372.88240  22515797.85940
  -3061164.76100  23473382.53100                  -2316715.64240  23473387.00840
  -6205932.68600  21017692.96100                  -4724356.50040  21017696.92240
  26000495.37400  23193211.45300                   4475157.37040  23193216.91440
  -6642745.85800  20972175.47700                  -5021325.68640  20972178.52340
  -2194351.49900  23622673.97700                  -1641919.73340  23622678.71140
 96  9  5  0  5  0.0000000  0  6  1 14 15 21 25 29
  15746851.76300  22538741.89100                  12403343.76040  22538746.03940
  -3096511.44600  23466656.86700                  -2344258.46740  23466662.49240
  -6180247.01100  21022580.92200                  -4704341.69640  21022584.94140
  26127183.06500  23217320.40600                   4573875.00140  23217326.10240
  -6616820.02800  20977109.07800                  -5001123.73440  20977111.86740
  -2216744.18500  23618413.25800                  -1659368.53840  23618417.48840
 96  9  5  0  5 30.0000000  0  6  1 14 15 21 25 29
  15867500.31900  22561700.80500                  12497355.59840  22561704.74240
  -3131822.90000  23459935.98400                  -2371773.86140  23459940.96540
  -6153961.63100  21027582.68000                  -4683859.58940  21027586.64140
  26254116.61200  23241474.26600                   4672784.20840  23241479.50440
  -6590339.77600  20982148.19500                  -4980489.76140  20982150.82040
  -2239004.44400  23614177.35900                  -1676714.14340  23614182.56340
 96  9  5  0  6  0.0000000  0  6  1 14 15 21 25 29
  15988245.46700  22584677.70300                  12591442.69640  22584682.02740
  -3167048.75800  23453233.63300                  -2399222.55740  23453238.14540
  -6127030.07900  21032707.68800                  -4662873.96740  21032711.62540
  26381353.51400  23265687.71900                   4771929.76440  23265692.39540
  -6563261.55600  20987300.93800                  -4959389.84240  20987303.80940
  -2261093.57900  23609973.89100                  -1693926.43440  23609978.00440
 96  9  5  0  6 30.0000000  0  6  1 14 15 21 25 29
  16109060.73400  22607668.15600                  12685584.44740  22607672.23440
  -3202227.13700  23446539.28100                  -2426634.25140  23446544.00440
  -6099486.49800  21037949.39800                  -4641411.46040  21037953.62940
  26508850.74400  23289949.19500                   4871278.21740  23289953.27340
  -6535625.70700  20992560.03900                  -4937855.39540  20992562.69940
  -2283047.40400  23605796.96900                  -1711033.26440  23605801.62140
 96  9  5  0  7  0.0000000  0  6  1 14 15 21 25 29
  16229938.97500  22630670.76600                  12779775.26740  22630674.92640
  -3237409.05500  23439845.22700                  -2454048.68740  23439850.17240
  -6071348.35000  21043303.76600                  -4619485.55740  21043310.77740
  26636569.73000  23314253.05500                   4970799.44940  23314257.55540
  -6507467.78300  20997917.77300                  -4915914.18140  20997920.44540
  -2304882.78400  23601641.70300                  -1728047.80540  23601645.60540
 96  9  5  0  7 30.0000000  0  6  1 14 15 21 25 29
  16350889.75600  22653686.73400                  12874022.60440  22653690.84840
  -3272613.46600  23433145.35200                  -2481480.66740  23433149.61740
  -6042613.69500  21048771.56300                  -4597094.99340  21048775.60540
  26764496.44700  23338596.93000                   5070482.51940  23338602.91840
  -6478806.06400  21003371.85200                  -4893580.33640  21003374.58240
  -2326586.31000  23597510.65600                  -1744959.61640  23597514.57040
 96  9  5  0  8  0.0000000  0  6  1 14 15 21 25 29
  16471907.70800  22676715.14800                  12968322.28240  22676719.63740
  -3307841.20600  23426442.00000                  -2508930.83340  23426447.08640
  -6013296.40200  21054350.53100                  -4574250.35740  21054354.60940
  26892615.32900  23362977.04700                   5170315.35740  23362981.81640
  -6449662.73900  21008918.11700                  -4870871.23340  21008921.16440
  -2348169.70300  23593404.26600                  -1761777.80540  23593408.43840
 96  9  5  0  8 30.0010000  0  6  1 14 15 21 25 29
  16593044.78600  22699767.02100                  13062714.78640  22699770.88840
  -3343044.33800  23419743.04400                  -2536361.80940  23419747.63840
  -5983346.17800  21060050.12200                  -4550912.53240  21060054.03640
  27020972.03300  23387403.32500                   5270333.52640  23387407.59140
  -6419981.19900  21014566.12200                  -4847742.76040  21014568.85340
  -2369568.17500  23589332.58300                  -1778451.91140  23589337.35340
 96  9  5  0  9  0.0010000  0  6  1 14 15 21 25 29
  16714241.33900  22722830.31700                  13157153.63540  22722834.04440
  -3378251.52600  23413042.81000                  -2563795.94840  23413047.70840
  -5952803.66100  21065861.48100                  -4527113.17040  21065865.50140
  27149515.12100  23411863.73100                   5370496.92340  23411868.93540
  -6389807.79200  21020308.06000                  -4824231.00040  21020310.69640
  -2390798.25200  23585292.39600                  -1794994.78840  23585296.08740
 96  9  5  0  9 30.0010000  0  6  1 14 15 21 25 29
  16835510.38600  22745906.68500                  13251648.96340  22745911.26740
  -3413425.32300  23406350.34900                  -2591204.07940  23406355.32940
  -5921645.57700  21071791.49700                  -4502834.15440  21071795.47040
  27278276.55100  23436365.86400                   5470830.42540  23436372.26340
  -6359108.12100  21026150.17700                  -4800309.16540  21026152.79040
  -2411830.64000  23581290.06000                  -1811383.62140  23581295.11040
 96  9  5  0 10  0.0010000  0  6  1 14 15 21 25 29
  16956834.63800  22768994.48900                  13346187.32040  22768998.38040
  -3448559.18100  23399664.14600                  -2618581.08440  23399668.70440
  -5889877.28400  21077836.41900                  -4478079.64540  21077840.50940
  27407259.94300  23460910.98900                   5571336.89340  23460916.25140
  -6327882.32900  21032092.11400                  -4775977.36940  21032095.03240
  -2432664.84600  23577325.50500                  -1827618.03040  23577330.05240
 96  9  5  0 10 30.0010000  0  6  1 14 15 21 25 29
  17078237.65400  22792096.00500                  13440787.05240  22792100.01340
  -3483619.59300  23392992.97400                  -2645900.84740  23392998.08340
  -5857459.61700  21084005.11400                  -4452819.13040  21084009.19240
  27536498.32000  23485504.05200                   5672042.08240  23485508.97440
  -6296095.70900  21038140.80200                  -4751208.56440  21038143.59140
  -2453248.48100  23573408.06700                  -1843657.21540  23573412.18140
 96  9  5  0 11  0.0010000  0  6  1 14 15 21 25 29
  17199656.43600  22815201.13800                  13535399.06440  22815205.48540
  -3518657.51800  23386324.47400                  -2673203.10140  23386328.96240
  -5824452.43900  21090286.11400                  -4427099.26040  21090290.09940
  27665937.02500  23510135.35600                   5772903.36540  23510140.65340
  -6263809.45200  21044284.45800                  -4726050.43540  21044287.29440
  -2473668.22000  23569522.46600                  -1859568.64340  23569526.88440
 96  9  5  0 11 30.0010000  0  6  1 14 15 21 25 29
  17321159.16800  22838323.25500                  13630076.48640  22838327.41540
  -3553601.89000  23379675.06700                  -2700432.44840  23379680.11840
  -5790793.84100  21096690.84900                  -4400871.78240  21096694.86840
  27795650.14700  23534818.95000                   5873978.44340  23534824.09540
  -6230951.98500  21050536.99700                  -4700447.20140  21050539.92740
  -2493885.48200  23565674.89600                  -1875322.32640  23565678.76340
 96  9  5  0 12  0.0010000  0  6  1 14 15 21 25 29
  17442703.87800  22861452.45800                  13724786.63040  22861456.37240
  -3588497.87500  23373034.65300                  -2727624.08740  23373039.23540
  -5756532.51700  21103210.94200                  -4374174.65740  21103214.90340
  27925592.77200  23559547.07500                   5975232.36840  23559552.31340
  -6197567.42800  21056890.16100                  -4674433.25340  21056892.92740
  -2513958.56900  23561855.00500                  -1890963.65840  23561859.13040
 96  9  5  0 12 30.0010000  0  6  1 14 15 21 25 29
  17564358.40600  22884602.38000                  13819582.33840  22884606.63440
  -3623293.53400  23366411.94200                  -2754737.58340  23366415.83340
  -5721613.09400  21109856.01300                  -4346964.72740  21109859.98540
  28055816.10900  23584327.41900                   6076705.02440  23584332.16540
  -6163593.54000  21063354.84900                  -4647960.08740  21063357.62640
  -2533846.46600  23558071.38000                  -1906460.69040  23558075.41140
 96  9  5  0 13  0.0010000  0  6  1 14 15 21 25 29
  17686110.49300  22907770.91100                  13914454.06140  22907774.96640
  -3658020.61000  23359804.16100                  -2781797.61440  23359808.34540
  -5686069.17100  21116619.84900                  -4319268.16840  21116623.90340
  28186288.29200  23609155.82500                   6178371.63240  23609160.44240
  -6129061.06400  21069926.45000                  -4621051.65740  21069929.22840
  -2553595.80300  23554312.57500                  -1921849.73140  23554316.68840
 96  9  5  0 13 30.0010000  0  6  1 14 15 21 25 29
  17807959.48000  22930958.09900                  14009401.29640  22930962.06040
  -3692688.67900  23353207.64600                  -2808811.66940  23353212.40340
  -5649894.72400  21123503.70800                  -4291080.29440  21123507.72840
  28317012.66700  23634030.54400                   6280234.73340  23634036.81340
  -6093966.93300  21076604.60600                  -4593705.57240  21076607.36040
  -2573175.35500  23550586.42700                  -1937106.50240  23550590.29440
 96  9  5  0 14  0.0010000  0  6  1 14 15 21 25 29
  17929895.13900  22954162.54400                  14104416.05140  22954166.69240
  -3727315.51900  23346617.73100                  -2835793.59040  23346622.19640
  -5613092.26100  21130506.88000                  -4262403.05740  21130510.95840
  28447975.02800  23658953.06700                   6382283.21040  23658957.84940
  -6058327.72900  21083386.72400                  -4565934.75640  21083389.37240
  -2592583.48200  23546893.58300                  -1952229.67240  23546897.36840
 96  9  5  0 14 30.0010000  0  6  1 14 15 21 25 29
  18051906.67000  22977379.63000                  14199489.95740  22977383.46240
  -3761919.29600  23340034.08300                  -2862757.53840  23340038.73540
  -5575668.79700  21137628.01300                  -4233241.92240  21137632.19640
  28579159.74600  23683916.38000                   6484505.02940  23683921.71240
  -6022169.15100  21090267.20800                  -4537759.23240  21090270.11440
  -2611825.89400  23543232.02800                  -1967223.72140  23543235.54440
 96  9  5  0 15  0.0010000  0  6  1 14 15 21 25 29
  18173968.21100  23000607.36400                  14294602.80640  23000611.37240
  -3796519.31600  23333448.70000                  -2889718.58640  23333453.35340
  -5537637.08100  21144865.42700                  -4203606.82540  21144869.49340
  28710551.86400  23708919.88000                   6586888.41240  23708924.12240
  -5985514.39500  21097242.21600                  -4509197.08440  21097245.09940
  -2630916.71600  23539598.69200                  -1982099.64740  23539602.82940
 96  9  5  0 15 30.0010000  0  6  1 14 15 21 25 29
  18296104.81800  23023848.49700                  14389774.15240  23023853.18540
  -3831082.82000  23326872.68500                  -2916651.14840  23326877.36040
  -5498954.38300  21152226.48900                  -4173464.47040  21152230.47440
  28842199.62000  23733971.34900                   6689471.05440  23733977.20840
  -5948327.61300  21104318.85600                  -4480220.36940  21104321.41140
  -2649820.94100  23536001.63000                  -1996830.17740  23536005.06340
 96  9  5  0 16  0.0010000  0  6  1 14 15 21 25 29
  18418342.32000  23047110.15300                  14485024.12740  23047114.14940
  -3865595.78200  23320304.81700                  -2943544.33340  23320309.54040
  -5459613.46000  21159712.92700                  -4142809.21240  21159716.95840
  28974108.44600  23759074.01300                   6792257.06340  23759077.99740
  -5910598.48500  21111498.56000                  -4450821.03440  21111501.48940
  -2668553.08600  23532437.09100                  -2011426.60440  23532440.27840
 96  9  5  0 16 30.0010000  0  6  1 14 15 21 25 29
  18540698.44500  23070393.23900                  14580366.52640  23070397.68140
  -3900044.51800  23313749.15300                  -2970387.49940  23313753.89940
  -5419604.52600  21167326.46600                  -4111633.43040  21167330.49740
  29106292.38500  23784226.56000                   6895257.46340  23784230.94240
  -5872298.68200  21118786.70800                  -4420977.02740  21118789.48540
  -2687105.75900  23528906.52800                  -2025883.18940  23528910.30240
 96  9  5  0 17  0.0010000  0  6  1 14 15 21 25 29
  18663161.34900  23093697.76300                  14675792.13540  23093701.59540
  -3934430.03000  23307205.95800                  -2997181.37640  23307210.75140
  -5378941.73300  21175064.29400                  -4079948.14940  21175068.38440
  29238735.72900  23809430.05200                   6998460.00040  23809436.00540
  -5833428.82700  21126183.30200                  -4390688.82340  21126186.11440
  -2705484.92800  23525408.52800                  -2040204.59340  23525412.19640
 96  9  5  0 17 30.0010000  0  6  1 14 15 21 25 29
  18785696.49200  23117015.31700                  14771274.02640  23117019.16140
  -3968772.18700  23300669.95800                  -3023941.48140  23300674.44640
  -5337666.47400  21182919.03600                  -4047785.61740  21182923.04440
  29371397.20800  23834674.63000                   7101832.53440  23834679.81040
  -5794023.72400  21133681.66100                  -4359983.54740  21133684.49740
  -2723720.55100  23521938.82500                  -2054414.12940  23521942.55240
 96  9  5  0 18  0.0010000  0  6  1 14 15 21 25 29
  18908301.72000  23140346.02100                  14866810.54140  23140350.54440
  -4003055.06600  23294146.45000                  -3050655.38740  23294150.86840
  -5295780.55200  21190889.09900                  -4015147.25040  21190893.22440
  29504256.84300  23859957.18500                   7205359.42140  23859962.78640
  -5754078.23800  21141283.36400                  -4328857.19040  21141286.21240
  -2741795.42600  23518498.76300                  -2068498.42340  23518502.67740
 96  9  5  0 18 30.0010000  0  6  1 14 15 21 25 29
  19030992.20200  23163693.82500                  14962413.47740  23163698.26740
  -4037235.38700  23287641.35600                  -3077289.37840  23287646.10340
  -5253244.09400  21198983.97400                  -3982001.96740  21198987.91140
  29637351.06600  23885283.82500                   7309069.15640  23885289.39240
  -5713561.90900  21148993.31000                  -4297286.01940  21148996.04040
  -2759657.60400  23515100.49700                  -2082416.96040  23515104.90340
 96  9  5  0 19  0.0010000  0  6  1 14 15 21 25 29
  19153731.62500  23187049.73100                  15058054.56440  23187053.63440
  -4071328.86900  23281155.36400                  -3103855.68840  23281159.88840
  -5210083.14400  21207197.06000                  -3948370.06940  21207201.23140
  29770660.44600  23910651.35600                   7412946.52240  23910657.08740
  -5672524.22000  21156802.35600                  -4265308.59840  21156805.12240
  -2777325.82900  23511737.68500                  -2096184.38840  23511741.57540
 96  9  5  0 19 30.0010000  0  6  1 14 15 21 25 29
  19276485.45600  23210409.87200                  15153706.87040  23210414.19640
  -4105372.09200  23274676.79400                  -3130382.87140  23274681.58740
  -5166322.79700  21215524.43500                  -3914271.10740  21215528.43140
  29904170.45800  23936058.36400                   7516980.20940  23936064.76340
  -5630999.05200  21164704.52100                  -4232951.32040  21164707.20440
  -2794824.96200  23508408.45800                  -2109820.03240  23508412.51340
 96  9  5  0 20  0.0010000  0  6  1 14 15 21 25 29
  19399326.88000  23233785.65300                  15249427.42440  23233789.73140
  -4139305.73200  23268218.57500                  -3156824.63340  23268223.08740
  -5121887.73900  21223979.88800                  -3879646.39740  21223983.97840
  30037969.44200  23961519.13800                   7621239.07940  23961524.92740
  -5588916.48900  21172712.34100                  -4200159.71140  21172715.30640
  -2812092.27700  23505122.59100                  -2123275.05140  23505126.37640
 96  9  5  0 20 30.0010000  0  6  1 14 15 21 25 29
  19522251.66900  23257177.01300                  15345212.94740  23257181.40740
  -4173131.90000  23261780.84100                  -3183182.67140  23261785.04840
  -5076776.10600  21232564.43500                  -3844494.48840  21232568.50140
  30172076.20700  23987039.44200                   7725737.82640  23987044.30640
  -5546279.13000  21180826.13000                  -4166935.78740  21180828.90740
  -2829137.00900  23501878.60600                  -2136556.64040  23501882.31040
 96  9  5  0 21  0.0010000  0  6  1 14 15 21 25 29
  19645194.49900  23280573.20800                  15441012.53140  23280577.50940
  -4206902.32900  23255355.63000                  -3209497.26340  23255360.16540
  -5031051.41100  21241265.70800                  -3808864.87240  21241269.79840
  30306423.25100  24012604.09900                   7830423.74640  24012609.73540
  -5503142.43000  21189034.45000                  -4133322.77540  21189037.12240
  -2846028.25800  23498663.95000                  -2149718.62440  23498668.01740
 96  9  5  0 21 30.0010000  0  6  1 14 15 21 25 29
  19768181.45900  23303976.32500                  15536846.48840  23303980.66140
  -4240600.68700  23248942.41900                  -3235755.68440  23248946.94240
  -4984694.39700  21250087.27800                  -3772742.53340  21250091.40340
  30441007.20900  24038215.26300                   7935294.33440  24038221.08740
  -5459468.81600  21197345.34900                  -4099291.37840  21197348.07940
  -2862752.77200  23495480.66900                  -2162750.68440  23495484.20840
 96  9  5  0 22  0.0010000  0  6  1 14 15 21 25 29
  19891214.34000  23327388.64600                  15632716.24240  23327392.95840
  -4274211.29300  23242546.78600                  -3261945.73640  23242551.19240
  -4937702.85900  21259029.27800                  -3736125.76440  21259033.40340
  30575808.11100  24063866.89600                   8040333.91640  24063874.10640
  -5415242.96400  21205761.59100                  -4064829.67140  21205764.27440
  -2879318.06200  23492328.88800                  -2175658.67040  23492332.27440
 96  9  5  0 22 30.0010000  0  6  1 14 15 21 25 29
  20014275.46100  23350807.16900                  15728607.99040  23350811.11840
  -4307731.35500  23236168.65300                  -3288065.25540  23236173.13040
  -4890086.80800  21268090.50500                  -3699022.35840  21268094.65340
  30710792.32500  24089552.95000                   8145516.37040  24089558.88040
  -5370469.00100  21214281.66900                  -4029940.86840  21214284.50540
  -2895729.35700  23489205.77800                  -2188446.66340  23489209.35340
 96  9  5  0 23  0.0010000  0  6  1 14 15 21 25 29
  20137347.31400  23374225.92700                  15824508.10840  23374230.29840
  -4341193.03400  23229801.02800                  -3314139.25740  23229805.42340
  -4841875.18000  21277264.41900                  -3661454.86540  21277268.64940
  30845925.27800  24115268.95000                   8250814.69840  24115274.55240
  -5325172.26700  21222901.18500                  -3994644.70640  21222904.03240
  -2912011.95600  23486107.09100                  -2201134.36740  23486110.44240
 96  9  5  0 23 30.0010000  0  6  1 14 15 21 25 29
  20260489.64800  23397659.93500                  15920463.14140  23397663.86040
  -4374568.16600  23223449.52100                  -3340145.82740  23223454.12640
  -4793020.56300  21286561.78600                  -3623386.34640  21286565.97040
  30981257.93100  24141021.44200                   8356268.64640  24141027.92340
  -5279299.11200  21231630.59100                  -3958899.39040  21231633.41540
  -2928118.13300  23483042.46600                  -2213684.61040  23483046.36840
 96  9  5  0 24  0.0010000  0  6  1 14 15 21 25 29
  20383683.61300  23421102.43500                  16016458.41240  23421106.68840
  -4407871.16500  23217112.02800                  -3366096.18540  23217116.52840
  -4743533.82400  21295978.50500                  -3584825.26440  21295982.64240
  31116802.76700  24166814.66100                   8461887.93040  24166820.38040
  -5232870.11100  21240465.86400                  -3922720.94640  21240468.56040
  -2944060.87300  23480008.80200                  -2226107.49840  23480012.61040
 96  9  5  0 24 30.0020000  0  6  1 14 15 21 25 29
  20507001.02600  23444568.78300                  16112549.86440  23444573.71740
  -4441064.25800  23210795.18900                  -3391960.90840  23210799.65440
  -4693355.91300  21305527.10400                  -3545725.60440  21305531.36940
  31252634.31300  24192663.25200                   8567730.62940  24192668.74840
  -5185840.23500  21249415.28300                  -3886074.28440  21249418.14340
  -2959777.35800  23477018.16600                  -2238354.06540  23477022.27940
 96  9  5  0 25  0.0020000  0  6  1 14 15 21 25 29
  20630373.82100  23468046.33000                  16208684.47540  23468050.37340
  -4474229.72400  23204484.43200                  -3417804.10940  23204488.92040
  -4642558.74600  21315193.73600                  -3506143.41340  21315197.94340
  31388686.15800  24218552.56400                   8673744.97940  24218558.63540
  -5138292.44200  21258463.41600                  -3849024.05640  21258466.15840
  -2975338.06100  23474057.20500                  -2250479.27640  23474061.01440
 96  9  5  0 25 30.0020000  0  6  1 14 15 21 25 29
  20753814.13000  23491535.91600                  16304871.71640  23491540.96740
  -4507354.94500  23198181.29900                  -3443615.95940  23198185.55340
  -4591130.06000  21324980.00200                  -3466069.12140  21324984.19740
  31524967.42000  24244486.46300                   8779938.06440  24244491.53740
  -5090226.86800  21267610.04900                  -3811570.35840  21267612.83840
  -2990740.36200  23471126.42400                  -2262481.03540  23471129.91640
 96  9  5  0 26  0.0020000  0  6  1 14 15 21 25 29
  20877293.24200  23515034.01000                  16401089.15340  23515038.75640
  -4540439.42500  23191884.76800                  -3469396.04740  23191888.90440
  -4539090.10000  21334882.99400                  -3425518.52040  21334887.15440
  31661462.10300  24270461.08000                   8886297.51240  24270467.01040
  -5041678.27900  21276848.27500                  -3773740.28640  21276850.91240
  -3006006.37500  23468221.49400                  -2274376.60240  23468225.70140
 96  9  5  0 26 30.0020000  0  6  1 14 15 21 25 29
  21000864.63500  23538548.08800                  16497378.51940  23538552.02540
  -4573412.27300  23185610.15000                  -3495089.16040  23185614.11140
  -4486386.54600  21344912.04900                  -3384450.82740  21344916.18640
  31798202.99600  24296481.62700                   8992848.77340  24296487.35740
  -4992593.15800  21286189.08800                  -3735492.13840  21286191.70140
  -3021074.25900  23465353.59600                  -2286117.77440  23465357.85040
 96  9  5  0 27  0.0020000  0  6  1 14 15 21 25 29
  21124462.93400  23562067.61900                  16593688.83840  23562072.60040
  -4606296.35700  23179353.36900                  -3520713.10240  23179357.06140
  -4433071.67000  21355057.55700                  -3342906.78940  21355061.64640
  31935140.77200  24322540.31400                   9099553.45040  24322545.18940
  -4943016.65800  21295623.09600                  -3696861.09740  21295625.90840
  -3036003.72900  23462512.65800                  -2297751.09940  23462516.53740
 96  9  5  0 27 30.0020000  0  6  1 14 15 21 25 29
  21248108.82700  23585597.75200                  16690036.26040  23585602.31140
  -4639044.95000  23173120.84600                  -3546231.47940  23173125.40440
  -4379115.71400  21365325.44700                  -3300863.20140  21365329.73640
  32072305.74600  24348641.68200                   9206435.16040  24348647.69340
  -4892901.15800  21305159.79100                  -3657810.05340  21305162.56840
  -3050752.86000  23459705.92400                  -2309243.90540  23459709.56840
 96  9  5  0 28  0.0020000  0  6  1 14 15 21 25 29
  21371771.26900  23609129.80700                  16786396.56540  23609133.32240
  -4671684.77700  23166910.76000                  -3571665.09240  23166914.58040
  -4324546.98300  21375709.25200                  -3258342.12240  21375713.49440
  32209671.12100  24374781.44700                   9313473.02140  24374785.83040
  -4842259.94100  21314796.51800                  -3618349.36840  21314799.27140
  -3065331.96400  23456931.51000                  -2320604.21140  23456935.57640
 96  9  5  0 28 30.0020000  0  6  1 14 15 21 25 29
  21495446.23700  23632664.04100                  16882766.62740  23632668.38940
  -4704227.40400  23160717.30700                  -3597022.97040  23160721.60740
  -4269366.17600  21386209.77500                  -3215344.10840  21386213.88940
  32347231.84000  24400958.60400                   9420663.14440  24400963.40840
  -4791087.52500  21324534.18900                  -3578474.76040  21324536.93240
  -3079741.57100  23454189.53300                  -2331832.46440  23454193.54140
 96  9  5  0 29  0.0020000  0  6  1 14 15 21 25 29
  21619149.40200  23656204.58800                  16979158.67040  23656209.55740
  -4736676.73000  23154542.22100                  -3622308.14140  23154546.93240
  -4213553.97900  21396830.38500                  -3171854.09540  21396834.59240
  32485017.22900  24427177.84600                   9528028.29540  24427183.11940
  -4739366.59200  21334376.45500                  -3538172.72940  21334379.18640
  -3093965.85000  23451482.85400                  -2342916.27740  23451486.52140
 96  9  5  0 29 30.0020000  0  6  1 14 15 21 25 29
  21742830.62300  23679739.40800                  17075533.59640  23679743.99040
  -4769092.90900  23148373.93900                  -3647567.48240  23148378.55740
  -4157154.57900  21407562.55700                  -3127906.52640  21407566.75240
  32622975.82800  24453431.01000                   9635528.40740  24453436.96340
  -4687149.92700  21344312.93200                  -3497484.42140  21344315.61540
  -3108033.54300  23448806.10400                  -2353878.08640  23448810.36940
 96  9  5  0 30  0.0020000  0  6  1 14 15 21 25 29
  21866546.33900  23703281.70500                  17171935.41040  23703286.29940
  -4801419.15600  23142222.61900                  -3672756.73440  23142227.08440
  -4100106.97700  21418418.64300                  -3083453.86040  21418422.76840
  32761169.38000  24479728.46300                   9743211.67840  24479734.48640
  -4634394.15300  21354351.96300                  -3456376.02240  21354354.65840
  -3121899.93200  23446166.27500                  -2364683.04140  23446170.24840
 96  9  5  0 30 30.0020000  0  6  1 14 15 21 25 29
  21990308.74600  23726834.45500                  17268373.61240  23726839.04940
  -4833652.82500  23136088.60400                  -3697873.87540  23136093.32640
  -4042408.06000  21429398.65800                  -3038493.67440  21429402.85440
  32899595.81700  24506070.32200                   9851076.37740  24506076.27540
  -4581104.63700  21364492.59600                  -3414851.71940  21364495.27940
  -3135577.77400  23443564.43900                  -2375341.06940  23443568.36540
 96  9  5  0 31  0.0020000  0  6  1 14 15 21 25 29
  22114096.11200  23750389.54100                  17364831.25440  23750394.12340
  -4865817.46700  23129967.68900                  -3722937.22140  23129972.13140
  -3984088.26100  21440496.54900                  -2993049.69340  21440500.68640
  33038217.86100  24532449.01800                   9959093.44040  24532455.20540
  -4527309.98800  21374729.48600                  -3372933.80940  21374732.14640
  -3149096.77700  23440991.58800                  -2385875.34440  23440995.47940
 96  9  5  0 31 30.0020000  0  6  1 14 15 21 25 29
  22237898.47300  23773948.43200                  17461300.58540  23773954.05740
  -4897924.18000  23123858.16600                  -3747955.41940  23123862.47940
  -3925175.93000  21451706.85400                  -2947143.99240  21451711.02540
  33177005.97200  24558860.08000                  10067239.96540  24558864.99040
  -4473033.23600  21385058.03300                  -3330640.23740  21385060.77540
  -3162491.85200  23438442.97100                  -2396313.04440  23438446.41640
 96  9  5  0 32  0.0020000  0  6  1 14 15 21 25 29
  22361756.64000  23797518.16600                  17557813.38640  23797522.49040
  -4929937.62300  23117766.15800                  -3772900.93540  23117770.83440
  -3865644.12100  21463035.72900                  -2900755.58640  21463039.91240
  33315982.78200  24585306.29100                  10175533.52340  24585311.57640
  -4418239.21600  21395484.76000                  -3287943.59340  21395487.65440
  -3175752.58800  23435919.11900                  -2406646.06440  23435922.81140
 96  9  5  0 32 30.0020000  0  6  1 14 15 21 25 29
  22485658.10600  23821095.89300                  17654359.94340  23821100.81440
  -4961872.61500  23111688.81400                  -3797785.32540  23111693.04540
  -3805509.36800  21474478.73600                  -2853897.35440  21474483.04940
  33455125.24300  24611783.62700                  10283956.10340  24611787.99840
  -4362937.08800  21406008.43200                  -3244851.02640  21406011.15040
  -3188895.17900  23433418.01800                  -2416887.02640  23433421.97940
 96  9  5  0 33  0.0020000  0  6  1 14 15 21 25 29
  22609632.86400  23844687.11900                  17750963.59540  23844692.56840
  -4993677.69900  23105636.36900                  -3822568.49240  23105640.14340
  -3744722.13600  21486046.35400                  -2806530.69840  21486050.58440
  33594493.86200  24638304.87700                  10392554.93340  24638311.29940
  -4307078.48500  21416638.08000                  -3201324.84140  21416640.96340
  -3201867.85500  23430949.28300                  -2426995.58740  23430953.09240
 96  9  5  0 33 30.0020000  0  6  1 14 15 21 25 29
  22733645.21800  23868285.98600                  17847596.56040  23868290.59240
  -5025382.79200  23099604.28300                  -3847273.73940  23099608.78340
  -3683308.83900  21497733.30700                  -2758676.19140  21497737.37340
  33734066.22200  24664864.49400                  10501312.54340  24664871.40040
  -4250687.54000  21427368.81400                  -3157383.84240  21427371.52140
  -3214692.27000  23428509.38500                  -2436988.62140  23428512.58440
 96  9  5  0 34  0.0020000  0  6  1 14 15 21 25 29
  22857632.54300  23891879.47100                  17944210.00640  23891884.07640
  -5057034.47500  23093580.33000                  -3871937.36140  23093584.42040
  -3621318.10500  21509529.57200                  -2710371.74040  21509533.76840
  33873786.70100  24691451.81400                  10610185.57040  24691459.14340
  -4193816.02900  21438191.20500                  -3113068.37540  21438193.97140
  -3227403.94500  23426090.14300                  -2446893.79440  23426093.75240
 96  9  5  0 34 30.0020000  0  6  1 14 15 21 25 29
  22981633.90000  23915476.36100                  18040834.38540  23915480.99040
  -5088592.48700  23087575.37700                  -3896528.00440  23087579.53740
  -3558705.56700  21521444.04100                  -2661582.76040  21521448.10740
  34013702.13100  24718077.74400                  10719210.52740  24718082.93640
  -4136416.59100  21449113.95500                  -3068341.54140  21449116.79140
  -3239949.14300  23423702.97100                  -2456669.24540  23423706.46340
 96  9  5  0 35  0.0020000  0  6  1 14 15 21 25 29
  23105637.27000  23939073.67400                  18137460.35740  23939078.36140
  -5120069.09700  23081586.22900                  -3921055.21340  23081590.48240
  -3495486.59900  21533474.04100                  -2612321.24340  21533478.18940
  34153799.98400  24744737.48600                  10828377.60740  24744743.69740
  -4078495.40400  21460136.08000                  -3023208.14740  21460138.82240
  -3252319.92700  23421348.71300                  -2466308.79640  23421352.76840
 96  9  5  0 35 30.0020000  0  6  1 14 15 21 25 29
  23229651.09600  23962673.41600                  18234094.45340  23962678.01040
  -5151450.03300  23075613.52500                  -3945507.87340  23075617.82640
  -3431660.07000  21545619.90800                  -2562586.30640  21545624.03340
  34294078.46800  24771430.86900                  10937685.41640  24771436.89340
  -4020046.59600  21471258.51800                  -2977663.61940  21471261.40040
  -3264513.64200  23419028.38500                  -2475810.37040  23419031.93640
 96  9  5  0 36  0.0020000  0  6  1 14 15 21 25 29
  23353673.93700  23986273.72900                  18330735.58240  23986277.90040
  -5182719.17100  23069663.38500                  -3969873.40940  23069667.58040
  -3367220.89300  21557882.67400                  -2512373.98040  21557886.84640
  34434543.60000  24798161.75200                  11047138.70240  24798167.90440
  -3961074.55900  21482480.24400                  -2931711.39140  21482482.97540
  -3276534.28600  23416741.52500                  -2485177.09340  23416745.04140
 96  9  5  0 36 30.0020000  0  6  1 14 15 21 25 29
  23477709.59600  24009876.65800                  18427386.70440  24009881.46340
  -5213860.24400  23063736.88500                  -3994139.15540  23063741.37340
  -3302155.81500  21570263.65000                  -2461673.94240  21570267.84640
  34575220.74100  24824931.58000                  11156757.15740  24824936.93640
  -3901575.06800  21493802.76000                  -2885348.14740  21493805.57240
  -3288377.18800  23414487.22100                  -2494405.30340  23414490.64340
 96  9  5  0 37  0.0020000  0  6  1 14 15 21 25 29
  23601776.92800  24033486.80700                  18524062.48240  24033491.08440
  -5244847.13200  23057841.15000                  -4018284.77040  23057844.99440
  -3236447.55300  21582767.79100                  -2410472.72240  21582771.95140
  34716122.54100  24851744.60400                  11266550.73640  24851751.83840
  -3841549.41100  21505225.43200                  -2838574.91140  21505227.97540
  -3300029.57700  23412269.26800                  -2503485.07840  23412272.98240
 96  9  5  0 37 30.0020000  0  6  1 14 15 21 25 29
  23725818.99400  24057090.27500                  18620718.61640  24057095.02140
  -5275725.41200  23051965.28300                  -4042345.75040  23051969.27940
  -3170149.68100  21595383.83000                  -2358812.06240  21595388.09640
  34857193.96300  24878588.79900                  11376476.43840  24878594.37740
  -3781073.76800  21516733.26000                  -2791451.02740  21516736.06140
  -3311566.63400  23410074.64300                  -2512474.97240  23410078.74440
 96  9  5  0 38  0.0020000  0  6  1 14 15 21 25 29
  23849837.58100  24080690.07200                  18717356.41940  24080695.10040
  -5306509.53900  23046106.90000                  -4066333.36840  23046111.04940
  -3103270.24900  21608110.86900                  -2306698.24540  21608114.97140
  34998421.39000  24905464.32200                  11486523.69540  24905468.52940
  -3720161.27200  21528324.85400                  -2743986.74440  21528327.65440
  -3322993.06500  23407900.19700                  -2521378.67240  23407903.85440
 96  9  5  0 38 30.0020000  0  6  1 14 15 21 25 29
  23973882.47600  24104296.01800                  18814014.74340  24104300.68240
  -5337173.56000  23040271.37700                  -4090227.39140  23040275.22140
  -3035777.37700  21620954.01800                  -2254106.42340  21620958.14340
  35139832.91800  24932374.24400                  11596714.38540  24932381.95940
  -3658770.96600  21540006.92400                  -2696150.14540  21540009.61940
  -3334271.51200  23405753.70500                  -2530167.06040  23405757.42040
 96  9  5  0 39  0.0020000  0  6  1 14 15 21 25 29
  24097955.22600  24127906.09600                  18910694.75840  24127910.32640
  -5367730.14700  23034457.11100                  -4114037.69640  23034460.96740
  -2967681.44300  21633912.22900                  -2201044.67640  21633916.45940
  35281420.00900  24959317.62700                  11707041.87940  24959323.86140
  -3596896.28700  21551781.22900                  -2647936.10340  21551784.13540
  -3345412.29800  23403634.08800                  -2538848.18240  23403637.89640
 96  9  5  0 39 30.0020000  0  6  1 14 15 21 25 29
  24222019.16100  24151513.23600                  19007367.92640  24151517.26840
  -5398218.98200  23028655.77500                  -4137795.21640  23028659.79540
  -2899014.97800  21646979.39300                  -2147538.35940  21646983.52940
  35423158.38800  24986289.05700                  11817487.37140  24986294.26040
  -3534550.12200  21563645.32200                  -2599354.68440  21563648.08840
  -3356443.50200  23401534.60400                  -2547443.90840  23401538.52940
 96  9  5  0 40  0.0020000  0  6  1 14 15 21 25 29
  24346131.53900  24175132.81400                  19104078.81940  24175136.70540
  -5428588.50700  23022876.60400                  -4161459.76340  23022880.48240
  -2829725.56600  21660164.51000                  -2093546.63340  21660168.79940
  35565096.73700  25013298.57200                  11928088.59540  25013305.12340
  -3471660.47900  21575612.59600                  -2550349.76540  21575615.36140
  -3367300.01200  23399468.61900                  -2555903.51940  23399472.21740
 96  9  5  0 40 30.0020000  0  6  1 14 15 21 25 29
  24470278.70700  24198757.61100                  19200816.84740  24198761.02140
  -5458849.13400  23017117.18200                  -4185039.45940  23017121.31840
  -2759824.84700  21673466.04900                  -2039078.56040  21673470.30340
  35707227.26400  25040345.92400                  12038839.57840  25040350.37740
  -3408232.69400  21587682.45500                  -2500925.52240  21587685.35040
  -3377988.77900  23397434.37700                  -2564232.40440  23397438.33840
 96  9  5  0 41  0.0030000  0  6  1 14 15 21 25 29
  24594459.49200  24222388.46000                  19297581.05440  24222392.45640
  -5489001.02500  23011379.26500                  -4208534.41640  23011383.35440
  -2689316.69100  21686883.64700                  -1984137.16440  21686887.94840
  35849547.97200  25067428.14700                  12149738.71740  25067435.14740
  -3344277.79900  21599852.67100                  -2451090.53640  21599855.46040
  -3388514.58800  23395431.01500                  -2572434.32440  23395435.16340
 96  9  5  0 41 30.0030000  0  6  1 14 15 21 25 29
  24718656.40300  24246021.04600                  19394357.84240  24246024.33940
  -5519041.64100  23005662.80400                  -4231942.67340  23005666.98740
  -2618213.69400  21700413.89000                  -1928732.24940  21700418.05040
  35992018.85900  25094540.37400                  12260754.86140  25094543.47940
  -3279816.42700  21612119.49100                  -2400860.89640  21612122.31540
  -3398879.34500  23393459.61600                  -2580510.74540  23393463.40140
 96  9  5  0 42  0.0030000  0  6  1 14 15 21 25 29
  24842849.08100  24269654.81200                  19491131.31440  24269660.41340
  -5548982.63100  22999965.78800                  -4255273.30740  22999970.06540
  -2546536.49700  21714053.71800                  -1872879.91140  21714057.97240
  36134621.60200  25121675.60100                  12371873.79140  25121679.62040
  -3214875.57500  21624477.35100                  -2350257.63840  21624480.22240
  -3409106.75800  23391512.95200                  -2588480.13040  23391516.77240
 96  9  5  0 42 30.0030000  0  6  1 14 15 21 25 29
  24967094.07700  24293297.67900                  19587945.55240  24293301.95640
  -5578752.12500  22994300.72600                  -4278470.29940  22994304.55840
  -2474213.01900  21727816.24900                  -1816523.98340  21727820.56240
  36277425.91600  25148850.37400                  12483149.80540  25148858.97940
  -3149392.74600  21636938.61600                  -2299232.06040  21636941.20640
  -3419133.95500  23389604.83500                  -2596293.51740  23389608.49140
 96  9  5  0 43  0.0030000  0  6  1 14 15 21 25 29
  25091311.24900  24316935.53000                  19684738.15740  24316940.37040
  -5608410.16100  22988656.84300                  -4301580.43440  22988660.75740
  -2401307.09200  21741690.01500                  -1759714.18840  21741694.15140
  36420362.37400  25176051.09300                  12594528.88140  25176058.02240
  -3083440.16400  21649488.57700                  -2247840.43640  21649491.29640
  -3429036.46500  23387721.41300                  -2604009.74340  23387725.17540
 96  9  5  0 43 30.0030000  0  6  1 14 15 21 25 29
  25215506.26600  24340569.90500                  19781513.42540  24340574.67540
  -5637935.61200  22983038.53800                  -4324587.25540  22983042.47640
  -2327805.57600  21755676.77200                  -1702440.30240  21755681.02640
  36563459.69700  25203281.63200                  12706033.17440  25203288.79640
  -3017002.21300  21662131.11600                  -2196070.60440  21662133.98740
  -3438798.66400  23385863.27200                  -2611616.63140  23385866.81240
 96  9  5  0 44  0.0030000  0  6  1 14 15 21 25 29
  25339696.23200  24364201.49900                  19878284.79840  24364205.89440
  -5667327.83900  22977445.22600                  -4347490.26940  22977449.46840
  -2253693.73500  21769779.77200                  -1644690.84040  21769784.03840
  36706751.56400  25230548.27200                  12817689.09540  25230555.51940
  -2950068.47800  21674868.53800                  -2143914.44340  21674871.19840
  -3448410.37600  23384033.14700                  -2619106.26140  23384037.03840
 96  9  5  0 44 30.0030000  0  6  1 14 15 21 25 29
  25463889.89300  24387834.56900                  19975059.05440  24387839.29240
  -5696594.99700  22971876.16300                  -4370295.82840  22971880.10140
  -2178975.64700  21783998.10100                  -1586468.97340  21784002.46040
  36850237.09000  25257853.83500                  12929495.97140  25257858.20640
  -2882651.13800  21687697.39700                  -2091381.45440  21687700.24540
  -3457873.72300  23382233.14000                  -2626480.27440  23382236.64440
 96  9  5  0 45  0.0030000  0  6  1 14 15 21 25 29
  25588099.93100  24411471.06900                  20071846.05740  24411475.75740
  -5725733.73900  22966331.60800                  -4393001.31940  22966335.58140
  -2103656.32800  21798331.07700                  -1527778.61940  21798335.41340
  36993930.95100  25285199.21800                  13041465.17140  25285204.38640
  -2814752.97000  21700617.99100                  -2038473.79540  21700620.73340
  -3467181.78400  23380461.50700                  -2633733.28640  23380465.43340
 96  9  5  0 45 30.0030000  0  6  1 14 15 21 25 29
  25712322.19000  24435110.66300                  20168642.58340  24435115.35140
  -5754754.21800  22960808.63200                  -4415614.65640  22960812.34740
  -2027757.99700  21812773.72600                  -1468637.08940  21812778.00340
  37137812.85900  25312578.13200                  13153581.00640  25312586.94840
  -2746390.74900  21713627.00700                  -1985204.53840  21713629.89040
  -3476340.07400  23378718.56900                  -2640869.59140  23378722.29640
 96  9  5  0 46  0.0030000  0  6  1 14 15 21 25 29
  25836543.68600  24458748.44400                  20265438.54640  24458753.09740
  -5783673.07000  22955305.16300                  -4438148.80940  22955308.91340
  -1951290.15000  21827325.53000                  -1409051.77640  21827329.86640
                  25339985.03000
  -2677572.52900  21726722.56900                  -1931579.95440  21726725.38240
  -3485351.73300  23377003.68700                  -2647891.64840  23377007.47240
 96  9  5  0 46 30.0030000  0  6  1 14 15 21 25 29
  25960747.99100  24482384.53000                  20362221.06340  24482388.74940
  -5812476.07700  22949824.16300                  -4460592.69140  22949828.39440
  -1874264.81000  21841983.12400                  -1349032.05740  21841987.43740
    139374.27800  25367423.89000
  -2608305.13500  21739903.85800                  -1877605.36640  21739906.69440
  -3494224.21400  23375316.00700                  -2654805.24240  23375319.46440
 96  9  5  0 47  0.0030000  0  6  1 14 15 21 25 29
  26084949.41800  24506017.95200                  20459001.38040  24506022.54640
  -5841137.84900  22944370.30400                  -4482926.51240  22944374.37040
  -1796663.93600  21856749.78800                  -1288563.87040  21856753.99540
    283705.64600  25394891.05400
  -2538554.12500  21753176.75700                  -1823253.93640  21753179.48740
  -3502943.52800  23373656.89700                  -2661599.48840  23373660.02640
 96  9  5  0 47 30.0030000  0  6  1 14 15 21 25 29
  26209181.84600  24529659.37400                  20555805.83440  24529663.67540
  -5869631.54900  22938948.04600                  -4505129.37340  22938952.22940
  -1718442.81900  21871634.56200                  -1227612.37940  21871638.99140
    428206.03100  25422387.46800
  -2468273.83900  21766550.82700                  -1768490.07740  21766553.67540
  -3511482.87000  23372031.01500                  -2668253.48740  23372034.63640
 96  9  5  0 48  0.0030000  0  5  1 14 15 25 29
  26333436.53800  24553304.48300                  20652627.62040  24553308.77240
  -5897973.66900  22933554.43700                  -4527214.11640  22933558.45640
  -1639602.10000  21886637.78800                  -1166178.08140  21886642.11240
  -2397458.52200  21780026.67100                  -1713309.31740  21780029.41340
  -3519864.95900  23370436.19400                  -2674784.97040  23370439.48740
 96  9  5  0 48 30.0030000  0  5  1 14 15 25 29
  26457686.50900  24576947.48300                  20749445.74040  24576952.72240
  -5926181.44400  22928187.04600                  -4549194.18940  22928191.05440
  -1560175.00200  21901752.30400                  -1104286.86440  21901756.47640
  -2326130.96300  21793599.75700                  -1657729.40140  21793602.46440
  -3528127.15200  23368864.10800                  -2681223.01640  23368867.34340
 96  9  5  0 49  0.0030000  0  5  1 14 15 25 29
  26581944.84700  24600594.15500                  20846270.39940  24600598.23340
  -5954239.24100  22922847.87400                  -4571057.38640  22922852.21040
  -1480137.37500  21916983.06900                  -1041919.90640  21916987.37040
  -2254272.78400  21807274.15500                  -1601736.01640  21807276.85140
  -3536247.35500  23367318.83500                  -2687550.41440  23367322.58540
 96  9  5  0 49 30.0030000  0  5  1 14 15 25 29
  26706183.65000  24624234.77200                  20943079.79640  24624239.98740
  -5982153.11500  22917535.22600                  -4592808.42940  22917539.43340
  -1399501.43000  21932327.60100                   -979086.72740  21932332.11240
  -2181912.71000  21821043.80400                  -1545351.54540  21821046.65140
  -3544224.79600  23365800.58500                  -2693766.57640  23365804.00740
 96  9  5  0 50  0.0030000  0  5  1 14 15 25 29
  26830334.85000  24647861.74100                  21039820.94940  24647865.30440
  -6009969.49800  22912242.64700                  -4614483.51540  22912246.78440
  -1318346.97200  21947770.56900                   -915849.51040  21947774.84740
  -2109134.20700  21834893.01500                  -1488641.02140  21834895.83940
  -3552107.91700  23364300.60800                  -2699909.23140  23364304.30040
 96  9  5  0 50 30.0030000  0  5  1 14 15 25 29
  26954464.31000  24671482.12400                  21136545.16840  24671488.15940
  -6037599.50500  22906984.77200                  -4636013.37040  22906988.80440
  -1236609.76100  21963324.90500                   -852158.20640  21963329.31240
  -2035886.67100  21848831.41300                  -1431565.02140  21848834.22640
  -3559805.21800  23362836.14000                  -2705907.11140  23362839.74940
 96  9  5  0 51  0.0030000  0  5  1 14 15 25 29
  27078600.24000  24695104.79600                  21233274.41840  24695109.74140
  -6065031.18800  22901764.69400                  -4657388.68440  22901768.64440
  -1154270.45800  21978993.67900                   -787997.73340  21978998.08540
  -1962168.35000  21862859.71800                  -1374122.17440  21862862.51940
  -3567288.77500  23361411.06900                  -2711738.41140  23361414.65540
 96  9  5  0 51 30.0030000  0  5  1 14 15 25 29
  27202706.93700  24718721.67900                  21329980.87340  24718726.51940
  -6092339.32100  22896568.06200                  -4678667.72740  22896572.24540
  -1071401.00200  21994763.25700                   -723424.15540  21994767.71040
  -1888043.27700  21876964.80400                  -1316362.37840  21876967.74540
  -3574625.11400  23360015.46800                  -2717455.00840  23360019.40540
 96  9  5  0 52  0.0030000  0  5  1 14 15 25 29
  27326843.87100  24742343.97600                  21426710.93140  24742347.26940
  -6119494.99100  22891400.56200                  -4699827.96440  22891404.67540
   -987974.46900  22010638.49100                   -658416.49140  22010643.01540
  -1813466.74500  21891156.62400                  -1258250.79740  21891159.55440
  -3581797.03200  23358650.31200                  -2723043.49340  23358653.96840
 96  9  5  0 52 30.0030000  0  5  1 14 15 25 29
  27450979.19700  24765966.92900                  21523439.70440  24765971.92140
  -6146540.45400  22886253.98300                  -4720902.33840  22886257.99140
   -904023.04100  22026614.14700                   -592999.82240  22026618.65940
  -1738472.94800  21905427.52200                  -1199814.07440  21905430.22940
  -3588861.20900  23357306.73300                  -2728548.01240  23357310.48340
 96  9  5  0 53  0.0030000  0  5  1 14 15 25 29
  27575182.34400  24789600.97600                  21620221.30940  24789605.67540
  -6173429.54800  22881136.44400                  -4741854.85940  22881140.55840
   -819483.27800  22042701.20200                   -527124.70540  22042705.79640
  -1662992.96500  21919790.85100                  -1140998.50240  21919793.68740
  -3595775.38300  23355991.17900                  -2733935.65440  23355994.87040
 96  9  5  0 53 30.0030000  0  5  1 14 15 25 29
  27699474.09300  24813253.64000                  21717071.97040  24813257.64740
  -6200120.81200  22876057.48300                  -4762653.23540  22876061.40940
   -734318.39100  22058907.81900                   -460762.47940  22058912.48340
  -1586980.43200  21934255.71000                  -1081767.95540  21934258.47640
  -3602512.91500  23354708.83500                  -2739185.65340  23354712.40940
 96  9  5  0 54  0.0030000  0  6  1 14 15 22 25 29
  27823722.35500  24836896.17100                  21813888.77140  24836900.58940
  -6226695.74700  22871001.08500                  -4783360.95940  22871005.09340
   -648623.48600  22075215.03800                   -393987.25440  22075219.57340
    -37259.46310  25407194.96000
  -1510540.68300  21948801.52200                  -1022204.51540  21948804.34740
  -3609173.50700  23353440.83500                  -2744375.70840  23353444.49140
 96  9  5  0 54 30.0030000  0  6  1 14 15 22 25 29
  27947912.80300  24860529.17900                  21910660.49140  24860534.17140
  -6253137.62500  22865969.08500                  -4803964.99940  22865973.32740
   -562380.24700  22091626.55400                   -326784.75540  22091630.94840
    -85927.27400  25397933.85800
  -1433669.60900  21963429.37400                   -962304.98040  21963432.05840
  -3615733.65200  23352192.67900                  -2749487.47740  23352196.14740
 96  9  5  0 55  0.0030000  0  6  1 14 15 22 25 29
  28072063.65900  24884153.81200                  22007401.37540  24884159.13240
  -6279412.07800  22860968.67100                  -4824438.58740  22860972.73740
   -475559.05300  22108147.93700                   -259131.90540  22108152.37840
   -134649.68700  25388662.13200
  -1356331.19200  21978146.77200                   -902041.27640  21978149.58540
  -3622153.75400  23350971.02200                  -2754490.12340  23350974.42140
 96  9  5  0 55 30.0030000  0  6  1 14 15 22 25 29
  28196206.44000  24907777.87400                  22104135.96440  24907782.97240
  -6305451.25800  22856014.60100                  -4844728.83840  22856018.59740
   -388119.78700  22124787.31200                   -190997.43740  22124791.72940
   -183385.24500  25379387.21000
  -1278481.83200  21992960.85100                   -841379.43840  21992963.76940
  -3628381.11400  23349785.46800                  -2759342.58840  23349788.97240
 96  9  5  0 56  0.0030000  0  6  1 14 15 22 25 29
  28320286.28800  24931389.67900                  22200821.51640  24931394.96440
  -6331308.23300  22851093.08500                  -4864877.11940  22851096.98740
   -300127.85500  22141531.63200                   -122432.32240  22141536.16740
   -232187.36400  25370101.21000
  -1200181.96600  22007860.86600                   -780366.55440  22007863.62040
  -3634464.94600  23348628.59300                  -2764083.21440  23348632.10840
 96  9  5  0 56 30.0030000  0  6  1 14 15 22 25 29
  28444322.87600  24954993.64700                  22297473.36140  24954998.58140
  -6356989.64600  22846206.52200                  -4884888.59340  22846210.48340
   -211594.81600  22158378.93700                    -53445.57040  22158383.47240
   -281060.45600  25360800.83500
  -1121432.73400  22022846.29600                   -719003.51340  22022849.14440
  -3640411.70900  23347496.61600                  -2768717.03240  23347500.10840
 96  9  5  0 57  0.0030000  0  6  1 14 15 22 25 29
  28568332.38500  24978591.80400                  22394104.13440  24978596.42140
  -6382493.14800  22841352.85100                  -4904761.43340  22841356.74140
   -122529.71400  22175327.59300                     15955.78740  22175331.81240
   -330018.39800  25351483.46000                    -36877.29750  25351489.64740
  -1042235.61700  22037916.92100                   -657291.47740  22037919.62840
  -3646230.16500  23346389.85100                  -2773250.86340  23346393.40140
 96  9  5  0 57 30.0040000  0  6  1 14 15 22 25 29
  28692351.18000  25002190.91000                  22490742.11940  25002196.98040
  -6407799.76200  22836537.90200                  -4924480.86640  22836541.73440
    -32907.90700  22192381.78500                     85790.92940  22192386.21540
   -379029.79300  25342157.41000                    -75068.00140  25342165.19540
   -962569.35400  22053077.10500                   -595213.86640  22053079.89540
  -3651899.14600  23345310.34800                  -2777668.22340  23345314.01640
 96  9  5  0 58  0.0040000  0  6  1 14 15 22 25 29
  28816434.41900  25025804.65200                  22587430.31540  25025808.81240
  -6432881.37900  22831764.66800                  -4944024.96440  22831768.55940
     57307.81000  22209549.09000                    156088.87040  22209553.53140
   -428044.68600  25332830.34000                   -113261.39140  25332837.13740
   -882392.54000  22068334.03500                   -532738.43040  22068336.81240
  -3657380.04900  23344267.82400                  -2781939.01940  23344271.30540
 96  9  5  0 58 30.0040000  0  6  1 14 15 22 25 29
  28940533.64600  25049418.05900                  22684131.00040  25049423.66040
  -6457802.20000  22827022.33200                  -4963443.77140  22827026.19940
    148070.49100  22226820.93400                    226813.00840  22226825.38740
   -477105.67900  25323494.42600                   -151490.70740  25323498.82040
   -801759.17500  22083678.11300                   -469907.24040  22083681.04340
  -3662738.37300  23343247.79300                  -2786114.31340  23343251.37940
 96  9  5  0 59  0.0040000  0  6  1 14 15 22 25 29
  29064642.35800  25073036.94900                  22780839.04140  25073041.55540
  -6482555.30500  22822312.30100                  -4982731.89140  22822316.18040
    239396.38800  22244199.87100                    297976.02140  22244204.39540
   -526188.01600  25314154.35500                   -189736.58040  25314161.77740
   -720658.09400  22099111.03500                   -406711.59440  22099113.96540
  -3667957.27800  23342254.25400                  -2790180.95940  23342257.64140
 96  9  5  0 59 30.0040000  0  6  1 14 15 22 25 29
  29188756.50900  25096654.08200                  22877551.37040  25096660.03540
  -6507147.59300  22817632.17600                  -5001894.69240  22817636.11340
    331284.75700  22261685.42600                    369577.32240  22261690.02040
   -575281.60800  25304811.33200                   -227991.30940  25304817.13340
   -639092.19100  22114632.70700                   -343153.74640  22114635.52040
  -3673029.37800  23341289.66800                  -2794133.21240  23341293.10240
 96  9  5  1  0  0.0040000  0  6  1 14 15 22 25 29
  29312861.74400  25120272.31600                  22974256.70740  25120277.25040
  -6531580.70100  22812982.74600                  -5020933.47440  22812986.82440
    423719.09400  22279275.22300                    441604.04940  22279279.80540
   -624400.15400  25295464.59000                   -266265.51240  25295468.60940
   -557086.40000  22130237.98800                   -279253.14140  22130240.70740
  -3677966.59400  23340350.92600                  -2797980.36240  23340354.31240
 96  9  5  1  0 30.0040000  0  6  1 14 15 22 25 29
  29436946.56100  25143883.66800                  23070946.17440  25143889.02340
  -6555843.43000  22808366.24600                  -5039839.47340  22808370.26640
    516698.05400  22296968.47300                    514055.16040  22296972.93740
   -673536.77700  25286115.32400                   -304553.74640  25286120.86740
   -474656.06700  22145923.96500                   -215021.71240  22145926.61340
  -3682757.61000  23339438.05900                  -2801713.58940  23339441.32840
 96  9  5  1  1  0.0040000  0  6  1 14 15 22 25 29
  29561012.37500  25167491.83200                  23167620.82140  25167497.21140
  -6579914.68000  22803785.29300                  -5058596.27640  22803789.30140
    610221.48800  22314765.29300                    586930.53740  22314769.91040
   -722691.73000  25276760.41000                   -342856.24440  25276768.00840
   -391807.43400  22161689.29300                   -150464.33640  22161692.08240
  -3687392.38000  23338556.34000                  -2805325.05040  23338559.64540
 96  9  5  1  1 30.0040000  0  6  1 14 15 22 25 29
  29685067.23000  25191099.35500                  23264286.90640  25191104.67640
  -6603783.05900  22799242.95700                  -5077194.99840  22799246.84840
    704279.09800  22332663.98000                    660222.15740  22332668.64540
   -771873.93100  25267401.28500                   -381179.98040  25267408.01240
   -308551.92900  22177532.48800                    -85589.92040  22177535.14840
  -3691876.69700  23337703.32400                  -2808819.29940  23337706.79340
 96  9  5  1  2  0.0040000  0  6  1 14 15 22 25 29
  29809115.92300  25214703.55100                  23360948.19740  25214708.59040
  -6627420.68900  22794745.11300                  -5095613.91640  22794749.08640
    798886.70700  22350667.02000                    733942.34940  22350671.68440
   -821060.64200  25258042.08200                   -419507.21340  25258044.78940
   -224867.50300  22193457.16800                    -20381.28040  22193459.86340
  -3696190.71200  23336882.12900                  -2812180.83740  23336885.76240
 96  9  5  1  2 30.0040000  0  6  1 14 15 22 25 29
  29933157.57600  25238309.36300                  23457604.00840  25238314.40240
  -6650832.13100  22790290.21500                  -5113856.58040  22790294.34040
    894047.29400  22368775.62900                    808093.43040  22368780.27040
   -870240.94300  25248682.36300                   -457829.43740  25248688.59840
   -140736.32400  22209466.55900                     45175.47540  22209469.34840
  -3700335.07300  23336093.43400                  -2815410.17240  23336096.76240
 96  9  5  1  3  0.0040000  0  6  1 14 15 22 25 29
  30057163.03000  25261906.77700                  23554231.62340  25261912.12140
  -6674049.23200  22785872.09000                  -5131947.81840  22785876.05140
    989726.06400  22386983.05900                    882648.28640  22386987.71140
   -919460.97000  25239316.89500                   -496182.66140  25239323.55140
    -56174.41700  22225558.40200                    111067.87140  22225561.39140
  -3704343.87900  23335330.09800                  -2818533.88740  23335333.55540
 96  9  5  1  3 30.0040000  0  6  1 14 15 22 25 29
  30181189.16700  25285508.10500                  23650875.36340  25285513.32040
  -6697026.55000  22781499.98000                  -5149852.20240  22781503.90640
   1085971.52000  22405297.53500                    957644.72840  22405302.11740
   -968671.49900  25229952.39500                   -534528.43040  25229959.71140
     28877.39400  22241742.85500                    177342.00540  22241745.93740
  -3708152.85100  23334604.80100                  -2821501.88640  23334608.31640
 96  9  5  1  4  0.0040000  0  6  1 14 15 22 25 29
  30305189.30200  25309105.22300                  23747498.82140  25309110.30940
  -6719816.34800  22777162.88700                  -5167610.47040  22777166.95340
   1182741.74300  22423712.37900                   1033050.07140  22423716.97340
  -1017898.71400  25220584.52000                   -572887.21940  25220588.32840
    114386.94000  22258014.82400                    243972.81840  22258017.67240
  -3711796.71000  23333911.94900                  -2824341.23840  23333915.28940
 96  9  5  1  4 30.0040000  0  6  1 14 15 22 25 29
  30429173.91900  25332698.15200                  23844110.17640  25332701.98440
  -6742424.95000  22772860.48800                  -5185227.55540  22772864.37940
   1280027.10800  22442225.47300                   1108856.82640  22442229.98440
  -1067154.32100  25211211.02700                   -611268.14740  25211215.63340
    200338.71300  22274370.95700                    310948.22040  22274373.75840
  -3715297.37400  23333246.15200                  -2827069.00040  23333249.59840
 96  9  5  1  5  0.0040000  0  6  1 14 15 22 25 29
  30553110.90600  25356281.54300                  23940684.40240  25356285.80940
  -6764870.80700  22768589.53500                  -5202717.81440  22768593.53140
   1377791.72500  22460829.69900                   1185037.01540  22460834.21140
  -1116468.31800  25201827.56600                   -649694.73740  25201830.71940
    286693.73100  22290803.84000                    378237.83640  22290806.51240
  -3718683.20300  23332601.84800                  -2829707.28840  23332605.30540
 96  9  5  1  5 30.0040000  0  6  1 14 15 22 25 29
  30676995.61700  25379857.94100                  24037217.93040  25379863.03940
  -6787144.56500  22764350.48800                  -5220073.97240  22764354.49640
   1476042.76000  22479526.16800                   1261596.23440  22479530.57440
  -1165803.32800  25192439.07400                   -688137.48340  25192443.37540
    373450.12500  22307313.31600                    445840.21740  22307316.16440
  -3721962.38100  23331977.96500                  -2832262.47840  23331981.31640
 96  9  5  1  6  0.0040000  0  6  1 14 15 22 25 29
  30800846.61500  25403424.80900                  24133725.15840  25403430.36340
  -6809215.60600  22760150.50400                  -5237272.17040  22760154.30140
   1574802.25200  22498319.32400                   1338551.65740  22498323.85940
  -1215119.10300  25183054.63700                   -726565.29540  25183060.23840
    460623.19700  22323901.57400                    513767.28740  22323904.25840
  -3725141.42900  23331372.37100                  -2834739.63640  23331375.58240
 96  9  5  1  6 30.0040000  0  6  1 14 15 22 25 29
  30924641.74500  25426983.03500                  24230188.87640  25426988.00440
  -6831102.60900  22755986.23000                  -5254326.96340  22755989.99240
   1674041.78800  22517203.68400                   1415881.13940  22517208.09040
  -1264449.65000  25173668.10500                   -765004.68840  25173673.53140
    548182.98100  22340563.67600                    581995.68840  22340566.27740
  -3728260.09900  23330779.11300                  -2837169.75040  23330782.38340
 96  9  5  1  7  0.0040000  0  6  1 14 15 22 25 29
  31048401.02400  25450532.81600                  24326624.65140  25450539.29740
  -6852780.11200  22751860.21500                  -5271218.51040  22751864.10540
   1773787.40700  22536184.88700                   1493604.97540  22536189.41040
  -1313757.89900  25164284.23800                   -803426.62740  25164290.39140
    636157.25500  22357304.45700                    650547.07440  22357307.31640
  -3731273.98500  23330206.21500                  -2839518.20140  23330209.37940
 96  9  5  1  7 30.0040000  0  6  1 14 15 22 25 29
  31172180.48100  25474088.19100                  24423076.14540  25474093.10240
  -6874200.39700  22747784.51200                  -5287909.62840  22747788.47340
   1874098.45500  22555273.65200                   1571769.41040  22555277.98840
  -1362983.66800  25154915.91000                   -841784.29540  25154922.19140
    724603.68400  22374135.41800                    719466.37440  22374138.12540
  -3734122.91400  23329663.15200                  -2841738.12840  23329666.24640
 96  9  5  1  8  0.0040000  0  6  1 14 15 22 25 29
  31295987.28800  25497647.10500                  24519548.93140  25497654.03540
  -6895365.24400  22743757.23000                  -5304401.70440  22743760.88740
   1974969.04200  22574468.62100                   1650369.83740  22574473.40240
  -1412150.12500  25145560.80100                   -880095.79040  25145567.71940
    813519.81600  22391055.59000                    788751.67440  22391058.43740
  -3736792.49100  23329155.49600                  -2843818.29240  23329158.68440
 96  9  5  1  8 30.0040000  0  6  1 14 15 22 25 29
  31419769.86600  25521202.35500                  24616002.89140  25521206.79740
  -6916336.45700  22739766.21500                  -5320742.89640  22739769.98840
   2076345.54100  22593759.45700                   1729364.49840  22593764.13340
  -1461328.03900  25136202.99600                   -918416.15940  25136208.10540
    902852.68400  22408054.87900                    858361.70340  22408057.55140
  -3739305.19000  23328677.91800                  -2845776.21840  23328681.14140
 96  9  5  1  9  0.0040000  0  6  1 14 15 22 25 29
  31543489.33900  25544746.05900                  24712407.63640  25544751.44940
  -6937143.19300  22735806.90200                  -5336955.91540  22735810.66440
   2178199.21200  22613142.19900                   1808730.97640  22613146.58240
  -1510538.07300  25126836.65200                   -956761.54140  25126842.32440
    992564.80600  22425126.59000                    928267.25340  22425129.28540
  -3741676.49400  23328226.24600                  -2847623.95440  23328229.64540
 96  9  5  1  9 30.0040000  0  6  1 14 15 22 25 29
  31667214.30700  25568288.84800                  24808816.66340  25568293.04340
  -6957703.37000  22731894.41000                  -5352976.81640  22731898.35940
   2280600.37200  22632628.27000                   1888524.05740  22632632.93440
  -1559709.59800  25117480.52000                   -995076.93440  25117485.50040
   1082733.18900  22442285.12900                    998528.33340  22442288.11740
  -3743847.68100  23327812.71500                  -2849315.76940  23327816.04340
 96  9  5  1 10  0.0040000  0  6  1 14 15 22 25 29
  31790927.66300  25591832.19100                  24905216.61940  25591835.55540
  -6978032.67900  22728025.66800                  -5368817.82040  22728029.38340
   2383514.13900  22652212.09000                   1968716.58340  22652216.83640
  -1608875.09400  25108124.82400                  -1033387.64540  25108130.14540
   1173318.12500  22459523.13700                   1069114.00140  22459525.97340
  -3745847.94700  23327432.22300                  -2850874.39440  23327435.72740
 96  9  5  1 10 30.0040000  0  6  1 14 15 22 25 29
  31914558.30700  25615357.50400                  25001552.13140  25615361.65240
  -6998196.90500  22724188.63700                  -5384530.18340  22724192.28140
   2486862.41700  22671878.52000                   2049247.68940  22671883.00840
  -1658092.61600  25098759.34800                  -1071738.90840  25098765.23040
   1264233.58500  22476823.91800                   1139957.21740  22476826.55540
  -3747763.25200  23327068.08200                  -2852366.81340  23327071.38740
 96  9  5  1 11  0.0040000  0  6  1 14 15 22 25 29
  32038195.10500  25638885.30100                  25097892.51540  25638891.51240
  -7018093.57800  22720402.69100                  -5400034.06840  22720406.44140
   2590728.74800  22691643.61300                   2130182.46440  22691648.50040
  -1707256.81100  25089403.30100                  -1110048.59440  25089408.59840
   1355562.17600  22494202.84000                   1211122.35840  22494205.67640
  -3749533.42000  23326730.59000                  -2853746.13340  23326733.91840
 96  9  5  1 11 30.0040000  0  6  1 14 15 22 25 29
  32161877.03600  25662421.75400                  25194267.94940  25662426.24240
  -7037693.30800  22716672.89500                  -5415306.56840  22716676.85540
   2695127.87600  22711510.30900                   2211532.41240  22711514.84440
  -1756342.56100  25080062.52700                  -1148297.15640  25080067.52040
   1447323.64800  22511664.09800                   1282624.80240  22511666.94540
  -3751141.89400  23326424.77000                  -2854999.45640  23326428.22740
 96  9  5  1 12  0.0040000  0  6  1 14 15 22 25 29
  32285558.18200  25685955.66800                  25290642.86140  25685961.71540
  -7057039.40000  22712991.27700                  -5430381.42940  22712995.10940
   2800012.44000  22731469.16000                   2293260.61540  22731473.94140
  -1805379.16500  25070730.57400                  -1186507.44640  25070736.49240
   1539463.62800  22529198.04300                   1354422.18740  22529200.93740
  -3752632.07700  23326140.83200                  -2856160.60040  23326144.28940
 96  9  5  1 12 30.0040000  0  6  1 14 15 22 25 29
  32409275.74400  25709500.15200                  25387046.10640  25709503.35240
  -7076083.36500  22709367.36300                  -5445220.86340  22709371.33640
   2905429.57500  22751529.70700                   2375403.80640  22751534.30140
  -1854309.54200  25061419.18400                  -1224634.95440  25061424.31640
   1632040.15600  22546814.92600                   1426559.74640  22546817.80940
  -3753958.00800  23325888.56600                  -2857193.76540  23325892.02340
 96  9  5  1 13  0.0040000  0  6  1 14 15 22 25 29
  32532985.85100  25733040.86300                  25483443.55640  25733045.09440
  -7094871.04600  22705791.78500                  -5459860.59640  22705795.65240
   3011335.46400  22771682.62100                   2457927.85740  22771687.44940
  -1903173.34600  25052121.52000                  -1262710.55040  25052127.25040
   1725020.78200  22564508.53500                   1499012.17640  22564511.28940
  -3755149.73900  23325661.95700                  -2858122.35740  23325665.28540
 96  9  5  1 13 30.0040000  0  6  1 14 15 22 25 29
  32656672.22600  25756577.01200                  25579822.53940  25756581.25440
  -7113415.64600  22702263.17600                  -5474310.92040  22702267.04340
   3117720.58000  22791927.26200                   2540825.31840  22791931.98440
  -1951978.18000  25042834.43400                  -1300740.20440  25042840.57440
   1818403.77700  22582278.64500                   1571778.14540  22582281.31640
  -3756193.70500  23325463.18400                  -2858935.80040  23325466.12540
 96  9  5  1 14  0.0040000  0  6  1 14 15 22 25 29
  32780309.51700  25780104.49600                  25676163.30440  25780108.59840
  -7131732.05700  22698777.73800                  -5488583.43440  22698781.41840
   3224576.44900  22812261.16800                   2624089.60340  22812265.78540
  -2000734.10900  25033556.33200                  -1338731.78440  25033561.50040
   1912181.38800  22600123.63700                   1644851.60940  22600126.21540
  -3757099.74800  23325291.24600                  -2859641.77640  23325294.65640
 96  9  5  1 14 30.0050000  0  6  1 14 15 22 25 29
  32903955.55800  25803634.11000                  25772510.82640  25803640.67340
  -7149791.28100  22695341.51700                  -5502655.53840  22695345.37240
   3331942.61700  22832692.08700                   2707751.52140  22832696.81040
  -2049409.70000  25024293.59500                  -1376660.73240  25024299.60640
   2006389.94100  22618050.95400                   1718260.87640  22618053.64940
  -3757831.48700  23325151.54000                  -2860211.92940  23325154.77440
 96  9  5  1 15  0.0050000  0  6  1 14 15 22 25 29
  33027480.75300  25827140.59500                  25868764.15640  25827144.14540
  -7167713.17600  22691930.65700                  -5516620.63940  22691934.46640
   3439693.33800  22853196.33700                   2791713.09140  22853201.37640
  -2098108.18400  25015026.54000                  -1414607.54940  25015032.23540
   2100903.92100  22636036.52400                   1791908.13240  22636039.24340
  -3758506.34200  23325023.08700                  -2860737.76640  23325026.36840
 96  9  5  1 15 30.0050000  0  6  1 14 15 22 25 29
  33151036.92200  25850652.05600                  25965041.73440  25850657.90340
  -7185337.49100  22688577.39900                  -5530353.85440  22688581.27840
   3547984.66600  22873803.78200                   2876095.90840  22873808.31740
  -2146676.15700  25005783.73500                  -1452452.61740  25005789.06740
   2195880.00700  22654110.00900                   1865915.46640  22654112.68140
  -3758984.18100  23324932.18100                  -2861110.07340  23324935.45040
 96  9  5  1 16  0.0050000  0  6  1 14 15 22 25 29
  33274550.81400  25874156.29000                  26061286.27540  25874160.20440
  -7202740.93300  22685265.03200                  -5543914.96740  22685268.82940
   3656731.80200  22894497.60300                   2960833.90440  22894502.57140
  -2195193.62200  24996551.77400                  -1490258.36940  24996557.04840
   2291219.75200  22672252.52400                   1940206.17840  22672255.27840
  -3759357.92900  23324861.32100                  -2861401.26840  23324864.60340
 96  9  5  1 16 30.0050000  0  6  1 14 15 22 25 29
  33398050.96200  25897657.93100                  26157520.16340  25897663.79040
  -7219890.53400  22682001.30600                  -5557278.27640  22682005.11440
   3765957.26900  22915282.58700                   3045944.63540  22915287.12240
  -2243630.55000  24987333.75900                  -1528001.36140  24987338.97440
   2386943.39100  22690468.21200                   2014796.01840  22690470.95440
  -3759602.59500  23324814.68100                  -2861591.88940  23324817.70440
 96  9  5  1 17  0.0050000  0  6  1 14 15 22 25 29
  33521461.53600  25921141.74300                  26253684.19740  25921146.29040
  -7236816.47000  22678780.47000                  -5570467.30340  22678784.32540
   3875616.66100  22936150.14900                   3131393.47540  22936155.06040
  -2292033.04900  24978123.61000                  -1565717.52440  24978129.90340
   2483020.95900  22708750.87600                   2089661.64440  22708753.73540
  -3759754.24000  23324785.72800                  -2861710.03840  23324788.72840
 96  9  5  1 17 30.0050000  0  6  1 14 15 22 25 29
  33644799.99500  25944613.00100                  26349792.07040  25944616.78640
  -7253500.28500  22675605.68100                  -5583467.67140  22675609.50140
   3985714.54300  22957100.85300                   3217184.00840  22957105.30640
  -2340401.40200  24968918.97800                  -1603407.06540  24968925.47040
   2579449.92200  22727100.84500                   2164801.08940  22727103.70440
  -3759797.57900  23324777.32900                  -2861743.77440  23324780.43540
 96  9  5  1 18  0.0050000  0  6  1 14 15 22 25 29
  33768111.19400  25968077.23500                  26445878.71240  25968083.64540
  -7269907.46600  22672483.79000                  -5596252.46840  22672487.59940
   4096282.12200  22978141.38400                   3303340.53240  22978145.94240
  -2388694.45800  24959729.87600                  -1641037.94340  24959735.09140
   2676262.42800  22745523.72800                   2240239.39840  22745526.68140
  -3759693.34000  23324797.26700                  -2861662.51940  23324800.45440
 96  9  5  1 18 30.0050000  0  6  1 14 15 22 25 29
  33891421.14500  25991543.86800                  26541964.36140  25991549.50540
  -7286005.71200  22669420.34500                  -5608796.54640  22669424.22440
   4207347.81500  22999276.47800                   3389885.19940  22999281.13040
  -2436871.20800  24950560.59500                  -1678578.19740  24950566.81740
   2773514.83000  22764029.98500                   2316020.48740  22764033.00940
  -3759409.11900  23324851.16500                  -2861441.01840  23324854.63440
 96  9  5  1 19  0.0050000  0  6  1 14 15 22 25 29
  34014702.84000  26015002.11800                  26638028.02340  26015008.41140
  -7301834.08600  22666407.69600                  -5621130.32840  22666411.43540
   4318864.91000  23020497.57900                   3476781.60540  23020502.29040
  -2484969.82900  24941408.46200                  -1716057.55840  24941413.79440
   2871164.92500  22782612.35300                   2392111.46640  22782615.08340
  -3758982.53500  23324932.58700                  -2861108.59440  23324935.70440
 96  9  5  1 19 30.0050000  0  6  1 14 15 22 25 29
  34137985.57400  26038462.25900                  26734092.42040  26038467.14540
  -7317405.36800  22663444.97800                  -5633263.78240  22663448.83340
   4430824.08900  23041802.65700                   3564022.49840  23041807.50940
  -2532984.45800  24932271.71200                  -1753471.51940  24932277.19640
   2969187.75400  22801265.33700                   2468492.88840  22801268.37240
  -3758420.10800  23325039.92300                  -2860670.32040  23325043.06340
 96  9  5  1 20  0.0050000  0  6  1 14 15 22 25 29
  34261270.22000  26061922.38400                  26830158.36540  26061928.38440
  -7332728.29000  22660529.42300                  -5645203.70940  22660533.32540
   4543224.28200  23063191.94600                   3651607.03340  23063196.78640
  -2580904.33100  24923152.64900                  -1790811.63140  24923157.54840
   3067582.82600  22819989.54800                   2545164.37240  22819992.41940
  -3757727.43500  23325171.75900                  -2860130.55040  23325174.79440
 96  9  5  1 20 30.0050000  0  6  1 14 15 22 25 29
  34384581.72800  26085387.18800                  26926245.25040  26085393.36440
  -7347759.14400  22657669.10300                  -5656916.03940  22657672.92340
   4656101.45600  23084671.89900                   3739563.24640  23084676.69240
  -2628690.98700  24914059.29800                  -1828047.89340  24914065.26340
   3166375.91700  22838789.00900                   2622145.99640  22838791.90340
  -3756867.56600  23325334.74300                  -2859460.49940  23325337.94240
 96  9  5  1 21  0.0050000  0  6  1 14 15 22 25 29
  34507901.93900  26108855.89900                  27022338.87140  26108859.64940
  -7362519.83100  22654859.79000                  -5668417.86440  22654863.64540
   4769430.79900  23106237.35300                   3827871.80140  23106242.16940
  -2676370.22100  24904986.16500                  -1865200.46740  24904991.70840
   3265518.73700  22857655.17300                   2699400.13440  22857658.05640
  -3755860.57700  23325526.72000                  -2858675.81540  23325529.95440
 96  9  5  1 21 30.0050000  0  6  1 14 15 22 25 29
  34631209.89200  26132319.88400                  27118422.95740  26132327.21240
  -7377009.67000  22652102.18800                  -5679708.62540  22652105.96240
   4883205.83900  23127888.14900                   3916527.64340  23127892.94240
  -2723949.01400  24895932.21200                  -1902274.77640  24895937.38040
   3365009.97500  22876588.01700                   2776925.77640  22876590.91140
  -3754720.88200  23325743.23500                  -2857787.71740  23325746.30640
 96  9  5  1 22  0.0050000  0  6  1 14 15 22 25 29
  34754490.79900  26155778.93100                  27214485.98040  26155784.16940
  -7391206.28000  22649401.59500                  -5690770.90740  22649405.39240
   4997435.15700  23149625.36000                   4005537.47640  23149629.83740
  -2771418.02500  24886898.72800                  -1939263.53840  24886903.94240
   3464879.97700  22895592.79800                   2854746.55340  22895595.66940
  -3753450.11200  23325985.20400                  -2856797.48840  23325988.39240
 96  9  5  1 22 30.0050000  0  6  1 14 15 22 25 29
  34877734.85100  26179231.88400                  27310520.27240  26179236.24340
  -7405092.14300  22646758.73500                  -5701591.04140  22646762.47440
   5112115.60500  23171448.51700                   4094898.82540  23171453.19240
  -2818777.28000  24877887.07100                  -1976166.80740  24877892.47440
   3565137.25200  22914671.10300                   2932869.09840  22914673.82140
  -3752045.16300  23326252.39900                  -2855702.69940  23326255.72840
 96  9  5  1 23  0.0050000  0  6  1 14 15 22 25 29
  35000965.96900  26202682.47800                  27406544.48140  26202686.28640
  -7418662.13400  22644176.42300                  -5712165.04340  22644180.24340
   5227256.30000  23193358.72000                   4184618.82840  23193363.74740
  -2866019.24400  24868896.47000                  -2012978.62340  24868902.10640
   3665804.88400  22933827.04800                   3011311.40640  22933829.83740
  -3750490.16700  23326548.24300                  -2854490.99840  23326551.32540
 96  9  5  1 23 30.0050000  0  6  1 14 15 22 25 29
  35124142.38700  26226121.88400                  27502526.13140  26226127.95440
  -7431943.97400  22641649.34500                  -5722514.50740  22641653.06040
   5342818.46700  23215349.50100                   4274667.23640  23215354.14240
  -2913174.41800  24859923.66500                  -2049722.85340  24859928.91540
   3766854.61100  22953056.47800                   3090051.44940  22953059.26740
  -3748832.50000  23326863.63400                  -2853199.28240  23326866.76340
 96  9  5  1 24  0.0050000  0  6  1 14 15 22 25 29
  35247235.31300  26249546.43800                  27598442.63440  26249553.15340
  -7444973.81000  22639169.38400                  -5732667.61240  22639173.08740
   5458766.48100  23237413.62600                   4365016.30540  23237418.43140
  -2960260.36600  24850963.25900                  -2086413.12040  24850968.70840
   3868241.30500  22972349.89200                   3169054.06440  22972352.63440
  -3747091.80300  23327195.32900                  -2851842.86640  23327198.55240
 96  9  5  1 24 30.0050000  0  6  1 14 15 22 25 29
  35370344.53900  26272971.54800                  27694371.94040  26272977.17340
  -7457673.54200  22636752.74300                  -5742563.48840  22636756.50540
   5575181.86800  23259567.01700                   4455729.55840  23259571.75140
  -3007186.62000  24842033.32100                  -2122978.94240  24842038.91140
   3970025.62900  22991718.62600                   3248366.52640  22991721.45040
  -3745164.21300  23327562.14200                  -2850340.82340  23327565.27040
 96  9  5  1 25  0.0050000  0  6  1 14 15 22 25 29
  35493437.09100  26296396.19600                  27790288.17240  26296399.67740
  -7470095.27800  22634389.14200                  -5752242.75240  22634392.85640
   5692014.04100  23281799.07900                   4546767.59040  23281803.72040
  -3053996.72800  24833125.58700                  -2159454.28840  24833131.23540
   4072150.87400  23011152.29800                   3327944.63540  23011155.08740
  -3743090.49300  23327956.06300                  -2848724.91340  23327959.18140
 96  9  5  1 25 30.0050000  0  6  1 14 15 22 25 29
  35616506.58300  26319814.86000                  27886186.52740  26319819.78240
  -7482221.73700  22632081.53200                  -5761691.92540  22632085.18840
   5809265.17200  23304111.74300                   4638132.07540  23304116.71240
  -3100668.54600  24824244.65700                  -2195821.88340  24824249.64940
   4174609.19300  23030649.42300                   3407782.28640  23030652.22440
  -3740865.26700  23328379.73500                  -2846990.94440  23328382.84140
 96  9  5  1 26  0.0050000  0  6  1 14 15 22 25 29
  35739549.17700  26343230.31300                  27982063.80040  26343236.04440
  -7494062.52400  22629828.10300                  -5770918.49840  22629831.84140
   5926934.26700  23326503.00100                   4729822.25340  23326508.14540
  -3147205.32800  24815389.15700                  -2232084.22440  24815394.61840
   4277394.55400  23050209.36000                   3487874.77140  23050212.18540
  -3738467.30000  23328835.62600                  -2845122.37040  23328838.74340
 96  9  5  1 26 30.0050000  0  6  1 14 15 22 25 29
  35862555.63100  26366637.57900                  28077913.02940  26366643.43840
  -7505619.35500  22627629.00100                  -5779923.81040  22627632.70440
   6045012.25800  23348972.79000                   4821831.03740  23348977.78240
  -3193626.99600  24806554.49300                  -2268256.87540  24806560.00140
   4380502.89000  23069829.76700                   3568218.92840  23069832.59140
  -3735917.36800  23329320.98500                  -2843135.39940  23329324.07940
 96  9  5  1 27  0.0050000  0  6  1 14 15 22 25 29
  35985531.06800  26390038.33700                  28173738.06840  26390043.11840
  -7516869.06900  22625487.91500                  -5788689.81040  22625491.68840
   6163510.11600  23371522.31300                   4914166.99440  23371527.32940
  -3239911.96400  24797747.39900                  -2304323.01840  24797752.00540
   4483950.70100  23089515.23500                   3648827.60140  23089518.02440
  -3733227.40400  23329832.70400                  -2841039.29340  23329835.71640
 96  9  5  1 27 30.0050000  0  6  1 14 15 22 25 29
  36108427.26400  26413425.60300                  28269501.28240  26413432.11840
  -7527850.24600  22623398.58700                  -5797246.55740  22623402.32540
   6282389.47900  23394144.07100                   5006800.23040  23394149.09940
  -3286093.47400  24788958.61000                  -2340308.53740  24788964.42340
   4587697.74000  23109257.92300                   3729669.44840  23109260.59540
  -3730441.74200  23330363.04800                  -2838868.62640  23330366.31740
 96  9  5  1 28  0.0050000  0  6  1 14 15 22 25 29
  36231243.33400  26436795.30600                  28365202.18640  26436797.95440
  -7538589.93500  22621354.68100                  -5805615.12740  22621358.37240
   6401624.98800  23416833.95400                   5099710.98940  23416838.74740
  -3332191.55200  24780186.68800                  -2376229.04740  24780192.00940
   4691719.32900  23129052.51700                   3810725.22540  23129055.24740
  -3727586.50500  23330906.04000                  -2836643.74640  23330909.21640
 96  9  5  1 28 30.0050000  0  6  1 14 15 22 25 29
  36353990.62400  26460155.36000                  28460849.39240  26460161.07940
  -7549084.42600  22619357.55600                  -5813792.63440  22619361.37640
   6521205.73100  23439589.76700                   5192890.74840  23439594.51340
  -3378193.57500  24771432.69600                  -2412074.71240  24771438.04040
   4796011.41500  23148898.64200                   3891991.78640  23148901.29040
  -3724683.59500  23331459.14200                  -2834381.71540  23331462.24740
 96  9  5  1 29  0.0050000  0  6  1 14 15 22 25 29
  36476754.13300  26483515.23500                  28556509.23740  26483519.77040
  -7559256.70400  22617421.82100                  -5821719.07040  22617425.52440
   6641205.76000  23462424.44600                   5286397.23140  23462429.34540
  -3424003.14600  24762715.45400                  -2447770.43040  24762720.73940
   4900654.04300  23168811.43100                   3973531.48940  23168813.97440
  -3721635.31800  23332039.04000                  -2832006.41440  23332042.04040
 96  9  5  1 29 30.0050000  0  5 14 15 22 25 29
  -7569178.85400  22615533.82100                  -5829450.59940  22615537.50140
   6761553.56500  23485326.61800                   5380174.70240  23485331.22440
  -3469687.98200  24754021.59500                  -2483368.93540  24754026.43540
   5005579.85100  23188778.11800                   4055291.84940  23188780.89540
  -3718486.71500  23332638.32100                  -2829552.93840  23332641.50940
 96  9  5  1 30  0.0050000  0  5 14 15 22 25 29
  -7578783.53900  22613706.18800                  -5836934.75440  22613710.02040
   6882296.84600  23508302.82900                   5474260.34140  23508307.76340
  -3515199.90200  24745361.50900                  -2518832.68440  24745366.94640
   5110851.52900  23208810.43100                   4137321.72640  23208813.23140
  -3715184.41900  23333266.62600                  -2826979.69440  23333269.56740
 96  9  5  1 30 30.0050000  0  5 14 15 22 25 29
  -7588030.33400  22611946.29800                  -5844140.03340  22611950.02440
   7003464.98800  23531360.57100                   5568677.03540  23531365.39940
  -3560513.04100  24736738.19600                  -2554141.55740  24736743.59940
   5216504.32100  23228916.03200                   4219648.57640  23228918.89240
  -3711701.51900  23333929.07900                  -2824265.72140  23333932.04440
 96  9  5  1 31  0.0050000  0  5 14 15 22 25 29
  -7596956.65700  22610247.75100                  -5851095.59440  22610251.45440
   7125018.13200  23554491.72000                   5663393.72740  23554496.59540
  -3605673.58700  24728144.37600                  -2589331.51840  24728149.96640
   5322496.45600  23249085.25100                   4302239.84040  23249087.99340
  -3708078.76200  23334618.48500                  -2821442.77340  23334621.45040
 96  9  5  1 31 30.0060000  0  5 14 15 22 25 29
  -7605565.82500  22608609.31800                  -5857804.02540  22608613.09240
   7246953.38500  23577694.64600                   5758408.17740  23577699.80340
  -3650697.61000  24719576.69300                  -2624415.10740  24719582.02540
   5428820.68600  23269318.17800                   4385089.88740  23269320.97840
  -3704344.80100  23335329.01400                  -2818533.16640  23335331.92040
 96  9  5  1 32  0.0060000  0  5 14 15 22 25 29
  -7613853.45700  22607032.87300                  -5864261.90740  22607036.56440
   7369259.10100  23600968.92000                   5853711.29140  23600974.08840
  -3695579.04300  24711035.48200                  -2659387.60340  24711041.10740
   5535467.51500  23289612.43600                   4468191.30740  23289615.11940
  -3700514.36800  23336057.86500                  -2815548.39340  23336060.92440
 96  9  5  1 32 30.0060000  0  5 14 15 22 25 29
  -7621852.15300  22605510.10000                  -5870494.63940  22605513.69740
   7491920.30200  23624311.05300                   5949291.40040  23624316.06840
  -3740318.79700  24702522.00600                  -2694249.65840  24702527.27940
   5642410.66500  23309962.76400                   4551523.63340  23309965.45940
  -3696600.00600  23336803.05300                  -2812498.21940  23336806.24040
 96  9  5  1 33  0.0060000  0  5 14 15 22 25 29
  -7629526.66900  22604049.95900                  -5876474.76940  22604053.68640
   7614968.94400  23647726.02900                   6045173.41940  23647731.29140
  -3784874.18400  24694043.24000                  -2728968.07740  24694048.73640
   5749681.63900  23330375.89600                   4635111.39940  23330378.70940
  -3692551.57000  23337573.35700                  -2809343.56340  23337576.35740
 96  9  5  1 33 30.0060000  0  5 14 15 22 25 29
  -7636905.77400  22602645.55300                  -5882224.71140  22602649.17440
   7738364.38300  23671207.65400                   6141325.67040  23671212.56440
  -3829273.19000  24685595.05300                  -2763564.61640  24685599.98640
   5857235.34600  23350842.61500                   4718919.48540  23350845.31140
  -3688385.26700  23338365.87300                  -2806097.06540  23338368.89640
 96  9  5  1 34  0.0060000  0  5 14 15 22 25 29
  -7643993.21400  22601297.31100                  -5887747.37640  22601300.99040
   7862091.26000  23694751.56100                   6237736.18840  23694757.33840
  -3873517.71100  24677174.81100                  -2798040.80840  24677179.94340
   5965064.98800  23371361.92000                   4802942.58540  23371364.66240
  -3684092.86500  23339182.88100                  -2802752.31140  23339185.92840
 96  9  5  1 34 30.0060000  0  5 14 15 22 25 29
  -7650751.76200  22600011.00600                  -5893013.76540  22600014.70940
   7986180.69400  23718365.27900                   6334429.21640  23718370.38940
  -3917570.89100  24668791.94300                  -2832367.87140  24668796.95940
   6073198.12200  23391938.82600                   4887202.16040  23391941.69740
  -3679636.90200  23340030.63100                  -2799280.10140  23340033.50240
 96  9  5  1 35  0.0060000  0  5 14 15 22 25 29
  -7657177.99200  22598788.24000                  -5898021.21440  22598791.99040
   8110623.06100  23742045.98200                   6431397.25040  23742051.26840
  -3961442.00400  24660443.56100                  -2866553.10540  24660447.61540
   6181625.55000  23412572.27100                   4971691.06940  23412575.17840
  -3675036.04400  23340906.49800                  -2795694.99440  23340909.35740
 96  9  5  1 35 30.0060000  0  5 14 15 22 25 29
  -7663305.91200  22597622.02100                  -5902796.20740  22597625.68940
   8235382.07800  23765786.92000                   6528612.03040  23765791.98240
  -4005167.44700  24652123.41200                  -2900624.80340  24652128.24040
   6290320.34500  23433256.38100                   5056388.31440  23433259.08840
  -3670334.78900  23341801.08400                  -2792031.64340  23341803.93240
 96  9  5  1 36  0.0060000  0  5 14 15 22 25 29
  -7669119.64900  22596515.88100                  -5907326.38940  22596519.53740
   8360476.95000  23789591.74000                   6626088.51540  23789596.79140
  -4048729.57100  24643833.07600                  -2934569.23140  24643838.51440
   6399310.72200  23453996.15400                   5141315.88340  23453998.87340
  -3665526.58700  23342716.06800                  -2788284.96940  23342719.06840
 96  9  5  1 36 30.0060000  0  5 14 15 22 25 29
  -7674648.87700  22595463.55300                  -5911634.87540  22595467.30340
   8485880.81200  23813455.46700                   6723805.76740  23813460.48240
  -4092146.10600  24635570.78700                  -2968400.23640  24635576.03740
   6508563.35400  23474786.30300                   5226447.80440  23474789.16240
  -3660641.68600  23343645.77900                  -2784478.53140  23343648.67440
 96  9  5  1 37  0.0060000  0  5 14 15 22 25 29
  -7679871.49200  22594469.45100                  -5915704.43940  22594473.17840
   8611615.54100  23837381.70900                   6821780.84240  23837386.65440
  -4135393.16800  24627341.99000                  -3002099.16640  24627346.68940
   6618111.24200  23495632.56100                   5311809.79140  23495635.45540
  -3655643.21300  23344596.64600                  -2780583.59340  23344599.52940
 96  9  5  1 37 30.0060000  0  5 14 15 22 25 29
  -7684805.97900  22593530.49000                  -5919549.49340  22593534.10040
   8737661.90600  23861367.77100                   6919998.75340  23861373.22140
  -4178483.41600  24619141.41200                  -3035675.92540  24619147.09640
   6727935.83700  23516531.36500                   5397387.39540  23516534.45940
  -3650540.07600  23345567.38100                  -2776607.10140  23345570.33440
 96  9  5  1 38  0.0060000  0  5 14 15 22 25 29
  -7689480.17900  22592641.15400                  -5923191.71940  22592644.72840
   8863987.40100  23885406.69300                   7018434.15740  23885411.77940
  -4221427.66500  24610969.42000                  -3069138.87140  24610974.79940
   6837985.01700  23537473.38100                   5483140.00140  23537476.15840
  -3645362.80800  23346552.60000                  -2772572.84240  23346555.64640
 96  9  5  1 38 30.0060000  0  5 14 15 22 25 29
  -7693817.12500  22591816.03700                  -5926571.15540  22591819.54140
   8990659.38600  23909511.38100                   7117139.56740  23909517.05340
  -4264147.74300  24602840.37300                  -3102427.20340  24602845.08440
   6948319.47000  23558469.19300                   5569114.89540  23558471.98240
  -3640050.08600  23347563.59200                  -2768433.04340  23347566.45140
 96  9  5  1 39  0.0060000  0  5 14 15 22 25 29
  -7697772.14300  22591063.37300                  -5929652.98140  22591067.00640
   9117702.48000  23933686.71700                   7216134.14540  23933691.54540
  -4306612.12200  24594759.36500                  -3135516.22840  24594765.50640
   7058954.83400  23579522.58400                   5655324.26740  23579525.53740
  -3634588.43200  23348602.99800                  -2764177.19140  23348605.83440
 96  9  5  1 39 30.0060000  0  5 14 15 22 25 29
  -7701389.04200  22590375.27900                  -5932471.33440  22590378.85340
   9245055.26300  23957921.41200                   7315370.03540  23957926.21740
  -4348867.10000  24586718.24000                  -3168442.13540  24586724.32240
   7169818.34700  23600618.66200                   5741711.41340  23600621.52140
  -3629048.86600  23349657.40400                  -2759860.63340  23349660.26440
 96  9  5  1 40  0.0060000  0  5 14 15 22 25 29
  -7704663.27100  22589751.80300                  -5935022.67140  22589755.48240
   9372702.35900  23982211.80300                   7414835.26240  23982216.91240
  -4390917.03200  24578716.99800                  -3201208.23640  24578721.90840
   7280908.30100  23621758.68600                   5828275.00440  23621761.72140
  -3623436.62400  23350725.03700                  -2755487.44140  23350727.90840
 96  9  5  1 40 30.0060000  0  5 14 15 22 25 29
  -7707630.56400  22589187.33400                  -5937334.83440  22589190.96740
   9500600.89300  24006550.52100                   7514496.41440  24006555.53740
  -4432807.13700  24570745.37300                  -3233849.83140  24570749.67440
   7392203.51500  23642937.55300                   5914998.54340  23642940.55340
  -3617780.57500  23351801.81100                  -2751080.11740  23351804.61140
 96  9  5  1 41  0.0060000  0  5 14 15 22 25 29
  -7710251.21200  22588688.60700                  -5939376.88840  22588692.33440
   9628798.34900  24030945.37300                   7614390.49240  24030950.91640
  -4474482.76000  24562815.27100                  -3266324.25940  24562820.39340
   7503758.70900  23664165.67000                   6001924.66540  23664168.41240
  -3612012.42900  23352898.99800                  -2746585.43340  23352901.83440
 96  9  5  1 41 30.0060000  0  6 14 15 18 22 25 29
  -7712582.34400  22588244.85700                  -5941193.33740  22588248.50240
   9757251.19900  24055389.30300                   7714483.58040  24055394.74040
                  26641912.92800
  -4515993.63500  24554914.85000                  -3298670.31440  24554919.78340
   7615557.95900  23685440.70100                   6089040.96240  23685443.63140
  -3606160.98000  23354012.36500                  -2742025.85040  23354015.18940
 96  9  5  1 42  0.0060000  0  6 14 15 18 22 25 29
  -7714575.10200  22587865.94300                  -5942746.12440  22587869.61140
   9886014.59300  24079891.86500                   7814818.65540  24079897.15040
    -37182.81900  26634591.18600
  -4557294.76200  24547056.01400                  -3330852.94440  24547060.67840
   7727660.03800  23706772.74000                   6176393.23040  23706775.65840
  -3600161.33600  23355154.35700                  -2737350.79240  23355157.15840
 96  9  5  1 42 30.0060000  0  6 14 15 18 22 25 29
  -7716276.72500  22587542.13100                  -5944072.05040  22587545.75240
  10015051.38600  24104446.93600                   7915366.76040  24104452.36140
    -75690.68400  26627263.97500
  -4598424.48300  24539228.89600                  -3362902.02040  24539234.11140
   7840015.33400  23728153.26400                   6263942.80640  23728156.12340
  -3594065.41100  23356314.52900                  -2732600.70640  23356317.44740
 96  9  5  1 43  0.0060000  0  6 14 15 18 22 25 29
  -7717666.85700  22587277.58400                  -5945155.25740  22587281.19340
  10144373.62900  24129055.95100                   8016137.29340  24129061.08440
   -114212.62900  26619934.45900                    -12008.45950  26619942.22140
  -4639365.90000  24531437.80300                  -3394804.34040  24531443.32240
   7952633.53000  23749583.92800                   6351697.24440  23749587.09240
  -3587864.05800  23357494.21700                  -2727768.46840  23357496.95940
 96  9  5  1 43 30.0060000  0  6 14 15 18 22 25 29
  -7718678.00400  22587084.73200                  -5945943.14140  22587088.50640
  10274021.89900  24153727.75600                   8117161.87140  24153732.79540
   -152702.47900  26612609.67800                    -42000.45540  26612616.81840
  -4680069.92500  24523692.62300                  -3426521.70640  24523697.02940
   8065549.38000  23771071.02100                   6439683.61840  23771073.96340
  -3581508.45200  23358703.58400                  -2722816.03040  23358706.47840
 96  9  5  1 44  0.0060000  0  6 14 15 18 22 25 29
  -7719341.72200  22586958.37300                  -5946460.31040  22586962.07640
  10403947.13100  24178451.36500                   8218402.26940  24178456.49840
   -191207.20300  26605283.12300                    -72004.07340  26605290.04140
  -4720568.14900  24515985.80300                  -3458078.68740  24515991.11140
   8178696.08100  23792602.24800                   6527849.86940  23792605.08440
  -3575044.47300  23359933.87300                  -2717779.15540  23359936.85040
 96  9  5  1 44 30.0060000  0  6 14 15 18 22 25 29
  -7719672.29900  22586895.88100                  -5946717.88540  22586899.65440
  10534122.47300  24203223.03700                   8319837.54840  24203228.41640
   -229739.90500  26597949.45900                   -102029.47040  26597958.07640
  -4760868.29400  24508316.83400                  -3489481.32840  24508321.35740
   8292052.25600  23814172.96700                   6616179.35540  23814175.97840
  -3568503.21800  23361178.85700                  -2712682.05840  23361181.68240
 96  9  5  1 45  0.0060000  0  6 14 15 18 22 25 29
  -7719616.06100  22586906.37300                  -5946674.05340  22586909.99440
  10664579.54200  24228048.31100                   8421492.36140  24228053.72540
   -268273.51000  26590618.17000                   -132055.63140  26590619.31840
  -4800935.19300  24500692.28700                  -3520702.23940  24500696.88140
   8405656.33800  23835791.09200                   6704702.01540  23835793.83440
  -3561837.97500  23362446.86500                  -2707488.35040  23362449.61940
 96  9  5  1 45 30.0060000  0  6 14 15 18 22 25 29
  -7719144.38200  22586995.80300                  -5946306.49640  22586999.48240
  10795343.76000  24252932.03700                   8523386.51440  24252937.02940
   -306790.21700  26583289.15400                   -162068.52140  26583293.94740
  -4840741.52900  24493117.60000                  -3551720.07340  24493121.93640
   8519526.46200  23857459.68600                   6793431.97940  23857462.56840
  -3555032.74100  23363741.74800                  -2702185.54940  23363744.61940
 96  9  5  1 46  0.0060000  0  6 14 15 18 22 25 29
  -7718308.54100  22587154.87300                  -5945655.17640  22587158.62340
  10926372.73400  24277866.19300                   8625486.96540  24277871.16240
   -345328.18900  26575954.71700                   -192098.08540  26575961.43240
  -4880324.73100  24485584.72500                  -3582564.07340  24485589.93940
   8633625.75400  23879172.38900                   6882340.51540  23879175.37740
  -3548147.17400  23365052.28700                  -2696820.16140  23365055.27540
 96  9  5  1 46 30.0060000  0  6 14 15 18 22 25 29
  -7717147.10200  22587376.38100                  -5944750.14640  22587380.06140
  11057626.44100  24302842.95900                   8727762.52840  24302848.60740
   -383925.93200  26568609.99000                   -222174.13040  26568610.42440
  -4919712.33400  24478089.93600                  -3613255.62040  24478095.38540
   8747918.42100  23900921.74000                   6971399.73040  23900924.41240
  -3541229.21600  23366368.31800                  -2691429.52440  23366371.16640
 96  9  5  1 47  0.0060000  0  6 14 15 18 22 25 29
  -7715608.50700  22587668.60700                  -5943551.22740  22587672.32240
  11189161.40800  24327872.39600                   8830257.25840  24327877.72840
   -422526.18600  26561264.60000                   -252252.24940  26561270.89340
  -4958833.60900  24470645.14600                  -3643739.67840  24470650.22140
   8862456.88900  23922717.39600                   7060650.48640  23922720.40840
  -3534216.62700  23367703.19300                  -2685965.15140  23367705.92440
 96  9  5  1 47 30.0060000  0  6 14 15 18 22 25 29
  -7713688.65400  22588034.22500                  -5942055.22740  22588037.79940
  11320995.23400  24352960.27100                   8932984.87040  24352965.22840
   -461101.45200  26553922.73200                   -282310.87840  26553923.78740
  -4997648.94900  24463258.56100                  -3673985.32440  24463263.29540
   8977259.25100  23944563.58400                   7150106.86940  23944566.37340
  -3527084.08100  23369060.50600                  -2680407.30840  23369063.23640
 96  9  5  1 48  0.0060000  0  6 14 15 18 22 25 29
  -7711388.14800  22588471.99800                  -5940262.62140  22588475.67840
  11453125.81900  24378104.09200                   9035943.71840  24378109.63540
                                                    -14134.58710  26546585.10000
  -5036141.06700  24455933.66200                  -3703979.12740  24455938.06840
   9092330.36600  23966461.18600                   7239772.66640  23966464.01040
  -3519805.33300  23370445.22500                  -2674735.53840  23370448.04940
 96  9  5  1 48 30.0060000  0  6 14 15 18 22 25 29
  -7708769.47700  22588970.49800                  -5938222.09640  22588974.10740
  11585476.53200  24403289.61500                   9139074.08840  24403294.83040
                                                    -52753.78900  26539236.44300
  -5074392.72200  24448654.85000                  -3733785.53340  24448659.66640
   9207599.99900  23988395.94300                   7329593.15540  23988398.61540
  -3512435.08400  23371847.97500                  -2668992.47740  23371850.78740
 96  9  5  1 49  0.0060000  0  6 14 15 18 22 25 29
  -7705822.43300  22589531.06100                  -5935925.69440  22589534.72840
  11718057.52000  24428518.59200                   9242383.89740  24428523.99440
                                                    -91407.66100  26531879.79500
  -5112403.75400  24441421.40400                  -3763404.45840  24441425.96340
   9323077.24000  24010370.77100                   7419575.42140  24010373.24440
  -3504939.53900  23373274.20900                  -2663151.77640  23373277.03340
 96  9  5  1 49 30.0070000  0  6 14 15 18 22 25 29
  -7702525.50800  22590158.56500                  -5933356.65440  22590162.16340
  11850880.49100  24453794.45600                   9345882.26440  24453799.97640
   -130092.83700  26524519.01900                    -24115.34950  26524520.84740
  -5150175.37300  24434233.22900                  -3792836.84840  24434237.91740
   9438773.53200  24032386.56500                   7509728.37240  24032389.31940
  -3497301.48300  23374727.54200                  -2657200.02340  23374730.22640
 96  9  5  1 50  0.0070000  0  6 14 15 18 22 25 29
  -7698878.66100  22590852.57300                  -5930514.95440  22590856.25340
  11983917.44700  24479109.95600                   9449547.37440  24479115.03040
   -168816.58300  26517151.20600                    -54289.60940  26517156.57340
  -5187731.77000  24427086.44000                  -3822101.50040  24427091.71440
   9554660.32800  24054439.85400                   7600029.77040  24054442.70240
  -3489551.27000  23376202.26900                  -2651160.87640  23376205.12840
 96  9  5  1 50 30.0070000  0  6 14 15 18 22 25 29
  -7694876.30300  22591613.94000                  -5927396.22940  22591617.65540
  12117166.49500  24504466.65100                   9553377.76040  24504472.10140
   -207558.78300  26509777.75300                    -84478.22840  26509784.25740
  -5225078.05900  24419980.28400                  -3851202.42940  24419985.55840
   9670737.29400  24076527.96400                   7690479.34940  24076530.64740
  -3481717.47600  23377692.97900                  -2645056.60140  23377695.89740
 96  9  5  1 51  0.0070000  0  6 14 15 18 22 25 29
  -7690420.36400  22592462.03400                  -5923924.06940  22592465.72640
  12250722.05500  24529881.24500                   9657446.97440  24529887.03440
   -246222.97900  26502420.73700                   -114606.22340  26502424.62840
  -5262095.09500  24412935.35400                  -3880046.83140  24412940.20640
   9787089.05700  24098669.37800                   7781143.05840  24098672.03840
  -3473711.44200  23379216.43300                  -2638818.11940  23379219.28040
 96  9  5  1 51 30.0070000  0  6 14 15 18 22 25 29
  -7685565.72800  22593385.92500                  -5920141.23140  22593389.68640
  12384512.79100  24555341.41700                   9761699.44340  24555346.70240
   -284892.09400  26495061.66700                   -144737.89940  26495064.71440
  -5298840.66900  24405943.15900                  -3908679.68840  24405948.79640
   9903653.66100  24120850.81500                   7871972.62540  24120853.59340
  -3465608.79700  23380758.40900                  -2632504.35140  23380761.22240
 96  9  5  1 52  0.0070000  0  6 14 15 18 22 25 29
  -7680286.88100  22594390.46400                  -5916027.83740  22594394.15540
  12518566.34000  24580850.47900                   9866156.70740  24580855.68340
   -323538.27500  26487705.67500                   -174851.72240  26487709.36640
  -5335278.68800  24399009.94000                  -3937072.89140  24399014.74540
  10020466.32100  24143079.51100                   7962995.47440  24143082.31140
  -3457380.30400  23382324.48700                  -2626092.52240  23382327.41740
 96  9  5  1 52 30.0070000  0  6 14 15 18 22 25 29
  -7674630.26700  22595466.55000                  -5911620.07840  22595470.30040
  12652838.59900  24606402.01100                   9970784.37240  24606407.34340
   -362216.88100  26480347.90100                   -204990.86740  26480352.88240
  -5371446.51200  24392126.87000                  -3965255.57040  24392131.48740
  10137471.80900  24165345.08100                   8054168.57940  24165347.97640
  -3449049.70100  23383909.81500                  -2619601.12140  23383912.67540
 96  9  5  1 53  0.0070000  0  6 14 15 18 22 25 29
  -7668572.92100  22596619.33900                  -5906900.06040  22596623.10140
  12787363.66900  24632001.05000                  10075609.05740  24632006.88640
   -400913.82000  26472982.89400                   -235144.23140  26472989.98740
  -5407302.77000  24385303.28400                  -3993195.44740  24385308.87440
  10254696.88500  24187651.76900                   8145512.79640  24187654.76940
  -3440569.23300  23385523.47200                  -2612992.95140  23385526.23740
 96  9  5  1 53 30.0070000  0  6 14 15 18 22 25 29
  -7662175.51900  22597836.94000                  -5901915.06440  22597840.53840
  12922087.84700  24657638.40100                  10180588.88040  24657644.37840
   -439679.78200  26465605.51100                   -265351.39040  26465613.07340
  -5442899.53000  24378529.69800                  -4020933.12740  24378534.26940
  10372097.92600  24209992.70600                   8236994.12440  24209995.84740
  -3431989.11400  23387156.23700                  -2606307.12440  23387158.94440
 96  9  5  1 54  0.0070000  0  6 14 15 18 22 25 29
  -7655405.45300  22599125.00300                  -5896639.67640  22599128.64740
  13057040.06900  24683319.48700                  10285746.40040  24683325.04240
   -478466.87300  26458225.07300                   -295575.03340  26458227.72240
  -5478199.98100  24371811.87000                  -4048439.91740  24371816.97940
  10489694.05400  24232369.92500                   8328627.47040  24232372.96040
  -3423284.67700  23388812.87800                  -2599524.42840  23388815.66740
 96  9  5  1 54 30.0070000  0  6 14 15 18 22 25 29
  -7648241.40000  22600488.45600                  -5891057.29040  22600491.98340
  13192228.92000  24709044.83900                  10391088.30940  24709050.27640
   -517251.76000  26450845.58900                   -325796.99640  26450850.44040
  -5513176.59500  24365156.24500                  -4075694.36640  24365160.48740
  10607500.31800  24254788.16700                   8420424.55340  24254791.35440
  -3414450.25400  23390494.05800                  -2592640.44540  23390496.74140
 96  9  5  1 55  0.0070000  0  6 14 15 18 22 25 29
  -7640669.91200  22601929.33100                  -5885157.42140  22601932.98740
  13327653.78700  24734815.22900                  10496614.11940  24734820.36240
   -556018.18100  26443466.37000                   -356004.51440  26443471.11640
  -5547817.56400  24358564.35400                  -4102687.28840  24358568.89040
  10725558.04300  24277253.97900                   8512417.58740  24277257.08540
  -3405487.55000  23392199.29200                  -2585656.49940  23392201.95240
 96  9  5  1 55 30.0070000  0  6 14 15 18 22 25 29
  -7632689.86000  22603447.89400                  -5878939.19340  22603451.47940
  13463291.27400  24760626.10400                  10602305.61240  24760631.96440
   -594767.17800  26436092.87000                   -386198.47340  26436099.78840
  -5582152.24200  24352030.87000                  -4129441.53140  24352035.68640
  10843859.30700  24299765.87000                   8604600.39340  24299769.15140
  -3396412.69800  23393926.08900                  -2578585.17440  23393928.78440
 96  9  5  1 56  0.0070000  0  6 14 15 18 22 25 29
  -7624270.10100  22605049.90100                  -5872378.33040  22605053.55840
  13599152.41300  24786480.09700                  10708171.37940  24786485.67540
   -633483.09500  26428727.27600                   -416366.62340  26428733.37040
  -5616167.89500  24345557.85400                  -4155947.18140  24345562.74140
  10962416.52400  24322326.36200                   8696982.63740  24322329.26940
  -3387213.72600  23395676.55000                  -2571417.12540  23395679.33940
 96  9  5  1 56 30.0070000  0  6 14 15 18 22 25 29
  -7615439.26900  22606730.58100                  -5865497.15440  22606734.15540
  13735217.46700  24812372.44800                  10814196.03140  24812378.42540
   -672190.29400  26421359.39400                   -446528.00040  26421366.32340
  -5649884.97100  24339141.74500                  -4182220.18840  24339146.35140
  11081223.50200  24344934.59700                   8789559.50040  24344937.35140
  -3377899.47600  23397448.63600                  -2564159.25640  23397451.41340
 96  9  5  1 57  0.0070000  0  6 14 15 18 22 25 29
  -7606188.29500  22608491.07300                  -5858288.59740  22608494.74140
  13871494.41900  24838303.71400                  10920385.80640  24838309.22240
   -710884.20100  26413997.55000                   -476679.00740  26414002.39040
  -5683307.43100  24332781.93300                  -4208263.63040  24332786.01140
  11200268.15500  24367588.51100                   8882321.57640  24367591.79240
  -3368450.91900  23399246.54200                  -2556796.73240  23399249.20240
 96  9  5  1 57 30.0070000  0  6 14 15 18 22 25 29
  -7596575.98700  22610320.01100                  -5850798.48140  22610323.62040
  14007932.16100  24864268.80000                  11026700.86940  24864274.00340
   -749618.77400  26406626.66700                   -506861.73840  26406631.70640
  -5716477.42400  24326469.13600                  -4234110.31140  24326473.97640
  11319458.15900  24390269.19800                   8975196.90540  24390271.83540
  -3358918.88300  23401060.65900                  -2549369.14540  23401063.48340
 96  9  5  1 58  0.0070000  0  6 14 15 18 22 25 29
  -7586559.46700  22612225.91700                  -5842993.38740  22612229.47940
  14144582.64400  24890271.64400                  11133181.70140  24890277.21040
   -788351.73600  26399255.63600                   -537043.16640  26399260.67540
  -5749321.55900  24320219.48700                  -4259703.10840  24320223.37840
  11438832.37700  24412985.40100                   9068215.77540  24412988.29640
  -3349251.69000  23402900.68300                  -2541836.26140  23402903.37840
 96  9  5  1 58 30.0070000  0  6 14 15 18 22 25 29
  -7576199.51300  22614197.35400                  -5834920.69140  22614200.88240
  14281381.99100  24916303.80800                  11239778.53840  24916309.45640
   -827144.13200  26391873.89400                   -567270.90240  26391878.92140
  -5781891.19700  24314021.62800                  -4285081.98540  24314026.19840
  11558317.42200  24435722.69800                   9161321.00140  24435725.24140
  -3339505.61500  23404755.20600                  -2534241.90540  23404757.86640
 96  9  5  1 59  0.0070000  0  6 14 15 18 22 25 29
  -7565462.33000  22616240.50300                  -5826554.05040  22616244.06540
  14418348.02500  24942368.15900                  11346505.23540  24942373.42140
   -865976.54500  26384483.35400                   -597529.88740  26384489.35440
  -5814145.17000  24307883.82300                  -4310214.89340  24307888.06540
  11677922.17800  24458482.62000                   9254519.51740  24458485.55040
  -3329658.22300  23406628.74500                  -2526568.59640  23406631.51140
 96  9  5  1 59 30.0070000  0  6 14 15 18 22 25 29
  -7554299.33800  22618365.03400                  -5817855.60840  22618368.65540
  14555527.47300  24968471.88600                  11453398.22840  24968477.58140
   -904802.22000  26377095.43300                   -627783.55140  26377099.28840
  -5846018.73300  24301817.88600                  -4335051.40840  24301822.51540
  11797714.79300  24481278.49500                   9347864.40640  24481281.42540
  -3319666.78200  23408529.85400                  -2518783.04540  23408532.60840
 96  9  5  2  0  0.0070000  0  6 14 15 18 22 25 29
  -7542696.62400  22620573.10400                  -5808814.52740  22620576.55040
  14692914.10000  24994616.34700                  11560452.68340  24994622.07740
   -943623.10800  26369707.83100                   -658033.51940  26369711.54640
  -5877522.34900  24295822.85400                  -4359599.61640  24295828.06940
  11917707.78200  24504112.55000                   9441365.42940  24504115.30440
  -3309539.15100  23410457.41700                  -2510891.37340  23410460.11240
 96  9  5  2  0 30.0070000  0  6 14 15 18 22 25 29
  -7530642.45300  22622866.64400                  -5799421.66040  22622870.14740
  14830503.84100  25020798.59700                  11667665.39440  25020804.49140
   -982432.28800  26362323.44800                   -688274.34840  26362329.60140
  -5908658.23500  24289898.83100                  -4383861.29940  24289903.12040
  12037903.83300  24526985.01900                   9535024.69040  24526987.71440
  -3299278.84900  23412409.90100                  -2502896.32640  23412412.66740
 96  9  5  2  1  0.0070000  0  6 14 15 18 22 25 29
  -7518128.92400  22625247.99500                  -5789670.85440  22625251.45240
  14968306.84600  25047021.65100                  11775044.29340  25047026.93640
  -1021209.12800  26354943.81500                   -718489.98340  26354948.09340
  -5939422.39600  24284043.84700                  -4407833.32940  24284048.59340
  12158328.04600  24549900.88600                   9628861.74340  24549903.94440
  -3288870.11500  23414390.65100                  -2494785.61240  23414393.35840
 96  9  5  2  1 30.0070000  0  6 14 15 18 22 25 29
  -7505182.20600  22627711.68300                  -5779582.50240  22627715.22240
  15106291.13200  25073279.03400                  11882564.43840  25073284.46040
  -1059973.37800  26347568.76100                   -748695.84440  26347573.37840
  -5969858.68600  24278251.94000                  -4431549.86940  24278256.25340
  12278950.42700  24572854.10400                   9722853.19640  24572856.50740
  -3278345.89300  23416393.40900                  -2486584.90840  23416396.12840
 96  9  5  2  2  0.0070000  0  6 14 15 18 22 25 29
  -7491780.06700  22630261.93300                  -5769139.27140  22630265.60140
  15244460.48000  25099572.19800                  11990228.80240  25099578.03440
  -1098705.06700  26340197.20600                   -778876.28440  26340203.13640
  -5999958.63300  24272523.76900                  -4455004.31840  24272528.63240
  12399768.79700  24595845.31500                   9816997.38440  24595848.23340
  -3267684.99100  23418422.16700                  -2478277.69840  23418424.92140
 96  9  5  2  2 30.0070000  0  6 14 15 18 22 25 29
  -7477951.64000  22632893.37800                  -5758363.87140  22632896.89440
  15382796.65100  25125896.93300                  12098023.15040  25125902.54640
  -1137422.50500  26332830.09700                   -809045.64940  26332835.89740
  -6029725.14300  24266859.95600                  -4478198.96540  24266864.21040
  12520761.85400  24618869.82300                   9911277.67740  24618872.37840
  -3256890.81800  23420475.85400                  -2469866.64140  23420478.62040
 96  9  5  2  3  0.0070000  0  6 14 15 18 22 25 29
  -7463709.93500  22635603.71400                  -5747266.43640  22635607.31140
  15521288.20100  25152250.40100                  12205938.55540  25152256.14440
  -1176144.61600  26325459.99500                   -839218.65440  26325464.85840
  -6059161.92600  24261258.04200                  -4501136.67140  24261262.44840
  12641917.69400  24641924.92500                  10005684.82540  24641928.12440
  -3245962.45900  23422555.12000                  -2461351.02740  23422557.86240
 96  9  5  2  3 30.0070000  0  6 14 15 18 22 25 29
  -7449023.29400  22638398.17500                  -5735822.30140  22638401.74940
  15659950.93400  25178637.31500                  12313987.37340  25178642.91740
  -1214859.59800  26318091.55800                   -869386.07740  26318097.04240
  -6088234.04900  24255726.22900                  -4523790.21540  24255730.13240
  12763251.60900  24665013.98700                  10100230.71740  24665017.19840
  -3234884.36300  23424663.66700                  -2452718.73440  23424666.30440
 96  9  5  2  4  0.0070000  0  6 14 15 18 22 25 29
  -7433904.61300  22641275.37000                  -5724041.50640  22641278.90940
  15798773.12600  25205054.59700                  12422160.42840  25205060.40940
  -1253585.10400  26310724.25300                   -899561.73240  26310732.37840
  -6116938.71900  24250263.62800                  -4546157.43840  24250268.18640
  12884754.87400  24688135.38600                  10194908.58140  24688138.04640
  -3223667.61000  23426797.94000                  -2443978.38840  23426800.65940
 96  9  5  2  4 30.0070000  0  6 14 15 18 22 25 29
  -7418361.05600  22644232.94000                  -5711929.64040  22644236.43340
  15937759.53300  25231503.19800                  12530461.45740  25231508.88240
  -1292320.46600  26303353.00300                   -929745.09940  26303357.35140
  -6145275.66600  24244871.72900                  -4568238.13540  24244875.56140
  13006435.69200  24711289.85400                  10289724.80040  24711292.45640
  -3212317.06200  23428957.86200                  -2435133.79540  23428960.47640
 96  9  5  2  5  0.0070000  0  6 14 15 18 22 25 29
  -7402343.38400  22647281.27600                  -5699448.33540  22647284.75740
  16076932.93800  25257986.22900                  12638908.18940  25257992.31140
  -1331031.54100  26295986.62800                   -959909.49140  26295991.58540
  -6173221.36300  24239553.51900                  -4590013.96640  24239557.37440
  13128323.39800  24734485.08900                  10384702.22440  24734487.91340
  -3200815.96800  23431146.52600                  -2426171.88540  23431149.19840
 96  9  5  2  5 30.0070000  0  6 14 15 18 22 25 29
  -7385881.12500  22650413.78400                  -5686620.60240  22650417.30040
  16216253.32100  25284498.71400                  12747469.43840  25284503.71840
  -1369740.89500  26288620.11200                   -990072.58240  26288624.48340
  -6200814.37800  24234303.09700                  -4611514.96540  24234306.98740
  13250375.93600  24757711.13600                  10479808.08740  24757714.04240
  -3189208.94000  23433355.44000                  -2417127.43340  23433358.05440
 96  9  5  2  6  0.0070000  0  6 14 15 18 22 25 29
  -7368979.63200  22653630.12000                  -5673450.60540  22653633.67140
  16355715.95800  25311037.62000                  12856141.55740  25311043.56140
  -1408446.54400  26281253.95600                  -1020232.78040  26281259.38240
  -6228060.45500  24229118.23700                  -4632745.61640  24229122.78440
  13372577.77600  24780964.43300                  10575030.29940  24780967.83140
  -3177500.84600  23435583.13600                  -2408004.23140  23435585.67940
 96  9  5  2  6 30.0070000  0  6 14 15 18 22 25 29
  -7351693.92800  22656919.40100                  -5659981.22240  22656923.05840
  16495250.11900  25337589.96400                  12964869.39040  25337595.92940
  -1447204.66800  26273878.98700                  -1050433.84540  26273882.98340
  -6255016.38300  24223988.26100                  -4653750.20740  24223991.98740
  13494863.30100  24804235.07300                  10670317.71840  24804237.87440
  -3165753.42500  23437818.84700                  -2398850.37740  23437821.43640
 96  9  5  2  7  0.0070000  0  6 14 15 18 22 25 29
  -7334009.82700  22660284.63600                  -5646201.40440  22660288.12840
  16634856.55700  25364156.47200                  13073653.56340  25364162.22640
  -1486006.21200  26266494.37000                  -1080668.76840  26266499.37440
  -6281655.46600  24218919.05000                  -4674507.88540  24218923.67940
  13617236.86800  24827522.58900                  10765673.74640  24827525.02640
  -3153961.13600  23440062.72200                  -2389661.56640  23440065.28840
 96  9  5  2  7 30.0070000  0  6 14 15 18 22 25 29
  -7315870.55100  22663736.33100                  -5632066.90440  22663739.85840
  16774617.25800  25390752.42500                  13182557.91940  25390758.20240
  -1524774.31100  26259117.59700                  -1110877.62140  26259122.26140
  -6307889.39800  24213927.14400                  -4694949.85740  24213931.30440
  13739771.31100  24850839.37000                  10861155.12240  24850842.44040
  -3142036.59200  23442331.97200                  -2380369.69640  23442334.66740
 96  9  5  2  8  0.0080000  0  6 14 15 18 22 25 29
  -7297334.81400  22667263.45300                  -5617623.46940  22667266.93440
  16914489.27200  25417369.04700                  13291549.00840  25417374.14440
  -1563564.45700  26251735.75800                  -1141103.67840  26251741.10240
  -6333753.50200  24209004.36700                  -4715103.67040  24209009.00840
  13862424.44300  24874179.64100                  10956728.99240  24874183.36740
  -3130019.29300  23444618.93700                  -2371005.54240  23444621.55140
 96  9  5  2  8 30.0080000  0  6 14 15 18 22 25 29
  -7278370.15300  22670872.39100                  -5602845.80740  22670875.87140
  17054501.85900  25444011.87500                  13400649.66840  25444018.10940
  -1602339.84200  26244357.55500                  -1171318.24340  26244362.18440
  -6359202.80400  24204162.29700                  -4734934.24540  24204166.48040
  13985233.63400  24897549.56200                  11052424.45640  24897552.51640
  -3117856.85900  23446933.14800                  -2361528.30240  23446935.78540
 96  9  5  2  9  0.0080000  0  6 14 15 18 22 25 29
  -7258996.53900  22674559.15600                  -5587749.48340  22674562.67240
  17194652.12600  25470682.35200                  13509857.57240  25470688.24640
  -1641114.96800  26236978.77300                  -1201532.60140  26236982.92240
  -6384257.50000  24199393.65600                  -4754457.33540  24199398.64840
  14108186.20000  24920946.34400                  11148231.66040  24920949.34440
  -3105559.83600  23449273.24200                  -2351946.18840  23449275.93740
 96  9  5  2  9 30.0080000  0  6 14 15 18 22 25 29
  -7239238.36700  22678319.18000                  -5572353.50540  22678322.74240
  17334913.14800  25497373.17200                  13619151.80440  25497378.41040
  -1679919.08400  26229594.35900                  -1231769.53840  26229598.75440
  -6408950.70600  24194695.02300                  -4773698.76040  24194698.77340
  14231254.64300  24944365.79700                  11244129.13940  24944368.82040
  -3093146.22500  23451635.21100                  -2342273.23640  23451637.75440
 96  9  5  2 10  0.0080000  0  6 14 15 18 22 25 29
  -7219018.40800  22682166.56200                  -5556597.68940  22682170.17240
  17475326.49100  25524092.95300                  13728564.69340  25524098.91840
  -1718701.70100  26222214.71900                  -1261989.70940  26222220.32040
  -6433234.49600  24190074.00000                  -4792621.16440  24190078.44140
  14354504.08100  24967818.91400                  11340167.67140  24967821.92640
  -3080566.09900  23454029.14800                  -2332470.52340  23454031.73840
 96  9  5  2 10 30.0080000  0  6 14 15 18 22 25 29
  -7198333.96700  22686102.78900                  -5540479.94040  22686106.43440
  17615858.49100  25550835.58600                  13838070.07740  25550841.17640
  -1757489.43200  26214833.41400                  -1292213.90340  26214837.17640
  -6457138.78100  24185524.85200                  -4811247.82240  24185529.53940
  14477907.92500  24991302.39100                  11436326.51840  24991305.21540
  -3067853.98600  23456448.43700                  -2322564.97140  23456450.99240
 96  9  5  2 11  0.0080000  0  6 14 15 18 22 25 29
  -7177021.29800  22690158.38300                  -5523872.66440  22690161.85240
  17756651.67700  25577628.10900                  13947778.95940  25577634.12140
  -1796137.33600  26207479.36700                  -1322329.09740  26207485.42640
  -6480504.85400  24181078.64800                  -4829455.11940  24181082.17640
  14601615.84100  25014843.84400                  11532722.28940  25014846.73840
  -3054878.26200  23458917.43700                  -2312454.00440  23458920.00440
 96  9  5  2 11 30.0080000  0  6 14 15 18 22 25 29
  -7155203.78100  22694310.18000                  -5506871.99740  22694313.69540
  17897555.05300  25604440.35900                  14057573.72440  25604446.26640
  -1834796.53300  26200122.41400                  -1352453.10340  26200127.41840
  -6503465.72900  24176709.57000                  -4847346.66940  24176713.87140
  14725485.90000  25038414.25800                  11629244.42740  25038417.35240
  -3041776.46400  23461410.68700                  -2302244.79840  23461413.26640
 96  9  5  2 12  0.0080000  0  6 14 15 18 22 25 29
  -7132848.44800  22698564.27300                  -5489452.25240  22698567.73040
  18038595.72600  25631280.20300                  14167475.47240  25631285.81640
  -1873439.83600  26192769.46100                  -1382564.74440  26192774.68740
  -6525980.58900  24172425.14800                  -4864890.67640  24172429.47340
  14849542.01400  25062022.03900                  11725911.52640  25062024.94540
  -3028520.88800  23463933.23400                  -2291915.76640  23463935.80140
 96  9  5  2 12 30.0080000  0  6 14 15 18 22 25 29
  -7110027.59800  22702907.04700                  -5471669.76540  22702910.56240
  18179716.55800  25658133.55500                  14277439.69540  25658139.77740
  -1912123.77200  26185407.03900                  -1412708.01440  26185411.42240
  -6548101.60100  24168215.24200                  -4882127.79840  24168219.54340
  14973706.84300  25085649.58600                  11822663.34740  25085652.03540
  -3015169.30900  23466473.78900                  -2281511.92840  23466476.39140
 96  9  5  2 13  0.0080000  0  6 14 15 18 22 25 29
  -7086734.10800  22707339.53100                  -5453518.99340  22707343.16440
  18320949.89900  25685010.16400                  14387491.55840  25685016.16440
  -1950811.82200  26178045.68700                  -1442854.50040  26178049.89440
  -6569798.11200  24164086.53900                  -4899034.12040  24164090.81640
  15098020.45400  25109306.40600                  11919531.09840  25109309.28940
  -3001675.18000  23469041.83600                  -2270997.01240  23469044.42640
 96  9  5  2 13 30.0080000  0  6 14 15 18 22 25 29
  -7062967.02800  22711862.39800                  -5434999.18940  22711865.91440
  18462302.97200  25711908.53900                  14497636.73740  25711915.11340
  -1989481.48600  26170687.72700                  -1472986.64540  26170692.60240
  -6591064.24400  24160039.89800                  -4915605.10140  24160043.88340
  15222485.57900  25132990.72700                  12016516.92040  25132993.41040
  -2988014.69100  23471640.99200                  -2260352.47040  23471643.50040
 96  9  5  2 14  0.0080000  0  6 14 15 18 22 25 29
  -7038783.98700  22716464.14800                  -5416155.25840  22716467.66440
  18603728.32300  25738820.63300                  14607838.22740  25738827.01940
  -2028164.11700  26163324.91400                  -1503128.89040  26163329.34440
  -6611948.01900  24156065.71900                  -4931878.13040  24156069.84440
  15347053.48100  25156695.06200                  12113582.82440  25156697.61740
  -2974237.61300  23474262.90600                  -2249617.07540  23474265.56640
 96  9  5  2 14 30.0080000  0  6 14 15 18 22 25 29
  -7014108.59100  22721159.84400                  -5396927.68040  22721163.46540
  18745294.63900  25765760.31200                  14718149.56540  25765765.92640
  -2066781.55800  26155976.78100                  -1533220.36540  26155981.65640
  -6632380.31500  24152177.11700                  -4947799.36040  24152181.65240
  15471792.91600  25180432.47700                  12210782.37840  25180434.86740
  -2960269.31400  23476920.96900                  -2238732.68140  23476923.69940
 96  9  5  2 15  0.0080000  0  6 14 15 18 22 25 29
  -6988952.00800  22725946.94500                  -5377325.14440  22725950.44940
  18886978.87700  25792721.68000                  14828552.78340  25792727.84440
  -2105352.66800  26148636.94500                  -1563275.72840  26148641.49240
  -6652371.21700  24148373.27300                  -4963376.65340  24148377.80940
  15596686.03900  25204199.60200                  12308101.70240  25204202.07440
  -2946128.22000  23479612.03100                  -2227713.63740  23479614.55140
 96  9  5  2 15 30.0080000  0  6 14 15 18 22 25 29
  -6963317.09000  22730825.14800                  -5357349.87840  22730828.67640
  19028759.64400  25819701.77300                  14939031.20940  25819707.12940
  -2143901.30900  26141302.35200                  -1593313.55240  26141307.02740
  -6671937.16600  24144650.33600                  -4978622.80640  24144654.15640
  15721697.25800  25227987.68000                  12405513.04340  25227991.25440
  -2931836.26000  23482331.57000                  -2216577.03140  23482334.23040
 96  9  5  2 16  0.0080000  0  6 14 15 18 22 25 29
  -6937201.07300  22735794.82000                  -5336999.73140  22735798.24240
  19170632.37000  25846700.16400                  15049581.32040  25846705.88340
  -2182430.89500  26133969.75000                  -1623336.53540  26133973.93440
  -6691077.64200  24141007.60200                  -4993537.43640  24141011.51640
  15846819.31100  25251797.43700                  12503010.75340  25251800.64840
  -2917390.63400  23485080.56200                  -2205320.69440  23485083.18740
 96  9  5  2 16 30.0080000  0  6 14 15 18 22 25 29
  -6910608.13000  22740855.18000                  -5316277.95940  22740858.69540
  19312578.84200  25873711.05500                  15160188.86740  25873716.71540
  -2220958.81300  26126637.46900                  -1653358.22140  26126642.78940
  -6709807.46700  24137443.18700                  -5008132.05140  24137447.37140
  15972042.62900  25275626.57000                  12600587.36540  25275629.68740
  -2902802.34000  23487856.28900                  -2193953.18040  23487858.93740
 96  9  5  2 17  0.0080000  0  6 14 15 18 22 25 29
  -6883552.51600  22746003.75800                  -5295195.65740  22746007.35540
  19454582.50600  25900734.13300                  15270840.98040  25900739.96940
  -2259491.25100  26119305.07800                  -1683383.45240  26119309.96540
  -6728140.24600  24133955.07800                  -5022417.29540  24133959.05140
  16097364.53800  25299474.88300                  12698240.79640  25299477.89440
  -2888078.29600  23490658.45300                  -2182479.89140  23490660.99640
 96  9  5  2 17 30.0080000  0  6 14 15 18 22 25 29
  -6856043.69600  22751238.60900                  -5273760.20940  22751242.13740
  19596628.40600  25927763.74200                  15381526.02640  25927769.56640
  -2298028.15400  26111971.67200                  -1713412.15940  26111975.12940
  -6746082.93300  24130540.53100                  -5036398.57140  24130544.75040
  16222781.52400  25323340.95300                  12795968.32540  25323343.68440
  -2873236.75900  23493482.57800                  -2170915.04640  23493485.16840
 96  9  5  2 18  0.0080000  0  6 14 15 18 22 25 29
  -6828148.29400  22756547.15600                  -5252023.52940  22756550.68440
  19738645.74300  25954789.64100                  15492188.79440  25954795.09040
  -2336631.04300  26104625.41400                  -1743492.29140  26104630.76940
  -6763684.52200  24127191.45300                  -5050114.07140  24127195.30940
  16348237.81000  25347213.90600                  12893726.46740  25347216.81240
  -2858358.74500  23496313.71100                  -2159321.77840  23496316.28940
 96  9  5  2 18 30.0080000  0  6 14 15 18 22 25 29
  -6799715.69400  22761957.44500                  -5229868.25340  22761960.86740
  19880782.38500  25981836.95300                  15602944.54540  25981843.11740
  -2375151.64300  26097295.95300                  -1773508.28740  26097300.54740
  -6780777.03300  24123938.65600                  -5063432.86240  24123942.69940
  16473894.64900  25371125.18000                  12991640.90240  25371127.80540
  -2843308.07900  23499177.54700                  -2147593.97440  23499180.04340
 96  9  5  2 19  0.0080000  0  6 14 15 18 22 25 29
  -6770773.08500  22767464.98400                  -5207315.57040  22767468.57040
  20023027.27000  26008904.75000                  15713784.61440  26008909.94140
  -2413600.30600  26089978.99200                  -1803468.25340  26089983.85540
  -6797343.35600  24120785.96100                  -5076341.65040  24120790.00440
  16599733.84100  25395072.60900                  13089697.39640  25395075.70340
  -2828105.63600  23502070.85900                  -2135747.90640  23502073.47340
 96  9  5  2 19 30.0080000  0  6 14 15 18 22 25 29
  -6741430.47400  22773048.75000                  -5184451.20040  22773052.20740
  20165272.76500  26035973.93000                  15824625.17840  26035979.85940
  -2452090.24300  26082654.64100                  -1833460.36940  26082659.39840
  -6813475.01900  24117715.77300                  -5088911.75540  24117720.01640
  16725638.37400  25419030.97700                  13187804.83540  25419033.59040
  -2812865.46400  23504970.86700                  -2123872.43940  23504973.42240
 96  9  5  2 20  0.0080000  0  6 14 15 18 22 25 29
  -6711636.63300  22778718.25800                  -5161235.21740  22778721.82040
  20307574.31700  26063052.87500                  15935509.42340  26063058.98040
  -2490568.51900  26075332.90600                  -1863443.38540  26075337.26640
  -6829118.21800  24114739.23400                  -5101101.22240  24114743.14840
  16851648.76400  25443009.80500                  13285994.74740  25443012.62940
  -2797516.96300  23507891.50000                  -2111912.55540  23507894.10240
 96  9  5  2 20 30.0080000  0  6 14 15 18 22 25 29
  -6681358.33600  22784480.03900                  -5137641.73840  22784483.57840
  20449970.17700  26090149.84400                  16046467.13440  26090156.23040
  -2528997.74400  26068020.43000                  -1893388.22840  26068025.16440
  -6844246.31900  24111860.85900                  -5112889.31240  24111864.76240
  16977786.76400  25467013.59400                  13384284.09640  25467016.51240
  -2782010.47100  23510842.54700                  -2099829.56540  23510845.19540
 96  9  5  2 21  0.0080000  0  6 14 15 18 22 25 29
  -6650627.73000  22790327.68700                  -5113695.80940  22790331.26240
  20592425.45800  26117258.68700                  16157471.16740  26117264.72340
  -2567411.01000  26060710.45300                  -1923320.58640  26060714.80140
  -6858919.71000  24109068.00000                  -5124323.10040  24109071.96140
  17104001.90000  25491031.25000                  13482633.55040  25491034.55540
  -2766362.74700  23513820.00800                  -2087636.51940  23513822.55140
 96  9  5  2 21 30.0080000  0  6 14 15 18 22 25 29
  -6619444.75500  22796262.02300                  -5089397.38640  22796265.57440
  20734914.88200  26144372.83600                  16268501.80840  26144378.95340
  -2605830.24900  26053398.39800                  -1953257.64540  26053403.36740
  -6873186.24200  24106353.06200                  -5135439.84240  24106356.95340
  17230259.05100  25515057.82800                  13581015.74540  25515060.93440
  -2750581.57300  23516823.02300                  -2075339.49340  23516825.50840
 96  9  5  2 22  0.0080000  0  6 14 15 18 22 25 29
  -6587582.71000  22802324.89800                  -5064569.81940  22802328.49640
  20877650.67400  26171535.37500                  16379724.40440  26171540.33240
  -2644047.87000  26046125.96100                  -1983037.57140  26046130.18040
  -6886836.00800  24103755.78100                  -5146075.99340  24103759.83640
  17356773.95500  25539131.92200                  13679598.77440  25539135.35540
  -2734448.62400  23519892.80500                  -2062768.35440  23519895.31240
 96  9  5  2 22 30.0080000  0  6 14 15 18 22 25 29
  -6555155.10100  22808495.74200                  -5039301.55140  22808499.22340
  21020498.95300  26198717.92200                  16491034.67440  26198723.89840
  -2682191.85200  26038867.43000                  -2012760.10340  26038872.62140
  -6899997.80400  24101251.52300                  -5156331.90640  24101255.46140
  17483431.82100  25563233.68700                  13778293.22240  25563237.61340
  -2718103.66100  23523003.23400                  -2050032.00440  23523005.85940
 96  9  5  2 23  0.0080000  0  6 14 15 18 22 25 29
  -6522201.11700  22814766.82800                  -5013623.12040  22814770.48440
  21163395.76700  26225910.32000                  16602382.75840  26225916.71940
  -2720317.90400  26031612.78100                  -2042468.66940  26031616.44940
  -6912714.55600  24098831.28100                  -5166241.01640  24098835.51240
  17610189.68300  25587355.85200                  13877065.56240  25587358.94540
  -2701606.30100  23526142.61700                  -2037176.90740  23526145.20740
 96  9  5  2 23 30.0080000  0  6 14 15 18 22 25 29
  -6488718.84300  22821137.82000                  -4987533.03540  22821141.40640
  21306339.18600  26253112.20300                  16713767.13440  26253118.41440
  -2758424.49400  26024361.68000                  -2072162.09540  26024366.26240
  -6924958.21600  24096501.07800                  -5175781.49940  24096504.91040
  17737069.44900  25611499.54700                  13975932.91740  25611503.64840
  -2684961.06500  23529310.23400                  -2024206.58440  23529312.90640
 96  9  5  2 24  0.0080000  0  6 14 15 18 22 25 29
  -6454696.20300  22827612.29700                  -4961021.89040  22827615.95340
  21449339.32000  26280324.68700                  16825195.72440  26280330.57040
  -2796491.39700  26017117.28900                  -2101824.57140  26017122.58640
  -6936702.67900  24094266.30500                  -5184933.00840  24094270.39440
  17864109.16300  25635675.02300                  14074924.89140  25635677.96540
  -2668150.42700  23532509.32800                  -2011107.37440  23532511.82440
 96  9  5  2 24 30.0080000  0  6 14 15 18 22 25 29
  -6420122.14700  22834191.65600                  -4934081.07040  22834195.24240
  21592403.06700  26307548.03100                  16936673.88640  26307553.94940
  -2834495.11700  26009884.78100                  -2131437.81640  26009889.53940
  -6947931.76900  24092129.49200                  -5193682.90340  24092133.64140
  17991311.24400  25659881.11700                  14174043.37940  25659884.28140
  -2651154.44000  23535743.69500                  -1997863.73240  23535746.19140
 96  9  5  2 25  0.0080000  0  6 14 15 18 22 25 29
  -6385048.73700  22840865.89800                  -4906751.14140  22840869.39140
  21735482.25700  26334776.07800                  17048164.04940  26334783.06640
  -2872494.57000  26002653.95300                  -2161047.72840  26002658.58240
  -6958681.73700  24090083.87500                  -5202059.47040  24090087.93040
  18118618.96600  25684106.35200                  14273244.20140  25684109.49240
  -2634002.66000  23539007.29700                  -1984498.69640  23539009.73440
 96  9  5  2 25 30.0080000  0  6 14 15 18 22 25 29
  -6349528.18100  22847625.28900                  -4879072.79240  22847628.81640
  21878527.38600  26361996.43700                  17159627.73440  26362002.14440
  -2910536.13600  25995414.51600                  -2190690.48040  25995418.39440
  -6969005.60500  24088119.14800                  -5210104.01840  24088122.89840
  18245979.77000  25708342.43700                  14372486.36740  25708345.36740
  -2616740.46000  23542292.33600                  -1971047.61940  23542294.82040
 96  9  5  2 26  0.0080000  0  6 14 15 18 22 25 29
  -6313530.06600  22854475.62500                  -4851022.31540  22854479.16440
  22021548.47400  26389212.14800                  17271072.62740  26389218.13740
  -2948611.45300  25988169.26600                  -2220359.50040  25988174.00040
  -6978896.30800  24086237.16400                  -5217811.01940  24086241.16040
  18373391.37200  25732588.28900                  14471768.13040  25732591.39440
  -2599365.79800  23545598.41400                  -1957508.90840  23545600.79340
 96  9  5  2 26 30.0080000  0  6 14 15 18 22 25 29
  -6277147.15200  22861399.04700                  -4822671.99540  22861402.64440
  22164455.88400  26416407.18700                  17382428.96140  26416413.22340
  -2986814.73300  25980900.04700                  -2250128.24140  25980904.41840
  -6988438.73000  24084421.16400                  -5225246.63640  24084425.09040
  18500748.23000  25756823.53900                  14571007.24340  25756826.64440
  -2581976.98200  23548907.52300                  -1943959.16440  23548909.93740
 96  9  5  2 27  0.0090000  0  6 14 15 18 22 25 29
  -6240234.84000  22868422.95000                  -4793909.15440  22868426.48940
  22307401.60700  26443608.60600                  17493815.15040  26443614.19640
  -3024996.33200  25973633.14500                  -2279880.08440  25973637.88040
  -6997495.78400  24082697.79400                  -5232304.05940  24082701.82540
  18628211.42800  25781079.02000                  14670329.21140  25781081.43540
  -2564436.55800  23552245.08300                  -1930291.28640  23552247.56740
 96  9  5  2 27 30.0090000  0  6 14 15 18 22 25 29
  -6202702.94300  22875564.91900                  -4764663.52540  22875568.49340
  22450470.80000  26470833.34900                  17605297.54040  26470839.91140
  -3063041.33800  25966393.73900                  -2309525.46740  25966397.50140
  -7005974.55200  24081084.51300                  -5238910.85740  24081088.31040
  18755854.93600  25805369.84900                  14769791.68040  25805372.54440
  -2546660.50100  23555627.83300                  -1916439.79640  23555630.22440
 96  9  5  2 28  0.0090000  0  6 14 15 18 22 25 29
  -6164681.97500  22882800.41100                  -4735036.80240  22882803.93840
  22593550.51800  26498060.46600                  17716788.12240  26498066.60640
  -3101063.65800  25959158.52000                  -2339153.19140  25959163.07940
  -7013985.97300  24079559.93500                  -5245153.49040  24079563.77840
  18883556.90600  25829669.15300                  14869299.68840  25829671.70840
  -2528764.12100  23559033.57500                  -1902494.55140  23559036.10640
 96  9  5  2 28 30.0090000  0  6 14 15 18 22 25 29
  -6126115.19600  22890139.44200                  -4704984.77240  22890142.89940
  22736724.62300  26525306.22400                  17828352.27740  26525312.57540
  -3138960.82800  25951946.11400                  -2368683.38540  25951949.93540
  -7021429.21600  24078143.46600                  -5250953.39440  24078147.32140
  19011396.32300  25853995.98900                  14968914.80840  25853999.03640
  -2510645.96300  23562481.04400                  -1888376.48140  23562483.57540
 96  9  5  2 29  0.0090000  0  6 14 15 18 22 25 29
  -6087122.42300  22897559.47400                  -4674600.78940  22897563.06040
  22879867.05400  26552544.74700                  17939891.73740  26552551.49740
  -3176856.58900  25944735.14500                  -2398212.47240  25944739.51740
  -7028414.72300  24076814.08300                  -5256396.60340  24076818.09140
  19139259.05000  25878327.91100                  15068548.09040  25878331.05240
  -2492423.87100  23565948.77000                  -1874177.43040  23565951.36040
 96  9  5  2 29 30.0090000  0  6 14 15 18 22 25 29
  -6047648.17700  22905071.04400                  -4643841.63740  22905074.51340
  23023028.17200  26579788.66900                  18051445.76540  26579795.09140
  -3214700.69400  25937533.74700                  -2427701.32540  25937537.90740
  -7034861.77600  24075586.54400                  -5261420.26740  24075590.71640
  19267209.00000  25902675.84900                  15168249.34940  25902679.32940
  -2474036.23500  23569447.84100                  -1859849.39140  23569450.29040
 96  9  5  2 30  0.0090000  0  6 14 15 18 22 25 29
  -6007785.34300  22912656.54400                  -4612779.69140  22912660.08340
  23166112.92300  26607016.42700                  18162940.28640  26607022.56740
  -3252578.84700  25930326.24700                  -2457216.70140  25930330.25540
  -7040858.14200  24074446.01300                  -5266092.71940  24074450.10240
  19395173.36500  25927027.05200                  15267961.82840  25927029.79440
  -2455564.24900  23572962.40300                  -1845455.61540  23572964.82940
 96  9  5  2 30 30.0090000  0  6 14 15 18 22 25 29
  -5967524.92200  22920318.23900                  -4581407.93840  22920321.64940
  23309097.68900  26634225.40300                  18274356.88640  26634232.39240
  -3290519.49700  25923106.37200                  -2486780.78540  25923110.36840
  -7046424.73200  24073386.70000                  -5270430.29940  24073390.60240
  19523143.39800  25951379.16900                  15367678.73340  25951381.86440
  -2437028.64100  23576490.41100                  -1831012.26640  23576492.84940
 96  9  5  2 31  0.0090000  0  6 14 15 18 22 25 29
  -5926613.45900  22928103.18500                  -4549528.87540  22928106.74740
  23452201.98500  26661457.23900                  18385866.62640  26661463.02840
  -3328304.97000  25915915.55200                  -2516223.95540  25915920.49740
  -7051355.29200  24072448.72400                  -5274272.25340  24072452.45040
  19651348.99900  25975775.75500                  15467579.19840  25975778.60240
  -2418207.20300  23580071.70000                  -1816346.19540  23580074.29040
 96  9  5  2 31 30.0090000  0  6 14 15 18 22 25 29
  -5885157.19100  22935992.18500                  -4517225.28840  22935995.70040
  23595318.57000  26688691.75500                  18497385.94640  26688696.93540
  -3366024.51700  25908737.98100                  -2545615.74840  25908741.86040
  -7055768.75400  24071608.56700                  -5277711.28740  24071612.63440
  19779670.49000  26000193.69200                  15567569.96640  26000196.82140
  -2399204.03500  23583687.68500                  -1801538.51540  23583690.22740
 96  9  5  2 32  0.0090000  0  6 14 15 18 22 25 29
  -5843144.85800  22943986.73100                  -4484488.40340  22943990.31740
  23738451.57800  26715928.77000                  18608918.07340  26715935.11040
  -3403679.77800  25901572.95000                  -2574957.46540  25901577.36840
  -7059660.79800  24070868.07500                  -5280744.01740  24070871.96640
  19908090.75500  26024631.22400                  15667637.71440  26024633.70840
  -2380011.97600  23587339.93500                  -1786583.65440  23587342.43140
 96  9  5  2 32 30.0090000  0  6 14 15 18 22 25 29
  -5800588.11000  22952085.01300                  -4451327.30140  22952088.58740
  23881570.67800  26743164.34100                  18720439.37640  26743169.72040
  -3441307.40400  25894411.79400                  -2604277.62740  25894415.88440
  -7063050.19600  24070223.22400                  -5283385.07640  24070226.88040
  20036567.60800  26049080.43500                  15767749.54640  26049083.44640
  -2360658.64800  23591022.72400                  -1771503.12840  23591025.20840
 96  9  5  2 33  0.0090000  0  6 14 15 18 22 25 29
  -5757489.44400  22960286.56700                  -4417743.92740  22960290.06040
  24024696.85100  26770400.22400                  18831966.14540  26770406.03640
  -3478877.04800  25887262.95000                  -2633552.62940  25887267.01740
  -7065903.88500  24069680.00500                  -5285608.69140  24069684.07140
  20165117.33200  26073542.60600                  15867918.15440  26073545.71240
  -2341110.85000  23594742.72400                  -1756271.06340  23594745.18540
 96  9  5  2 33 30.0090000  0  6 14 15 18 22 25 29
  -5713874.74400  22968585.99700                  -4383758.44640  22968589.51340
  24167816.04000  26797633.73900                  18943487.51640  26797640.16140
  -3516412.80200  25880119.19200                  -2662801.20640  25880123.02440
  -7068210.32500  24069240.86400                  -5287405.88540  24069244.75540
  20293719.48400  26098014.85600                  15968127.63840  26098017.81040
  -2321385.98900  23598496.18500                  -1740901.03240  23598498.71640
 96  9  5  2 34  0.0090000  0  6 14 15 18 22 25 29
  -5669709.20600  22976990.25500                  -4349343.74240  22976993.89940
  24310939.29700  26824870.56000                  19055011.99940  26824876.34940
  -3553910.22300  25872983.77800                  -2692019.92340  25872988.13840
  -7069948.94100  24068909.99700                  -5288760.61840  24068913.80640
  20422399.40600  26122501.85600                  16068397.72440  26122505.32540
  -2301470.30100  23602285.96600                  -1725382.30840  23602288.56740
 96  9  5  2 34 30.0090000  0  6 14 15 18 22 25 29
  -5625013.31300  22985495.75500                  -4314515.77340  22985499.32940
  24454035.70000  26852100.78600                  19166515.61340  26852108.09140
  -3591382.76100  25865853.82500                  -2721219.25640  25865858.17340
  -7071164.38000  24068678.88000                  -5289707.68240  24068682.44240
  20551143.57000  26147001.39500                  16168717.84840  26147004.72440
  -2281395.15400  23606106.27000                  -1709739.33240  23606108.77840
 96  9  5  2 35  0.0090000  0  6 14 15 18 22 25 29
  -5579825.70600  22994094.78600                  -4279304.65540  22994098.32540
  24597071.35400  26879319.04400                  19277971.82040  26879324.89240
  -3628867.44000  25858719.67700                  -2750428.04740  25858723.42740
  -7071890.22300  24068540.68500                  -5290273.23140  24068544.23540
  20679919.99300  26171506.54400                  16269063.11940  26171508.94640
  -2261205.83500  23609947.78600                  -1694007.38740  23609950.35240
 96  9  5  2 35 30.0090000  0  6 14 15 18 22 25 29
  -5534055.99400  23002804.48900                  -4243639.94540  23002808.11040
  24740120.94300  26906540.98100                  19389438.94940  26906546.95840
  -3666279.00500  25851600.77800                  -2779579.86440  25851604.77440
  -7072055.13500  24068508.85600                  -5290401.70940  24068512.63040
  20808806.16800  26196032.68500                  16369493.91140  26196036.55240
  -2240834.54200  23613824.37200                  -1678133.64940  23613826.95040
 96  9  5  2 36  0.0090000  0  6 14 15 18 22 25 29
  -5487718.06900  23011622.21600                  -4207532.47440  23011625.90740
  24883163.35200  26933760.78600                  19500900.50240  26933767.27840
  -3703624.30400  25844494.30200                  -2808680.04640  25844498.56740
  -7071689.48500  24068578.65300                  -5290116.75140  24068582.05240
  20937795.95000  26220578.37200                  16470005.43540  26220581.29040
  -2220290.62400  23617734.11400                  -1662125.40140  23617736.62240
 96  9  5  2 36 30.0090000  0  6 14 15 18 22 25 29
  -5440829.76300  23020544.77800                  -4170996.13140  23020548.36440
  25026202.96600  26960980.04400                  19612359.77240  26960987.38440
  -3740904.66700  25837400.73100                  -2837729.61040  25837404.68140
  -7070779.31700  24068751.88000                  -5289407.49340  24068755.78240
  21066881.90000  26245141.86400                  16570591.89740  26245144.68840
  -2199561.10500  23621678.25500                  -1645972.52440  23621680.76340
 96  9  5  2 37  0.0090000  0  6 14 15 18 22 25 29
  -5393411.88400  23029568.31000                  -4134047.14340  23029571.86040
  25169227.88800  26988197.43500                  19723807.65040  26988203.01340
  -3778137.25700  25830315.02800                  -2866741.95440  25830319.15340
  -7069320.45700  24069029.54400                  -5288270.67740  24069032.77840
  21196049.56800  26269722.29400                  16671242.03640  26269725.91540
  -2178647.12500  23625658.39500                  -1629675.91740  23625661.04440
 96  9  5  2 37 30.0090000  0  6 14 15 18 22 25 29
  -5345496.40000  23038685.91100                  -4096710.40240  23038689.52040
  25312198.33200  27015403.88000                  19835213.10940  27015410.52440
  -3815344.48100  25823234.59900                  -2895734.53740  25823238.36040
  -7067354.47000  24069403.45800                  -5286738.70440  24069407.13840
  21325276.15500  26294313.33300                  16771938.07040  26294316.70840
  -2157570.20800  23629669.18500                  -1613252.33540  23629671.69240
 96  9  5  2 38  0.0090000  0  6 14 15 18 22 25 29
  -5297249.04300  23047867.37200                  -4059115.06340  23047870.81740
  25454942.57300  27042566.23900                  19946442.25740  27042572.79040
  -3852708.25000  25816124.67700                  -2924849.10840  25816129.50540
  -7065044.58100  24069843.23900                  -5284938.75640  24069847.11840
  21454385.88800  26318882.38000                  16872543.07040  26318884.43140
  -2136494.53600  23633679.73900                  -1596829.72940  23633682.37640
 96  9  5  2 38 30.0090000  0  6 14 15 18 22 25 29
  -5248481.23000  23057147.43500                  -4021114.17340  23057150.99740
  25597641.99200  27069720.77800                  20057636.51240  27069727.64940
  -3890038.80600  25809020.56000                  -2953937.78240  25809024.33340
  -7062207.10600  24070383.06000                  -5282727.70940  24070387.51340
  21583550.15700  26343461.75500                  16973190.55040  26343463.89940
  -2115239.44800  23637724.50500                  -1580267.31240  23637727.03640
 96  9  5  2 39  0.0090000  0  6 14 15 18 22 25 29
  -5199105.36500  23066543.36400                  -3982639.47740  23066546.95040
  25740370.31600  27096882.38000                  20168853.24440  27096888.69640
  -3927240.61200  25801941.30200                  -2982926.14940  25801945.02840
  -7058765.25900  24071037.98900                  -5280045.71440  24071041.49340
  21712852.43800  26368065.95000                  17073945.57340  26368069.30240
  -2093736.54800  23641816.12200                  -1563511.80140  23641818.71240
 96  9  5  2 39 30.0090000  0  6 14 15 18 22 25 29
  -5149245.47100  23076031.49700                  -3943787.61340  23076035.06040
  25882997.69100  27124024.41900                  20279991.33940  27124031.74740
  -3964437.89500  25794862.28600                  -3011910.98540  25794866.29440
  -7054837.90800  24071785.23100                  -5276985.40540  24071789.05240
  21842149.39100  26392670.32500                  17174696.45740  26392673.53640
  -2072113.22000  23645931.02000                  -1546662.44640  23645933.56340
 96  9  5  2 40  0.0090000  0  6 14 15 18 22 25 29
  -5098856.74700  23085620.19200                  -3904523.67540  23085623.68540
  26025573.17500  27151155.39500                  20391089.00140  27151162.23940
  -4001581.76400  25787793.88800                  -3040854.19940  25787797.73140
  -7050361.55600  24072637.06700                  -5273497.31640  24072640.31340
  21971483.42500  26417282.20800                  17275476.20840  26417285.79440
  -2050319.68400  23650078.09900                  -1529680.45940  23650080.66540
 96  9  5  2 40 30.0090000  0  6 14 15 18 22 25 29
  -5047970.41600  23095303.39500                  -3864871.98840  23095307.11040
  26168077.54000  27178272.52000                  20502131.26840  27178280.08340
  -4038680.16700  25780734.98900                  -3069762.00840  25780739.34940
  -7045346.10700  24073591.45800                  -5269589.13840  24073595.10240
  22100834.02400  26441897.24700                  17376268.89640  26441901.65340
  -2028372.51900  23654254.43500                  -1512578.75740  23654256.86040
 96  9  5  2 41  0.0090000  0  6 14 15 18 22 25 29
  -4996613.10600  23105076.21600                  -3824853.30340  23105079.75540
  26310498.60100  27205374.03600                  20613108.57140  27205381.24740
  -4075753.01300  25773679.74700                  -3098649.87440  25773684.01340
  -7039781.78600  24074650.34100                  -5265253.27340  24074654.11440
  22230194.92100  26466513.55200                  17477069.58840  26466517.27840
  -2006276.86300  23658459.14500                  -1495361.34940  23658461.63040
 96  9  5  2 41 30.0090000  0  6 14 15 18 22 25 29
  -4944710.33300  23114953.23900                  -3784409.58640  23114956.87240
  26452905.06300  27232473.11400                  20724074.54040  27232480.09140
  -4112733.96800  25766643.00500                  -3127466.14740  25766647.04840
  -7033586.58500  24075829.23900                  -5260425.81140  24075832.96640
  22359631.80000  26491144.12200                  17577929.48240  26491146.46640
  -1983959.30600  23662706.27800                  -1477971.02840  23662708.85640
 96  9  5  2 42  0.0090000  0  6 14 15 18 22 25 29
  -4892269.57800  23124932.41900                  -3743546.66340  23124935.98140
  26595278.54900  27259567.06000                  20835014.83940  27259573.44640
  -4149629.61500  25759622.12200                  -3156215.94240  25759625.90740
  -7026782.82100  24077123.81700                  -5255124.14440  24077127.62640
  22489139.51500  26515789.07500                  17678844.59240  26515790.75140
  -1961445.47300  23666990.48900                  -1460427.76840  23666992.89240
 96  9  5  2 42 30.0090000  0  6 14 15 18 22 25 29
  -4839299.46500  23135012.22400                  -3702271.25540  23135015.89240
  26737597.07900  27286648.95800                  20945912.31640  27286656.25140
  -4186458.35700  25752612.76300                  -3184913.60540  25752616.82940
  -7019396.53700  24078529.63000                  -5249368.57440  24078533.32140
  22618688.86700  26540440.24700                  17779792.14340  26540443.52840
  -1938754.54100  23671308.03600                  -1442746.50640  23671310.50940
 96  9  5  2 43  0.0090000  0  6 14 15 18 22 25 29
  -4785811.16900  23145190.49700                  -3660592.06640  23145194.00140
  26879817.86100  27313712.41900                  21056733.58040  27313718.20840
  -4223259.66000  25745610.63000                  -3213589.88740  25745613.99340
  -7011485.80400  24080034.59100                  -5243204.33740  24080038.16540
  22748250.08700  26565096.16100                  17880748.91940  26565098.71640
  -1915927.41700  23675651.92700                  -1424959.11840  23675654.49340
 96  9  5  2 43 30.0090000  0  6 14 15 18 22 25 29
  -4731755.19100  23155476.91900                  -3618470.52040  23155480.49340
  27021961.15000  27340761.41900                  21167494.41440  27340769.26340
  -4260004.21600  25738618.46600                  -3242221.94940  25738622.35640
  -7003045.53800  24081641.01300                  -5236627.47640  24081644.48140
  22877850.02400  26589757.94200                  17981735.87540  26589760.80240
  -1892943.15800  23680025.98900                  -1407049.28740  23680028.50940
 96  9  5  2 44  0.0090000  0  6 14 15 18 22 25 29
  -4677111.83400  23165875.54400                  -3575891.28240  23165879.22440
  27164042.47000  27367799.30200                  21278207.09240  27367807.50940
  -4296684.96900  25731637.45800                  -3270804.30340  25731641.02040
  -6994070.70800  24083348.78600                  -5229634.06540  24083352.58340
  23007511.65500  26614432.20000                  18082770.93940  26614434.33340
  -1869763.47500  23684436.77000                  -1388987.18540  23684439.26740
 96  9  5  2 44 30.0090000  0  7  4 14 15 18 22 25 29
                  27568417.42700
  -4621871.12500  23176387.52800                  -3532846.56740  23176391.09140
  27306080.34300  27394827.89500                  21388885.85540  27394836.57140
  -4333291.61600  25724672.54400                  -3299328.91840  25724676.44640
  -6984533.06300  24085163.59900                  -5222202.10540  24085167.30240
  23137263.31000  26639122.60600                  18183876.10440  26639124.91540
  -1846357.06300  23688890.90300                  -1370748.40840  23688893.37640
 96  9  5  2 45  0.0090000  0  7  4 14 15 18 22 25 29
      7181.71610  27570188.69200
  -4566069.93300  23187006.16900                  -3489365.12040  23187009.81340
  27448047.46700  27421843.49700                  21499509.50640  27421849.83740
  -4369848.27500  25717714.85600                  -3327814.58040  25717718.48940
  -6974442.99400  24087083.79400                  -5214339.68540  24087087.15740
  23267087.16100  26663827.43500                  18285037.57340  26663830.45840
  -1822745.15400  23693383.90300                  -1352349.50640  23693386.42340
 96  9  5  2 45 30.0090000  0  7  4 14 15 18 22 25 29
      3646.62210  27572047.80200
  -4509714.26800  23197730.18500                  -3445451.61240  23197733.80640
  27589961.97900  27448849.04400                  21610092.12340  27448855.11440
  -4406327.17200  25710773.57500                  -3356239.65140  25710777.12640
  -6963750.25100  24089118.41900                  -5206007.65040  24089121.93540
  23396992.06800  26688547.36400                  18386262.15640  26688550.55240
  -1798901.03700  23697921.17700                  -1333769.66340  23697923.67340
 96  9  5  2 46  0.0090000  0  7  4 14 15 18 22 25 29
     13891.66500  27574000.14500
  -4452870.65800  23208547.25500                  -3401157.89140  23208550.87640
  27731781.09600  27475836.22400                  21720600.43540  27475842.86840
  -4442761.25900  25703839.97400                  -3384629.80740  25703844.21640
  -6952483.77600  24091262.14500                  -5197228.54540  24091265.88440
  23526918.89600  26713272.31700                  18487503.84340  26713274.77840
  -1774866.45400  23702494.85600                  -1315041.40740  23702497.27040
 96  9  5  2 46 30.0090000  0  7  4 14 15 18 22 25 29
     24639.28800  27576044.01300                      4510.72150  27576049.83740
  -4395504.87100  23219463.76300                  -3356457.27540  23219467.27840
  27873546.70300  27502813.53600                  21831067.08140  27502820.93540
  -4479095.47500  25696926.68500                  -3412942.15540  25696930.08340
  -6940590.86800  24093525.48900                  -5187961.31140  24093529.11040
  23656906.62100  26738006.59900                  18588792.96340  26738008.66140
  -1750623.50700  23707108.13800                  -1296150.78940  23707110.65740
 96  9  5  2 47  0.0100000  0  8  4 14 15 18 19 22 25 29
     35871.51300  27578182.41600                     13263.11940  27578190.60040
  -4337631.47400  23230476.51000                  -3311361.12640  23230480.23640
  28015231.76300  27529775.11900                  21941470.92840  27529782.79940
  -4515355.75600  25690026.20500                  -3441196.87240  25690029.52140
                  27682388.35300
  -6928097.07500  24095902.90800                  -5178225.86440  24095906.49440
  23786918.67600  26762748.03300                  18690101.03440  26762751.87740
  -1726206.14300  23711755.11900                  -1277124.26040  23711757.40440
 96  9  5  2 47 30.0100000  0  8  4 14 15 18 19 22 25 29
     47636.63200  27580421.43200                     22430.61940  27580428.70140
  -4279213.34300  23241593.08800                  -3265840.51140  23241596.68540
  28156853.22200  27556724.75200                  22051825.17640  27556732.40840
  -4551511.58800  25683146.16600                  -3469370.20940  25683149.82240
    -51418.89000  27672264.91600
  -6914981.29000  24098398.54900                  -5168005.74740  24098401.87740
  23916964.77500  26787494.67400                  18791435.67540  26787497.14640
  -1701591.24300  23716439.11100                  -1257943.80640  23716441.64340
 96  9  5  2 48  0.0100000  0  8  4 14 15 18 19 22 25 29
     59922.84600  27582759.73600                     32004.25740  27582762.32640
  -4220251.86100  23252813.13500                  -3219896.50440  23252816.68540
  28298389.67900  27583659.01000                  22162113.21140  27583661.88140
  -4587606.04600  25676276.76800                  -3497495.73840  25676280.49440
   -104474.15800  27662168.86100
  -6901280.94000  24101005.95500                  -5157330.12340  24101009.36540
  24047030.25600  26812246.06400                  18892785.37240  26812249.54540
  -1676804.98300  23721155.18900                  -1238629.82940  23721157.65040
 96  9  5  2 48 30.0100000  0  8  4 14 15 18 19 22 25 29
     72715.44400  27585192.23600                     41972.60740  27585195.77540
  -4160745.95900  23264136.45500                  -3173528.27040  23264140.18240
  28439820.41600  27610572.57200                  22272318.91640  27610577.43540
  -4623671.92000  25669414.44700                  -3525598.97040  25669418.08040
   -157424.88200  27652092.16600
  -6887017.27900  24103720.35300                  -5146215.54740  24103723.82240
  24177111.48500  26837000.59600                  18994147.34440  26837003.56040
  -1651858.20200  23725902.82200                  -1219190.77140  23725905.21340
 96  9  5  2 49  0.0100000  0  8  4 14 15 18 19 22 25 29
     86040.69100  27587728.90000                     52355.90340  27587735.21740
  -4100643.64300  23275573.68200                  -3126695.30240  23275577.24440
  28581175.45100  27637470.91600                  22382465.61040  27637479.38140
  -4659672.20900  25662563.34600                  -3553651.10940  25662567.38940
   -210245.57600  27642042.47800
  -6872164.48900  24106546.46300                  -5134641.92640  24106549.85040
  24307238.14900  26861761.84600                  19095544.75140  26861764.23640
  -1626699.16300  23730690.45500                  -1199586.31940  23730692.77540
 96  9  5  2 49 30.0100000  0  8  4 14 15 18 19 22 25 29
     99867.69100  27590360.76000                     63130.19440  27590365.40040
  -4039971.35100  23287119.22800                  -3079418.19440  23287122.73240
  28722427.11400  27664350.67400                  22492531.69140  27664356.49840
  -4695626.49600  25655721.51800                  -3581667.40240  25655724.96340
   -262976.00600  27632006.82200
  -6856751.42900  24109479.34600                  -5122631.71940  24109482.83840
  24437383.68200  26886527.69700                  19196956.83140  26886531.37740
  -1601347.38800  23735514.63500                  -1179831.67340  23735517.08440
 96  9  5  2 50  0.0100000  0  8  4 14 15 18 19 22 25 29
    114158.29400  27593080.19700                     74265.70940  27593085.18940
  -3978765.91000  23298766.36100                  -3031725.64640  23298769.99440
  28863544.57000  27691204.69700                  22602493.26240  27691212.81040
  -4731559.48300  25648883.24400                  -3609667.09940  25648886.98240
   -315647.07200  27621983.66600
  -6840811.04200  24112512.90800                  -5110210.61840  24112516.30740
  24567527.53800  26911294.22100                  19298367.62740  26911295.45140
  -1575831.14500  23740370.18200                  -1159948.88040  23740372.47840
 96  9  5  2 50 30.0100000  0  8  4 14 15 18 19 22 25 29
    128927.55600  27595889.41600                     85774.19940  27595893.42440
  -3917003.51500  23310519.35300                  -2983599.11140  23310522.92840
  29004557.62400  27718038.51800                  22712373.40840  27718044.77540
  -4767411.06800  25642061.38500                  -3637603.37740  25642064.45540
   -368226.72100  27611978.87700
  -6824310.23900  24115652.79100                  -5097352.82040  24115656.64640
  24697699.13900  26936063.58000                  19399800.05040  26936066.97840
  -1550113.80300  23745264.15000                  -1139909.38040  23745266.50640
 96  9  5  2 51  0.0100000  0  8  4 14 15 18 19 22 25 29
    144179.51800  27598792.47800                     97658.83240  27598795.32640
  -3854683.35900  23322378.49400                  -2935037.95640  23322382.03340
  29145468.79200  27744852.57200                  22822174.31040  27744854.23640
  -4803164.66000  25635258.65800                  -3665463.28040  25635262.43240
   -420698.54700  27601990.76000
  -6807237.86900  24118901.70500                  -5084049.64340  24118904.95140
  24827896.42700  26960840.47800                  19501252.46040  26960842.98640
  -1524191.70900  23750196.93900                  -1119710.33740  23750199.31840
 96  9  5  2 51 30.0100000  0  8  4 14 15 18 19 22 25 29
    159975.46900  27601798.29100                    109967.37840  27601802.36940
  -3791781.59200  23334348.22100                  -2886023.60040  23334351.88940
  29286321.51700  27771656.19700                  22931929.55440  27771662.60740
  -4838773.10800  25628481.05700                  -3693210.07340  25628484.63140
   -472992.23700  27592040.52500                    -29871.23250  27592048.21740
  -6789529.16300  24122271.68900                  -5070250.63340  24122274.86540
  24958164.12100  26985629.40000                  19602759.74640  26985631.88540
  -1498022.54400  23755176.56400                  -1099318.76740  23755178.97840
 96  9  5  2 52  0.0100000  0  8  4 14 15 18 19 22 25 29
    176253.32300  27604894.65800                    122651.40540  27604899.39340
  -3728357.34400  23346417.55700                  -2836602.11740  23346421.15440
  29427056.89800  27798437.80700                  23041593.36740  27798444.47540
  -4874294.64600  25621722.07200                  -3720889.15940  25621725.82240
   -525152.98300  27582115.46300                    -70515.62640  27582118.10040
  -6771227.74300  24125754.23600                  -5055989.76140  24125757.82240
  25088455.89800  27010422.96300                  19704285.80940  27010425.31840
  -1471650.69900  23760195.03300                  -1078769.27140  23760197.40040
 96  9  5  2 52 30.0100000  0  8  4 14 15 18 19 22 25 29
    192993.11200  27608079.57200                    135695.41840  27608084.37740
  -3664405.98900  23358587.21300                  -2786769.89640  23358590.81040
  29567663.25000  27825194.98600                  23151156.63740  27825200.48240
  -4909744.33400  25614975.22800                  -3748512.25940  25614979.16640
   -577188.99800  27572212.64300                   -111063.06840  27572219.85340
  -6752326.35300  24129350.72800                  -5041261.38840  24129354.20940
  25218766.03500  27035218.70500                  19805826.16240  27035221.08440
  -1445074.31900  23765252.35300                  -1058060.39240  23765254.80340
 96  9  5  2 53  0.0100000  0  7  4 14 18 19 22 25 29
    210242.24900  27611364.21300                    149136.28440  27611368.57240
  -3599892.11500  23370863.86100                  -2736499.35240  23370867.55340
  -4945099.77800  25608247.25200                  -3776061.91740  25608250.66240
   -629039.66700  27562344.61100                   -151466.00640  27562353.42840
  -6732775.33600  24133071.08800                  -5026026.80240  24133074.62740
  25349141.33000  27060029.52500                  19907417.29440  27060032.58440
  -1418255.44800  23770355.70500                  -1037162.56240  23770358.07240
 96  9  5  2 53 30.0100000  0  7  4 14 18 19 22 25 29
    228003.15600  27614743.77500                    162975.96140  27614748.53340
  -3534803.96500  23383249.46300                  -2685781.31740  23383253.24840
  -4980342.39200  25601540.76000                  -3803523.67340  25601544.13540
   -680684.72800  27552518.21300                   -191708.85140  27552524.26040
  -6712558.59500  24136918.30700                  -5010273.47740  24136921.81040
  25479607.34100  27084856.82200                  20009079.11540  27084860.13940
  -1391177.08100  23775508.64300                  -1016062.52040  23775511.06840
 96  9  5  2 54  0.0100000  0  7  4 14 18 19 22 25 29
    246228.33800  27618210.98600                    177177.41340  27618214.25640
  -3469169.20000  23395739.36900                  -2634637.35040  23395742.93240
  -5015521.61000  25594847.68200                  -3830936.01640  25594851.50240
   -732180.52800  27542718.79900                   -231835.28440  27542726.79540
  -6691725.06800  24140882.79900                  -4994039.54040  24140886.38540
  25610129.68800  27109692.54900                  20110784.83540  27109694.23640
  -1363881.55700  23780702.68200                   -994793.27540  23780705.02540
 96  9  5  2 54 30.0100000  0  7  4 14 18 19 22 25 29
    264963.18500  27621777.25200                    191775.97240  27621778.35340
  -3402963.52800  23408337.85300                  -2583048.51640  23408341.53340
  -5050615.37100  25588168.54900                  -3858281.78240  25588172.45140
   -783498.55100  27532952.44700                   -271823.27540  27532961.92040
  -6670255.94600  24144968.11900                  -4977310.33340  24144971.67040
  25740720.50400  27134544.83800                  20212543.92140  27134545.79940
  -1336358.38700  23785940.29900                   -973346.63840  23785942.71340
 96  9  5  2 55  0.0100000  0  7  4 14 18 19 22 25 29
    284179.77800  27625433.04900                    206749.96840  27625437.01040
  -3336245.23200  23421033.93900                  -2531060.24340  23421037.57240
  -5085653.96200  25581501.97800                  -3885584.55640  25581505.44740
   -834683.84500  27523213.56400                   -311707.70040  27523220.52940
  -6648206.31500  24149164.33800                  -4960128.78040  24149167.87740
  25871323.53300  27159397.40000                  20314312.49740  27159401.05740
  -1308662.84900  23791210.69700                   -951765.68640  23791213.08840
 96  9  5  2 55 30.0100000  0  7  4 14 18 19 22 25 29
    303937.59400  27629193.64300                    222145.62440  27629196.02140
  -3268945.82400  23433840.58000                  -2478619.15040  23433844.16640
  -5120577.41900  25574856.23600                  -3912797.63440  25574859.83440
   -885699.48500  27513504.04100                   -351459.88940  27513507.58040
  -6625528.12400  24153479.61100                  -4942457.44040  24153483.38540
  26001984.76700  27184261.88500                  20416126.44040  27184264.19340
  -1280739.78700  23796524.07200                   -930007.44840  23796526.45140
 96  9  5  2 56  0.0100000  0  7  4 14 18 19 22 25 29
    324226.94500  27633054.82200                    237955.50140  27633059.32240
  -3201090.71400  23446753.20500                  -2425745.04940  23446756.72140
  -5155416.23400  25568225.56400                  -3939944.73240  25568229.35040
   -936581.89600  27503821.53300                   -391108.31440  27503830.03340
  -6602262.61700  24157906.87700                  -4924328.45440  24157910.54540
  26132656.04400  27209126.74400                  20517948.18340  27209129.63940
  -1252618.91400  23801875.22800                   -908095.07040  23801877.56040
 96  9  5  2 56 30.0100000  0  7  4 14 18 19 22 25 29
    345056.71400  27637018.83000                    254186.44340  27637024.37340
  -3132680.53400  23459771.30700                  -2372438.42040  23459774.93940
  -5190154.42600  25561615.48600                  -3967013.42540  25561618.83840
   -987322.40200  27494166.40000                   -430646.25140  27494165.61540
  -6578418.66000  24162444.04100                  -4905748.73240  24162447.43940
  26263336.11700  27233995.08000                  20619776.82740  27233996.41640
  -1224296.64500  23807264.75200                   -886025.75540  23807267.18940
 96  9  5  2 57  0.0100000  0  7  4 14 18 19 22 25 29
    366403.52600  27641080.35300                    270820.37040  27641085.26440
  -3063739.00200  23472890.20500                  -2318717.74740  23472893.74440
  -5224793.90300  25555023.61100                  -3994005.20540  25555027.29140
  -1037932.61800  27484536.47100                   -470082.65940  27484544.24440
  -6554010.42900  24167088.91600                  -4886729.31040  24167092.56040
  26394019.27800  27258863.71300                  20721607.86040  27258867.17040
  -1195769.60000  23812693.36900                   -863796.88040  23812695.61940
 96  9  5  2 57 30.0100000  0  7  4 14 18 19 22 25 29
    388284.16800  27645244.18200                    287870.18040  27645247.58040
  -2994249.08000  23486113.60300                  -2264569.76240  23486117.31840
  -5259326.35000  25548453.01000                  -4020913.57340  25548456.72540
  -1088399.24100  27474930.68900                   -509407.15540  27474934.61540
  -6529010.85800  24171846.31400                  -4867249.09440  24171849.64340
  26524723.58100  27283734.72100                  20823455.35140  27283738.57640
  -1167011.12900  23818165.95500                   -841387.67740  23818168.25240
 96  9  5  2 58  0.0100000  0  7  4 14 18 19 22 25 29
    410697.24700  27649509.66600                    305334.96140  27649514.02540
  -2924215.35700  23499440.89300                  -2209998.02940  23499444.58440
  -5293752.40400  25541901.74400                  -4047739.03340  25541905.54140
  -1138719.36000  27465353.86100                   -548617.37040  27465359.94340
  -6503408.35900  24176718.01000                  -4847299.07540  24176721.59640
  26655446.92400  27308611.92400                  20925317.67440  27308611.86540
  -1138015.15600  23823683.58800                   -818793.40340  23823685.95540
 96  9  5  2 58 30.0100000  0  7  4 14 18 19 22 25 29
    433595.48700  27653866.49400                    323177.70940  27653870.74840
  -2853668.61600  23512865.24400                  -2155026.55240  23512868.81840
  -5328102.37700  25535365.01000                  -4074505.19440  25535368.84240
  -1188917.12000  27455802.54900                   -587732.24840  27455808.91240
  -6477210.57600  24181703.63500                  -4826885.19840  24181706.75240
  26786166.21900  27333487.31400                  21027176.88240  27333489.49440
  -1108800.89600  23829243.01800                   -796029.03840  23829245.25640
 96  9  5  2 59  0.0100000  0  7  4 14 18 19 22 25 29
    456999.03800  27658319.96300                    341414.23540  27658324.72140
  -2782574.12000  23526394.44700                  -2099628.25140  23526397.98640
  -5362346.82800  25528848.24400                  -4101189.13640  25528851.88940
  -1238974.43200  27446277.26000                   -626737.85740  27446279.95540
  -6450373.61100  24186810.14300                  -4805973.24940  24186813.88140
  26916892.93000  27358363.83800                  21129041.88940  27358365.06840
  -1079338.98300  23834849.22100                   -773071.69740  23834851.52940
 96  9  5  2 59 30.0100000  0  7  4 14 18 19 22 25 29
    480880.69900  27662864.22800                    360023.34140  27662868.00240
  -2710937.97000  23540026.18200                  -2043807.88240  23540029.80340
  -5396521.53900  25522344.52500                  -4127818.72840  25522348.02940
  -1288926.63800  27436770.79100                   -665661.46040  27436777.95540
  -6422924.43300  24192033.83800                  -4784584.25740  24192037.44740
  27047585.11600  27383231.86900                  21230879.94040  27383236.85040
  -1049675.91400  23840494.04100                   -749957.61540  23840496.31440
 96  9  5  3  0  0.0100000  0  7  4 14 18 19 22 25 29
    505278.02100  27667506.37700                    379034.25240  27667511.07640
  -2638714.08000  23553770.15000                  -1987529.53540  23553773.72540
  -5430568.95500  25515866.68200                  -4154349.12640  25515870.33840
  -1338723.37100  27427295.63500                   -704463.98340  27427301.33040
  -6394827.62100  24197380.62700                  -4762690.61840  24197383.74440
  27178288.43000  27408104.81400                  21332726.67340  27408106.18540
  -1019775.60200  23846183.72100                   -726658.65840  23846186.12340
 96  9  5  3  0 30.0100000  0  7  4 14 18 19 22 25 29
    530155.64600  27672241.04100                    398419.40640  27672246.25640
  -2565951.27300  23567616.17400                  -1930831.25140  23567619.77140
  -5464527.67300  25509403.64300                  -4180810.40340  25509407.24040
  -1388398.71800  27417843.53300                   -743171.95240  27417855.22140
  -6366128.42600  24202841.58000                  -4740327.59240  24202844.90840
  27308960.03100  27432970.76000                  21434548.68740  27432973.04540
   -989691.64300  23851908.51800                   -703216.60640  23851910.89640
 96  9  5  3  1  0.0100000  0  7  4 14 18 19 22 25 29
    555537.48900  27677072.20500                    418197.45440  27677075.77940
  -2492635.46500  23581567.62700                  -1873702.05540  23581571.23640
  -5498394.96800  25502959.79900                  -4207200.43940  25502963.51440
  -1437939.78000  27408415.16600                   -781775.18740  27408421.95140
  -6336820.08200  24208418.84600                  -4717489.89940  24208422.08040
  27439617.64700  27457834.29900                  21536359.81740  27457836.02140
   -959431.18700  23857667.03300                   -679637.02740  23857669.44740
 96  9  5  3  1 30.0100000  0  7  4 14 18 19 22 25 29
    581478.17900  27682007.38500                    438411.00040  27682012.29540
  -2418714.27200  23595634.37700                  -1816101.13740  23595638.08040
  -5532125.83100  25496540.47100                  -4233484.17740  25496544.01040
  -1487271.98800  27399027.09600                   -820215.70940  27399031.99440
  -6306851.71800  24214121.17400                  -4694137.90740  24214125.08840
  27570342.42400  27482710.76800                  21638223.29240  27482713.48640
   -928939.84800  23863469.31400                   -655877.53240  23863471.70540
 96  9  5  3  2  0.0100000  0  7  4 14 18 19 22 25 29
    607899.23800  27687034.93200                    458998.83240  27687039.16240
  -2344279.60700  23609798.81400                  -1758100.10540  23609802.30740
  -5565802.59900  25490132.33800                  -4259725.75240  25490135.86540
  -1536456.60300  27389667.33800                   -858541.22940  27389672.01440
  -6276298.82100  24219935.83000                  -4670330.50240  24219939.47540
  27701064.51700  27507584.65000                  21740084.64640  27507587.47540
   -898277.06300  23869304.33800                   -631984.42340  23869306.62340
 96  9  5  3  2 30.0100000  0  7  4 14 18 19 22 25 29
    634818.47700  27692158.40000                    479974.84340  27692163.20540
  -2269317.64600  23624063.65800                  -1699688.20440  23624067.33840
  -5599430.43500  25483732.42400                  -4285929.19140  25483736.16240
  -1585472.75800  27380339.58000                   -896735.53140  27380344.18540
  -6245141.68100  24225864.61900                  -4646052.12440  24225867.87740
  27831802.79200  27532464.74400                  21841958.63440  27532467.73240
   -867420.00000  23875176.16600                   -607939.97540  23875178.60340
 96  9  5  3  3  0.0100000  0  7  4 14 18 19 22 25 29
    662210.48000  27697370.50200                    501319.22540  27697372.99840
  -2193844.30000  23638425.69700                  -1640877.81440  23638429.35340
  -5633020.47000  25477340.65800                  -4312103.18540  25477344.13940
  -1634343.94700  27371040.19700                   -934816.78540  27371047.26840
  -6213411.07200  24231902.58800                  -4621326.96440  24231905.65840
  27962538.45200  27557342.20500                  21943830.58440  27557344.90040
   -836374.16500  23881084.10300                   -583748.41040  23881086.50640
 96  9  5  3  3 30.0100000  0  7  4 14 18 19 22 25 29
    690094.85300  27702677.55700                    523047.34140  27702682.56040
  -2117842.61600  23652888.22100                  -1581655.72440  23652891.84240
  -5666528.39000  25470964.15800                  -4338213.19540  25470968.06040
  -1683046.71200  27361772.01800                   -972766.88140  27361780.84640
  -6181091.10600  24238052.82200                  -4596142.55240  24238056.27940
  28093281.56600  27582222.26000                  22045708.33040  27582225.90440
   -805094.78200  23887036.41600                   -559374.85640  23887038.76040
 96  9  5  3  4  0.0100000  0  7  4 14 18 19 22 25 29
    718498.51700  27708081.11900                    545180.07740  27708084.84640
  -2041308.49800  23667452.54900                  -1522018.76040  23667456.20540
  -5699921.34800  25464609.31400                  -4364233.61740  25464612.56040
  -1731586.27700  27352535.32200                  -1010589.70940  27352543.70540
  -6148166.40400  24244318.18200                  -4570486.93140  24244321.45140
  28224025.57800  27607101.55700                  22147586.78840  27607103.15040
   -773554.62200  23893038.22100                   -534798.10740  23893040.54140
 96  9  5  3  4 30.0100000  0  7  4 14 18 19 22 25 29
    747361.36200  27713574.43200                    567670.58440  27713576.75240
  -1964290.17300  23682108.47800                  -1462004.49140  23682112.24040
  -5733252.69200  25458266.43200                  -4390206.03840  25458269.97140
  -1780044.70100  27343314.25200                  -1048349.34640  27343317.85040
  -6114688.42700  24250689.08000                  -4544400.17740  24250692.11540
  28354712.26800  27631972.02500                  22249420.56140  27631975.13140
   -741822.12800  23899076.39300                   -510071.48240  23899078.76040
 96  9  5  3  5  0.0100000  0  7  4 14 18 19 22 25 29
    776777.12100  27719171.86100                    590591.95340  27719176.01040
  -1886703.41800  23696872.87700                  -1401547.29240  23696876.53340
  -5766424.75700  25451953.63500                  -4416054.34640  25451956.91640
  -1828346.04400  27334121.97800                  -1085986.62440  27334130.51440
  -6080568.52000  24257181.64300                  -4517813.22640  24257184.92440
  28485412.57300  27656841.94700                  22351264.96840  27656843.24840
   -709805.61500  23905169.06400                   -485123.54840  23905171.44340
 96  9  5  3  5 30.0100000  0  7  4 14 18 19 22 25 29
    806689.38400  27724864.61900                    613900.21440  27724870.25640
  -1808597.92500  23711735.62700                  -1340685.87540  23711739.21340
  -5799500.36500  25445659.70500                  -4441827.49740  25445663.22140
  -1876539.57600  27324952.46300                  -1123539.82040  27324958.00640
  -6045849.31100  24263788.31400                  -4490759.27740  24263791.88940
  28616071.38600  27681705.60300                  22453077.03540  27681708.13540
   -677558.23600  23911305.72100                   -459995.70940  23911308.11140
 96  9  5  3  6  0.0100000  0  7  4 14 18 19 22 25 29
    837125.11800  27730655.66600                    637616.33640  27730658.66640
  -1729944.51800  23726702.93900                  -1279397.51140  23726706.70140
  -5832473.89100  25439385.24400                  -4467521.11740  25439388.50240
  -1924601.33300  27315804.88500                  -1160990.41340  27315811.37740
  -6010496.80200  24270516.01800                  -4463211.84940  24270519.32240
  28746722.32200  27706567.86900                  22554883.00140  27706570.52940
   -645074.90100  23917487.13500                   -434684.01240  23917489.45540
 96  9  5  3  6 30.0100000  0  7  4 14 18 19 22 25 29
    868062.14100  27736542.90000                    661723.10540  27736547.31840
  -1650757.76300  23741771.85300                  -1217693.55340  23741775.36940
  -5865372.50000  25433125.49400                  -4493156.36540  25433128.78740
  -1972520.80000  27306686.52500                  -1198330.11440  27306693.01840
  -5974524.05600  24277361.25200                  -4435181.12740  24277364.62740
  28877358.13000  27731426.36900                  22656677.13540  27731429.31040
   -612381.83400  23923708.24400                   -409208.88740  23923710.52940
 96  9  5  3  7  0.0110000  0  7  4 14 18 19 22 25 29
    899476.71000  27742520.99900                    686202.00340  27742525.30040
  -1571068.59400  23756936.06100                  -1155598.10540  23756939.72940
  -5898198.77800  25426879.19400                  -4518735.24740  25426882.15940
  -2020287.84100  27297595.85100                  -1235551.01440  27297601.11240
  -5937955.40000  24284320.40500                  -4406686.05440  24284323.66340
  29007959.19300  27756279.65500                  22758444.17840  27756283.66340
   -579487.09200  23929968.06100                   -383576.61440  23929970.32340
 96  9  5  3  7 30.0110000  0  7  4 14 18 19 22 25 29
    931356.58200  27748587.45200                    711043.44340  27748591.84740
  -1490878.02100  23772195.82700                  -1093111.95040  23772199.47240
  -5930941.12300  25420648.29600                  -4544248.73440  25420651.91740
  -2067884.28600  27288539.74900                  -1272638.99240  27288543.54640
  -5900788.41900  24291392.80400                  -4377724.74840  24291396.07340
  29138527.55800  27781125.34300                  22860185.80940  27781127.49940
   -546394.29900  23936264.94400                   -357790.01540  23936267.30040
 96  9  5  3  8  0.0110000  0  7  4 14 18 19 22 25 29
    963708.09300  27754743.89000                    736252.38540  27754748.16740
  -1410185.46600  23787551.16300                  -1030234.64240  23787554.91340
  -5963592.64500  25414434.88200                  -4569691.46040  25414438.86640
  -2115302.87900  27279514.90500                  -1309588.40140  27279520.62440
  -5863018.21700  24298579.92100                  -4348293.40240  24298583.03840
  29269070.60400  27805967.32700                  22961907.67340  27805969.61240
   -513100.08800  23942600.98300                   -331846.46540  23942603.35140
 96  9  5  3  8 30.0110000  0  7  4 14 18 19 22 25 29
    996552.86500  27760993.62400                    761845.70140  27760997.40940
  -1328958.66500  23803008.10100                   -966941.04240  23803011.78040
  -5996108.65400  25408247.06900                  -4595028.57840  25408250.38640
  -2162511.91400  27270531.60100                  -1346374.54240  27270539.38640
  -5824619.22600  24305887.20200                  -4318372.09040  24305890.34340
  29399601.86600  27830807.02200                  23063620.38140  27830811.76840
   -479561.53800  23948983.14700                   -305712.52240  23948985.47940
 96  9  5  3  9  0.0110000  0  7  4 14 18 19 22 25 29
   1029870.52700  27767333.99900                    787807.44440  27767336.16740
  -1247199.05900  23818566.46800                   -903232.26740  23818570.07740
  -6028505.41800  25402082.53000                  -4620272.78540  25402085.97640
  -2209549.55700  27261580.89000                  -1383027.07640  27261586.73740
  -5785612.43400  24313309.87400                  -4287977.16640  24313313.34340
  29530098.20200  27855639.96000                  23165305.88540  27855641.72940
   -445799.60800  23955407.70200                   -279404.51440  23955410.01140
 96  9  5  3  9 30.0110000  0  7  4 14 18 19 22 25 29
   1063703.32100  27773773.03800
  -1164870.73700  23834233.05400                   -839080.33440  23834236.71040
  -6060775.76700  25395941.65500                  -4645418.49740  25395945.00740
  -2256404.70900  27252665.49100                  -1419537.46440  27252669.65140
  -5745976.35400  24320852.12400                  -4257091.89240  24320855.54640
  29660596.87000  27880472.88200                  23266993.11540  27880476.83140
   -411796.78400  23961878.33500                   -252908.79340  23961880.71440
 96  9  5  3 10  0.0110000  0  7  4 14 18 19 22 25 29
   1098002.07300  27780299.03000
  -1082018.69700  23849998.97600                   -774520.30340  23850002.72640
  -6092975.13300  25389813.64700                  -4670508.88540  25389816.98740
  -2303136.58000  27243771.18600                  -1455951.81840  27243778.76140
  -5705763.36200  24328504.28800                  -4225757.07140  24328507.80440
  29791046.50700  27905296.29600                  23368642.20940  27905299.90540
   -377604.72100  23968384.78000                   -226265.61340  23968387.01840
 96  9  5  3 10 30.0110000  0  7  4 14 18 19 22 25 29
   1132740.49100  27786909.96800
   -998672.17600  23865859.76500                   -709574.97540  23865863.21040
  -6125128.27200  25383695.14000                  -4695563.25140  25383698.47940
  -2349790.79200  27234894.24900                  -1492305.58140  27234899.39340
  -5665007.55600  24336260.12400                  -4193999.28240  24336263.37040
  29921421.68300  27930104.56100                  23470233.29740  27930108.59340
   -343251.13900  23974922.03800                   -199496.58040  23974924.34740
 96  9  5  3 11  0.0110000  0  7  4 14 18 19 22 25 29
   1168007.85700  27793620.30400
   -914762.78500  23881827.04600                   -644191.04040  23881830.74940
  -6157146.59200  25377602.76500                  -4720512.55440  25377606.02240
  -2396278.87800  27226046.99100                  -1528529.99640  27226051.06940
  -5623622.94200  24344135.45200                  -4161751.51040  24344138.67540
  30051822.47300  27954920.58500                  23571844.29440  27954922.98740
   -308651.79400  23981506.07700                   -172536.03940  23981508.28040
 96  9  5  3 11 30.0110000  0  6  4 14 18 19 22 29
   1203822.18700  27800435.13200
   -830303.40400  23897898.99100                   -578378.54740  23897902.83540
  -6189009.68500  25371538.91300                  -4745340.92140  25371542.25340
  -2442578.68600  27217236.73300                  -1564607.59040  27217241.97240
  -5581592.34400  24352133.57700                  -4129000.37940  24352136.50740
   -273775.81100  23988142.92100                   -145359.94240  23988145.20640
 96  9  5  3 12  0.0110000  0  6  4 14 18 19 22 29
   1240104.43600  27807339.70200                     24524.09550  27807344.90540
   -745363.19100  23914062.59300                   -512191.38140  23914066.29640
  -6220785.42500  25365492.72600                  -4770101.20640  25365495.94840
  -2488768.43600  27208447.46000                  -1600599.54440  27208452.21840
  -5538978.18400  24360242.81100                  -4095794.52240  24360246.17540
   -238684.52900  23994820.52200                   -118016.07540  23994822.80840
 96  9  5  3 12 30.0110000  0  6  4 14 18 19 22 29
   1276868.63800  27814336.17900                     53171.48440  27814340.96040
   -659947.81900  23930316.82700                   -445633.95740  23930320.58940
  -6252462.62900  25359464.32700                  -4794784.71540  25359467.79640
  -2534830.39100  27199682.35100                  -1636491.86040  27199688.39740
  -5495771.96900  24368464.67900                  -4062127.31740  24368467.72640
   -203376.59100  24001539.14000                    -90503.38840  24001541.49540
 96  9  5  3 13  0.0110000  0  6  4 14 18 19 22 29
   1314091.05600  27821419.81100                     82175.97740  27821424.47640
   -574081.46000  23946656.50700                   -378725.11040  23946660.04640
  -6284059.81400  25353451.96000                  -4819405.85740  25353455.32340
  -2580760.45500  27190941.30400                  -1672281.40740  27190946.29640
  -5451983.62500  24376797.06900                  -4028006.51440  24376800.36240
   -167866.49400  24008296.49900                    -62833.17340  24008298.76140
 96  9  5  3 13 30.0110000  0  6  4 14 18 19 22 29
   1351859.30600  27828605.84300                    111605.77140  27828610.87040
   -487657.06400  23963102.56900                   -311381.43440  23963106.02640
  -6315492.39600  25347469.86600                  -4843898.74540  25347473.00740
  -2626475.68400  27182241.90500                  -1707903.57840  27182246.44040
  -5407524.53800  24385257.03000                  -3993363.05040  24385260.39340
   -132061.89100  24015110.02200                    -34933.47540  24015112.31940
 96  9  5  3 14  0.0110000  0  6  4 14 18 19 22 29
   1390111.24600  27835885.31900                    141412.44040  27835888.21440
   -400711.65700  23979647.83500                   -243631.77340  23979651.51540
  -6346815.22000  25341509.48300                  -4868306.10040  25341513.05840
  -2672031.67500  27173572.21000                  -1743401.64840  27173578.57340
  -5362451.65500  24393834.64000                  -3958241.30240  24393837.78040
    -96039.11100  24021964.83500                     -6863.77440  24021967.09740
 96  9  5  3 14 30.0110000  0  6  4 14 18 19 22 29
   1428833.32700  27843253.54600                    171585.47740  27843256.39340
   -313261.12800  23996288.96000                   -175488.51540  23996292.66340
  -6378017.36500  25335572.11600                  -4892619.44040  25335575.26840
  -2717412.71400  27164936.46800                  -1778763.39540  27164941.44840
  -5316770.17600  24402527.57700                  -3922645.32440  24402530.77640
    -59801.22400  24028860.67100                     21373.54640  24028862.93340
 96  9  5  3 15  0.0110000  0  6  4 14 18 19 22 29
   1468017.10600  27850710.83500                    202118.28640  27850714.04640
   -225297.39200  24013027.88200                   -106945.36040  24013031.46840
  -6409105.93900  25329656.21800                  -4916844.25440  25329659.52240
  -2762634.72200  27156331.28000                  -1814001.22240  27156338.45640
  -5270487.68600  24411334.35800                  -3886581.03040  24411337.66340
    -23337.44100  24035799.54600                     49786.89540  24035801.81940
 96  9  5  3 15 30.0110000  0  6  4 14 18 19 22 29
   1507724.45000  27858266.71800                    233059.02940  27858269.76540
   -136751.64500  24029877.46800                    -37948.68040  24029881.13640
  -6440040.08500  25323768.88200                  -4940948.74440  25323772.56140
  -2807657.10500  27147763.51500                  -1849083.45540  27147770.18340
  -5223562.45300  24420264.50700                  -3850015.88540  24420267.68340
     13406.09700  24042791.64700                     78418.22840  24042793.97940
 96  9  5  3 16  0.0110000  0  6  4 14 18 19 22 29
   1547907.05700  27865913.10800                    264370.15940  27865916.31940
    -47674.37500  24046828.36600                     31462.16940  24046832.08140
  -6470862.87400  25317904.56900                  -4964966.46440  25317907.65140
  -2852519.79300  27139227.31100                  -1884041.35740  27139233.86240
  -5176035.17000  24429308.34300                  -3812981.63340  24429311.16740
     50392.93100  24049830.11600                    107239.14340  24049832.42540
 96  9  5  3 16 30.0110000  0  6  4 14 18 19 22 29
   1588512.19000  27873640.61600                    296010.46840  27873644.67140
     41867.63700  24063867.87400                    101235.15140  24063871.34340
  -6501634.69800  25312047.99900                  -4988944.47540  25312051.24540
  -2897275.78600  27130710.07700                  -1918916.07740  27130715.56140
  -5127957.70300  24438457.39000                  -3775518.64640  24438460.34340
     87585.98900  24056907.35800                    136220.75740  24056909.66740
 96  9  5  3 17  0.0110000  0  6  4 14 18 19 22 29
   1629595.11800  27881457.88200                    328023.11840  27881461.43340
    131924.23800  24081004.85100                    171409.11840  24081008.72940
  -6532313.51300  25306209.18600                  -5012850.02140  25306212.31540
  -2941887.58800  27122220.21800                  -1953678.41440  27122224.02640
  -5079281.84800  24447719.56900                  -3737589.39240  24447722.68640
    125033.04100  24064033.46000                    165400.28240  24064035.68640
 96  9  5  3 17 30.0110000  0  6  4 14 18 19 22 29
   1671116.63400  27889359.17900                    360377.53340  27889364.38240
    222442.23100  24098230.01500                    241942.61240  24098233.54240
  -6562924.76200  25300385.49900                  -5036702.91240  25300388.72240
  -2986376.34900  27113754.37400                  -1988344.87140  27113759.54240
  -5030037.54500  24457090.65500                  -3699217.19240  24457093.46840
    162694.30800  24071200.12400                    194746.72740  24071202.42140
 96  9  5  3 18  0.0110000  0  6  4 14 18 19 22 29
   1713111.16200  27897350.65500                    393100.55940  27897356.32740
    313450.10400  24115548.01500                    312857.82840  24115551.76540
  -6593406.98400  25294584.46800                  -5060455.26740  25294587.87840
  -3030695.51700  27105320.69400                  -2022879.21040  27105326.06140
  -4980166.03500  24466581.10100                  -3660356.25640  24466584.27640
    200609.67100  24078415.35800                    224291.17540  24078417.71440
 96  9  5  3 18 30.0110000  0  6  4 14 18 19 22 29
   1755605.53500  27905436.71000                    426213.00440  27905440.62440
    404953.09500  24132960.78800                    384158.85440  24132964.28040
  -6623747.80300  25288810.47600                  -5084097.44440  25288813.81540
  -3074822.63800  27096923.26500                  -2057263.89740  27096929.18340
  -4929665.68400  24476190.67100                  -3621005.31240  24476193.98740
    238773.38100  24085677.65500                    254029.13540  24085679.88240
 96  9  5  3 19  0.0110000  0  6  4 14 18 19 22 29
   1798613.91700  27913621.38200                    459726.03940  27913625.97640
    496960.87000  24150469.01500                    455853.21440  24150473.03440
  -6653940.00100  25283065.32700                  -5107623.81040  25283068.81940
  -3118745.99000  27088564.41300                  -2091489.82540  27088568.69040
  -4878537.87500  24485920.12400                  -3581165.44540  24485923.20640
    277183.56700  24092986.83500                    283959.15340  24092989.12040
 96  9  5  3 19 30.0110000  0  6  4 14 18 19 22 29
   1842103.98200  27921896.70200                    493614.35540  27921903.22940
    589447.22100  24168069.01500                    527920.49440  24168072.60140
  -6684021.49200  25277340.85100                  -5131063.92340  25277344.28440
  -3162494.57800  27080240.20200                  -2125579.55340  27080245.14740
  -4826824.59000  24495760.83500                  -3540869.36740  24495763.85840
    315797.47300  24100334.53000                    314047.92240  24100336.82740
 96  9  5  3 20  0.0110000  0  6  4 14 18 19 22 29
   1886143.00800  27930277.35800                    527930.47940  27930281.81140
    682485.56400  24185773.28000                    600417.89240  24185777.27640
  -6713940.67700  25271647.92900                  -5154377.54740  25271651.12840
  -3206013.62900  27071957.98300                  -2159490.42440  27071962.53040
  -4774480.28300  24505721.67100                  -3500081.58340  24505725.08140
    354664.27900  24107730.92900                    344333.74840  24107733.16740
 96  9  5  3 20 30.0110000  0  6  4 14 18 19 22 29
   1930726.15700  27938761.25700                    562670.54340  27938764.92540
    776075.46500  24203582.90500                    673345.07540  24203586.69040
  -6743696.62400  25265985.42900                  -5177563.98440  25265988.71040
  -3249301.19700  27063721.07700                  -2193220.91040  27063725.89340
  -4721520.78000  24515799.63200                  -3458814.42340  24515802.85440
    393791.52600  24115176.53800                    374822.52440  24115178.84740
 96  9  5  3 21  0.0110000  0  6  4 14 18 19 22 29
   1975780.61100  27947334.46000                    597777.87440  27947338.47940
    870174.22300  24221489.35100                    746668.77040  24221493.14740
  -6773322.89300  25260347.32700                  -5200649.36740  25260350.74940
  -3292416.94600  27055515.57700                  -2226817.53040  27055520.38240
  -4667982.18500  24525987.55400                  -3417096.03140  24525990.65940
    433144.50800  24122665.06100                    405487.18640  24122667.31140
 96  9  5  3 21 30.0110000  0  6  4 14 18 19 22 29
   2021256.05300  27955988.81100                    633213.30040  27955992.25740
    964745.49300  24239485.72600                    820360.65340  24239489.46440
  -6802842.76000  25254729.78000                  -5223651.84440  25254732.75740
  -3335410.55300  27047334.86600                  -2260318.96740  27047340.28040
  -4613889.22700  24536281.58500                  -3374945.65840  24536284.78440
    472699.94800  24130192.36600                    436309.61140  24130194.55840
 96  9  5  3 22  0.0110000  0  6  4 14 18 19 22 29
   2067183.38300  27964728.17100                    669000.77240  27964732.21440
   1059819.44400  24257577.79600                    894444.24840  24257581.62840
  -6832198.48900  25249144.05400                  -5246526.41940  25249147.14740
  -3378243.38700  27039183.95200                  -2293695.11040  27039189.49540
  -4559187.06600  24546690.26500                  -3332320.58640  24546693.33540
    512519.28100  24137769.95200                    467337.66540  24137772.31940
 96  9  5  3 22 30.0110000  0  6  4 14 18 19 22 29
   2113551.93000  27973551.56100                    705132.09940  27973557.40940
   1155379.30400  24275761.85100                    968906.46540  24275765.75340
  -6861386.39200  25243589.59300                  -5269270.22640  25243592.67540
  -3420927.68000  27031061.62400                  -2326955.51640  27031067.19040
  -4503869.87600  24557216.81100                  -3289216.27640  24557220.14040
    552603.81000  24145397.60100                    498572.37240  24145399.95640
 96  9  5  3 23  0.0110000  0  6  4 14 18 19 22 29
   2160373.01400  27982461.60800                    741616.05040  27982465.11240
   1251425.93100  24294039.23300                   1043747.98740  24294042.94840
  -6890419.31800  25238064.06900                  -5291893.27140  25238067.40940
  -3463461.93000  27022966.82700                  -2360098.98040  27022972.39340
  -4447929.20800  24567862.17900                  -3245626.13240  24567865.42540
    592956.83200  24153076.30400                    530016.29340  24153078.67140
 96  9  5  3 23 30.0110000  0  6  4 14 18 19 22 29
   2207611.89200  27991450.95200                    778425.52340  27991454.43340
   1347897.76300  24312396.98300                   1118920.83940  24312400.78040
  -6919364.55500  25232556.97600                  -5314447.98540  25232560.04640
  -3505894.97700  27014892.28800                  -2393163.60740  27014896.78840
  -4391438.54500  24578611.76500                  -3201607.42940  24578614.83540
    633522.12900  24160795.89000                    561625.61740  24160798.15140
 96  9  5  3 24  0.0110000  0  6  4 14 18 19 22 29
   2255328.47800  28000530.90500                    815607.25940  28000533.89340
   1444841.49900  24330844.68600                   1194461.40040  24330848.56540
  -6948189.10000  25227071.33500                  -5336908.65740  25227074.58140
  -3548164.70000  27006848.02200                  -2426100.96740  27006852.06540
  -4334361.25400  24589473.46800                  -3157131.60440  24589476.73740
    674336.19600  24168562.18600                    593428.79240  24168564.53040
 96  9  5  3 24 30.0110000  0  6  4 14 18 19 22 29
   2303548.76900  28009707.61600                    853181.46040  28009712.40940
   1542267.70000  24349384.54600                   1270377.91140  24349388.35440
  -6976902.61800  25221606.89000                  -5359282.81240  25221610.17140
  -3590255.84400  26998839.16300                  -2458899.14240  26998844.90540
  -4276687.30300  24600448.59300                  -3112190.85340  24600451.80440
    715408.74500  24176378.20200                    625433.38140  24176380.46440
 96  9  5  3 25  0.0110000  0  6  4 14 18 19 22 29
   2352259.36200  28018975.80400                    891137.77240  28018983.34340
   1640161.93400  24368013.13200                   1346659.11640  24368017.03440
  -7005520.46800  25216161.61600                  -5381582.41840  25216164.71040
  -3632172.30600  26990862.06900                  -2491561.20040  26990868.45640
  -4218425.69400  24611535.08500                  -3066792.18440  24611538.28440
    756734.68100  24184242.34300                    657635.41740  24184244.56940
 96  9  5  3 25 30.0110000  0  6  4 14 18 19 22 29
   2401472.51000  28028342.01500                    929485.67240  28028346.02240
   1738539.40600  24386733.83500                   1423316.87840  24386737.66740
  -7034019.28700  25210738.69400                  -5403789.26540  25210741.87040
  -3673905.64600  26982920.77200                  -2524080.61640  26982926.14040
  -4159560.43300  24622736.71800                  -3020923.13440  24622740.10440
    798314.55500  24192154.57700                    690035.31840  24192156.92140
 96  9  5  3 26  0.0110000  0  6  4 14 18 19 22 29
   2451194.19900  28037803.92100                    968229.79340  28037806.71040
   1837413.83700  24405549.02200                   1500361.86940  24405552.93640
  -7062386.31500  25205340.34300                  -5425893.42340  25205343.27240
  -3715449.35100  26975014.54600                  -2556452.21840  26975019.59740
  -4100057.34300  24634059.56100                  -2974557.07640  24634062.90140
    840163.04700  24200118.20200                    722644.53840  24200120.48740
 96  9  5  3 26 30.0110000  0  6  4 14 18 19 22 29
   2501423.39600  28047362.02200                   1007369.47040  28047365.53840
   1936796.99600  24424461.07700                   1577803.28040  24424465.14340
  -7090606.73700  25199969.98300                  -5447883.35240  25199972.97240
  -3756795.15200  26967147.83500                  -2588669.64040  26967151.80840
  -4039912.03800  24645505.17100                  -2927690.58640  24645508.30040
    882291.87900  24208135.16300                    755472.20040  24208137.40140
 96  9  5  3 27  0.0110000  0  6  4 14 18 19 22 29
   2552048.32000  28056994.99100                   1046817.45440  28056999.50340
   2036611.24600  24443454.78000                   1655580.60640  24443458.53040
  -7118753.87300  25194613.91300                  -5469816.17040  25194616.84340
  -3798036.02900  26959298.48300                  -2620805.27740  26959303.89740
  -3979232.55900  24657052.12400                  -2880407.86040  24657055.30040
    924592.54000  24216184.41300                    788433.75840  24216186.69840
 96  9  5  3 27 30.0120000  0  6  4 14 18 19 22 29
   2603123.92100  28066714.84000                   1086616.54040  28066720.14840
   2136938.72100  24462546.75400                   1733757.84040  24462550.66840
  -7146753.34000  25189285.97300                  -5491633.92240  25189288.80940
  -3839108.13500  26951483.55100                  -2652809.44540  26951487.50040
  -3917963.99400  24668711.18400                  -2832666.10640  24668714.24240
    967124.43600  24224277.98800                    821575.49740  24224280.25040
 96  9  5  3 28  0.0120000  0  6  4 14 18 19 22 29
   2654627.23000  28076515.74600                   1126748.99040  28076520.08240
   2237763.98000  24481733.12900                   1812322.96640  24481737.04340
  -7174606.93800  25183985.26900                  -5513338.00740  25183988.32840
  -3879998.11400  26943702.59000                  -2684671.65040  26943707.84040
  -3856129.72600  24680477.94900                  -2784483.54540  24680481.09040
   1009888.91200  24232416.04300                    854898.46440  24232418.38740
 96  9  5  3 28 30.0120000  0  6  4 14 18 19 22 29
   2706575.56100  28086400.57400                   1167228.20940  28086406.52740
   2339115.50500  24501019.64400                   1891298.16840  24501023.59440
  -7202274.87900  25178719.93400                  -5534897.42640  25178722.86340
  -3920677.75000  26935961.12900                  -2716370.00840  26935966.00440
  -3793716.03700  24692354.51900                  -2735849.49140  24692357.63740
   1052904.10800  24240601.53500                    888416.79640  24240603.83240
 96  9  5  3 29  0.0120000  0  6  4 14 18 19 22 29
   2758947.84200  28096366.85500                   1208037.78540  28096369.78540
   2440953.19900  24520398.71500                   1970652.20540  24520402.45340
  -7229766.50500  25173488.86300                  -5556319.45340  25173492.00440
  -3961179.28200  26928253.96500                  -2747929.54440  26928258.57040
  -3730736.05300  24704338.94900                  -2686774.15940  24704342.27740
   1096151.02600  24248830.97300                    922115.69440  24248833.24640
 96  9  5  3 29 30.0120000  0  6  4 14 18 19 22 29
   2811758.76900  28106416.00400                   1249189.16940  28106419.03940
   2543253.58200  24539865.73000                   2050366.77540  24539869.66840
  -7257098.53300  25168288.05100                  -5577617.11840  25168291.39140
  -4001508.30500  26920579.94100                  -2779354.66840  26920584.21940
  -3667185.76900  24716432.55100                  -2637254.44440  24716435.45740
   1139645.68200  24257107.72300                    956007.63740  24257109.97340
 96  9  5  3 30  0.0120000  0  6  4 14 18 19 22 29
   2865034.81300  28116554.87100                   1290702.94240  28116558.18740
   2646001.71600  24559418.37900                   2130430.24440  24559422.24640
  -7284280.78100  25163115.36300                  -5598798.08340  25163118.39840
  -4041662.98300  26912938.02700                  -2810643.96240  26912943.41840
  -3603048.89500  24728637.77700                  -2587277.64740  24728640.61340
   1183406.86200  24265435.16000                    990107.25140  24265437.37540
 96  9  5  3 30 30.0120000  0  6  4 14 18 19 22 29
   2918748.95200  28126776.30100                   1332558.07040  28126780.01640
   2749155.71300  24579047.62900                   2210809.97540  24579051.60140
  -7311347.26700  25157964.51200                  -5619888.83140  25157967.61740
  -4081696.38300  26905320.34000                  -2841838.74440  26905324.61740
  -3538347.24300  24740949.58200                  -2536860.76040  24740952.73440
   1227408.36200  24273808.42600                   1024394.13240  24273810.73440
 96  9  5  3 31  0.0120000  0  6  4 14 18 19 22 29
   2972939.21300  28137088.47300                   1374784.24640  28137092.83240
   2852741.14200  24598759.41800                   2291525.88740  24598763.16840
  -7338278.73300  25152839.15200                  -5640874.36940  25152842.29340
  -4121575.53300  26897731.09800                  -2872913.34040  26897736.18440
  -3473047.31800  24753375.81600                  -2485977.69740  24753378.94540
   1271699.22200  24282236.69900                   1058906.48740  24282238.98440
 96  9  5  3 31 30.0120000  0  6  4 14 18 19 22 29
   3027590.67500  28147489.35500                   1417369.74240  28147493.49240
   2956758.10600  24618553.10500                   2372578.05240  24618557.03140
  -7365086.95400  25147737.89400                  -5661763.86640  25147741.14140
  -4161293.16100  26890173.40200                  -2903862.08040  26890177.32840
  -3407156.84100  24765914.48800                  -2434634.45940  24765917.52340
   1316278.07100  24290719.94900                   1093643.25040  24290722.34040
 96  9  5  3 32  0.0120000  0  6  4 14 18 19 22 29
   3082697.99600  28157974.23800                   1460310.54440  28157977.14440
   3061220.63600  24638431.80900                   2453977.42340  24638435.47640
  -7391731.55100  25142667.91000                  -5682525.86640  25142670.85140
  -4200834.33900  26882648.74600                  -2934673.32340  26882653.84440
  -3340658.31100  24778568.61300                  -2382817.40840  24778571.85940
   1361148.26300  24299258.32400                   1128607.03940  24299260.55140
 96  9  5  3 32 30.0120000  0  6  4 14 18 19 22 29
   3138194.56700  28168535.65200                   1503554.60940  28168540.65640
   3166083.25700  24658386.51200                   2535688.54340  24658390.34440
  -7418238.43500  25137623.70700                  -5703180.55740  25137626.71940
  -4240244.26100  26875148.72300                  -2965382.29840  26875153.45740
  -3273615.16400  24791326.54300                  -2330575.97840  24791329.78940
   1406249.79000  24307840.90200                   1163751.08540  24307843.14140
 96  9  5  3 33  0.0120000  0  6  4 14 18 19 22 29
   3194051.64900  28179164.84800                   1547079.58040  28179169.10140
   3271336.08700  24678415.62100                   2617703.73040  24678419.17240
  -7444625.17600  25132602.22300                  -5723741.63140  25132605.34040
  -4279525.35800  26867673.29300                  -2995990.88340  26867679.29340
  -3206056.19200  24804182.43400                  -2277932.62240  24804185.52740
   1451550.56800  24316461.45700                   1199050.39240  24316463.69540
 96  9  5  3 33 30.0120000  0  6  4 14 18 19 22 29
   3250311.49200  28189869.79300                   1590918.39040  28189875.18440
   3377032.44800  24698529.03500                   2700064.51840  24698532.86740
  -7470839.60000  25127614.38700                  -5744168.43340  25127617.51640
  -4318629.27100  26860233.40200                  -3026461.43240  26860237.49240
  -3137936.19900  24817145.04300                  -2224852.09640  24817148.37140
   1497090.15200  24325126.98000                   1234535.78640  24325129.31240
 96  9  5  3 34  0.0120000  0  6  4 14 18 19 22 29
   3307008.02200  28200659.14400                   1635097.48840  28200661.94540
   3483199.05900  24718731.75400                   2782791.74140  24718735.65640
  -7496865.46500  25122661.53500                  -5764448.30140  25122664.54740
  -4357536.44500  26852829.02700                  -3056778.66440  26852833.85540
  -3069233.98000  24830219.09000                  -2171317.88140  24830222.17240
   1542886.02600  24333841.94100                   1270220.88640  24333844.23840
 96  9  5  3 34 30.0120000  0  6  4 14 18 19 22 29
   3364148.98400  28211532.73800                   1679622.88540  28211536.78140
   3589841.22900  24739025.06600                   2865889.52940  24739028.79340
  -7522732.96600  25117739.30100                  -5784604.77140  25117742.40640
  -4396244.91400  26845463.25400                  -3086941.05440  26845467.88340
  -2999957.14900  24843401.75400                  -2117335.93740  24843404.85940
   1588941.06900  24342606.02700                   1306107.93140  24342608.32440
 96  9  5  3 35  0.0120000  0  6  4 14 18 19 22 29
   3421744.65000  28222492.90200                   1724502.55040  28222497.67240
   3696967.98100  24759410.45700                   2949364.91240  24759414.52340
  -7548458.25800  25112843.39400                  -5804650.42540  25112846.54740
  -4434755.45000  26838135.01200                  -3116949.22040  26838140.33240
  -2930097.51200  24856695.85500                  -2062899.84140  24856699.09040
   1635262.72700  24351420.45700                   1342202.73640  24351422.73040
 96  9  5  3 35 30.0120000  0  6  4 14 18 19 22 29
   3479789.64200  28233538.62900                   1769732.45640  28233543.10540
   3804559.72400  24779884.57400                   3033202.62440  24779888.41840
  -7574060.10900  25107971.77700                  -5824599.90540  25107974.73040
  -4473095.45800  26830839.18400                  -3146824.51840  26830844.70340
  -2859668.64100  24870098.23000                  -2008020.18840  24870101.27740
   1681844.87400  24360284.89400                   1378500.52340  24360287.32040
 96  9  5  3 36  0.0120000  0  6  4 14 18 19 22 29
   3538287.80000  28244670.74600                   1815315.38840  28244673.20740
   3912619.23600  24800447.38700                   3117404.82440  24800451.24240
  -7599533.25300  25103124.44900                  -5844449.08840  25103127.35540
  -4511273.68800  26823573.10500                  -3176573.74840  26823578.22640
  -2788669.42700  24883608.53500                  -1952696.11240  24883611.66440
   1728686.70100  24369198.62100                   1415000.65140  24369200.85940
 96  9  5  3 36 30.0120000  0  6  4 14 18 19 22 29
   3597252.69900  28255890.95700                   1861262.00240  28255895.87940
   4021166.34500  24821103.29300                   3201986.97240  24821107.32440
  -7624843.33500  25098308.57400                  -5864171.21440  25098311.64440
  -4549271.52400  26816343.27700                  -3206182.41640  26816347.75440
  -2717082.77800  24897230.80900                  -1896914.29640  24897233.86740
   1775818.73200  24378167.52700                   1451726.91440  24378169.85940
 96  9  5  3 37  0.0120000  0  6  4 14 18 19 22 29
   3656667.47100  28267197.44100                   1907559.23640  28267201.36740
   4130171.98300  24841846.40200                   3286926.42440  24841850.44540
  -7649981.37200  25093524.55900                  -5883759.27640  25093527.61740
  -4587109.60300  26809142.51200                  -3235666.60140  26809147.51640
  -2644920.57500  24910963.21500                  -1840684.00440  24910966.18040
   1823223.13600  24387188.14400                   1488665.41440  24387190.48840
 96  9  5  3 37 30.0120000  0  6  4 14 18 19 22 29
   3716555.61200  28278594.10500                   1954225.30340  28278599.05140
   4239657.70100  24862680.93400                   3372239.95640  24862684.67240
  -7674899.57300  25088782.72300                  -5903176.04740  25088785.68740
  -4624740.39900  26801981.34000                  -3264989.27640  26801985.95740
  -2572153.90200  24924810.25400                  -1783982.69040  24924813.19540
   1870937.53900  24396267.88700                   1525845.47740  24396270.21940
 96  9  5  3 38  0.0120000  0  6  4 14 18 19 22 29
   3776839.15900  28290065.36300                   2001199.42740  28290071.36340
   4349534.56600  24883589.99600                   3457858.27140  24883593.82840
  -7699660.77900  25084070.84800                  -5922470.48340  25084073.70740
  -4662220.49800  26794849.43400                  -3294194.50840  26794854.21540
  -2498860.34000  24938757.21500                  -1726870.81740  24938760.23840
   1918887.65700  24405392.63700                   1563209.20940  24405395.00440
 96  9  5  3 38 30.0120000  0  6  4 14 18 19 22 29
   3837573.33700  28301622.97300                   2048524.78040  28301626.51240
   4459843.56100  24904580.88700                   3543813.31940  24904584.85940
  -7724200.66800  25079401.19100                  -5941592.46340  25079404.21540
  -4699477.79400  26787759.61300                  -3323226.12940  26787764.51240
  -2424991.40800  24952814.19900                  -1669310.59740  24952817.44540
   1967133.05200  24414573.34800                   1600803.02540  24414575.69140
 96  9  5  3 39  0.0120000  0  6  4 14 18 19 22 29
   3898696.67400  28313253.44900                   2096153.28940  28313257.68040
   4570519.16400  24925642.05100                   3630054.03340  24925645.64840
  -7748592.77800  25074758.90200                  -5960599.29040  25074761.85540
  -4736572.29400  26780700.79300                  -3352130.87740  26780706.09040
  -2350614.94600  24966967.37100                  -1611354.91040  24966970.59440
   2015605.79400  24423797.51200                   1638573.99740  24423799.75040
 96  9  5  3 39 30.0120000  0  6  4 14 18 19 22 29
   3960273.99200  28324971.65200                   2144135.61840  28324976.53940
   4681636.31800  24946786.24600                   3716638.82040  24946790.53540
  -7772777.22700  25070157.34000                  -5979444.30540  25070160.11740
  -4773431.12700  26773686.68400                  -3380852.01840  26773691.11340
  -2275665.01700  24981229.98800                  -1552952.36240  24981233.39840
   2064382.45500  24433079.41800                   1676581.78740  24433081.71540
 96  9  5  3 40  0.0120000  0  6  4 14 18 19 22 29
   4022333.16700  28336780.78500                   2192493.40540  28336785.47340
   4793213.33300  24968019.22300                   3803581.93940  24968022.92640
  -7796736.63500  25065597.84000                  -5998113.96140  25065600.84040
  -4810053.40500  26766718.34800                  -3409388.82840  26766722.70740
  -2200109.61700  24995607.84000                  -1494078.02140  24995610.94540
   2113479.47100  24442422.24600                   1714839.20640  24442424.49640
 96  9  5  3 40 30.0120000  0  6  4 14 18 19 22 29
   4084821.46200  28348671.76200                   2241185.49440  28348675.88740
   4905214.21600  24989332.05900                   3890855.34540  24989336.06640
  -7820524.96600  25061071.01200                  -6016650.31240  25061073.98840
  -4846507.64200  26759780.94900                  -3437794.67740  26759785.59040
  -2123988.78900  25010093.19900                  -1434763.08440  25010096.48040
   2162849.29200  24451816.75400                   1753309.19540  24451818.94540
 96  9  5  3 41  0.0120000  0  6  4 14 18 19 22 29
   4147718.91600  28360642.02700                   2290196.49540  28360645.80140
   5017635.23600  25010725.18400                   3978456.11940  25010729.16840
  -7844158.41000  25056573.73000                  -6035065.96940  25056576.82440
  -4882798.80500  26752874.61300                  -3466073.45940  26752879.47640
  -2047301.06700  25024686.29300                  -1375006.41640  25024689.29340
   2212484.23700  24461262.06600                   1791985.77640  24461264.39840
 96  9  5  3 41 30.0120000  0  6  4 14 18 19 22 29
   4211041.88500  28372691.71500                   2339539.00340  28372695.94540
   5130493.54600  25032201.59800                   4066397.64640  25032205.39440
  -7867601.61900  25052112.43400                  -6053333.38740  25052115.59840
  -4918902.69200  26746004.30100                  -3494206.30840  26746008.96540
  -1970021.29600  25039392.14400                  -1314788.40840  25039395.09840
   2262409.96900  24470762.73800                   1830888.94340  24470765.03540
 96  9  5  3 42  0.0120000  0  6  4 14 18 19 22 29
   4274762.87700  28384817.17600                   2389191.70140  28384821.34840
   5243771.70200  25053757.41000                   4154666.33340  25053761.47640
  -7890861.60700  25047686.22300                  -6071458.03040  25047689.24640
  -4954837.11400  26739166.16000                  -3522207.10740  26739170.90640
  -1892184.28800  25054204.00400                  -1254136.18540  25054207.00440
   2312602.49100  24480314.08200                   1870000.00140  24480316.44940
 96  9  5  3 42 30.0120000  0  6  4 14 18 19 22 29
   4338867.21500  28397016.44100                   2439143.12740  28397021.80940
   5357470.02800  25075393.81600                   4243262.41840  25075397.78940
  -7913950.11100  25043292.59000                  -6089449.05140  25043295.57840
  -4990594.50200  26732361.66800                  -3550069.95940  26732365.94540
  -1813817.72500  25069116.54300                  -1193071.32540  25069119.66040
   2363051.69900  24489914.18400                   1909311.07640  24489916.39840
 96  9  5  3 43  0.0120000  0  6  4 14 18 19 22 29
   4403377.77600  28409291.55100                   2489411.02840  28409299.01940
   5471605.99700  25097112.84800                   4332199.53540  25097116.55140
  -7936844.05200  25038936.48800                  -6107288.46140  25038939.64140
  -5026136.26200  26725598.19900                  -3577764.78540  26725602.25440
  -1734908.26600  25084132.62900                  -1131583.42040  25084135.86340
   2413778.69500  24499566.98000                   1948838.60840  24499569.23040
 96  9  5  3 43 30.0120000  0  6  4 14 18 19 22 29
   4468235.06400  28421634.09000                   2539949.12940  28421637.57040
   5586106.48800  25118901.89400                   4421420.68340  25118905.92640
  -7959609.24200  25034604.16800                  -6125027.54740  25034606.99240
  -5061541.53700  26718860.96500                  -3605353.25140  26718865.58240
  -1655530.80800  25099237.88700                  -1069730.84940  25099240.84040
   2464716.27200  24509260.42600                   1988530.22540  24509262.58240
 96  9  5  3 44  0.0120000  0  6  4 14 18 19 22 29
   4533495.93800  28434053.30900                   2590801.74940  28434056.64840
   5701020.38200  25140769.02700                   4510963.97240  25140772.59040
  -7982202.93600  25030304.82400                  -6142632.99940  25030307.73040
  -5096755.65700  26712159.82400                  -3632792.76640  26712164.25440
  -1575628.50700  25114442.41000                  -1007469.30440  25114445.77340
   2515913.72800  24519003.09800                   2028424.34840  24519005.33640
 96  9  5  3 44 30.0120000  0  6  4 14 18 19 22 29
   4599213.89600  28446558.36300                   2642010.51040  28446562.24240
   5816375.82700  25162720.62900                   4600851.31640  25162724.40240
  -8004587.32500  25026045.23000                  -6160075.35240  25026048.14840
  -5131733.94300  26705503.59000                  -3660048.52840  26705508.32440
  -1495130.60200  25129760.53500                   -944743.65040  25129763.82840
   2567430.00300  24528806.09800                   2068566.89740  24528808.39440
 96  9  5  3 45  0.0120000  0  6  4 14 18 19 22 29
   4665361.70100  28459147.16000                   2693554.21640  28459151.46140
   5932139.78600  25184749.91000                   4691056.99040  25184753.87140
  -8026775.48400  25021822.23800                  -6177364.79740  25021825.32040
  -5166506.19800  26698886.16000                  -3687143.73140  26698890.84840
  -1414052.57000  25145189.36300                   -881565.94440  25145192.52740
   2619259.50800  24538668.87900                   2108953.52040  24538671.04740
 96  9  5  3 45 30.0120000  0  6  4 14 18 19 22 29
   4731923.86100  28471812.07400                   2745420.75140  28471816.23440
   6048293.64900  25206852.92600                   4781566.48540  25206857.06240
  -8048771.21300  25017637.28500                  -6194504.30740  25017640.19140
  -5201092.15500  26692305.05100                  -3714093.77840  26692309.21140
  -1332405.13700  25160726.55100                   -817944.55940  25160729.41040
   2671404.51800  24548591.90200                   2149585.99540  24548594.08240
 96  9  5  3 46  0.0120000  0  6  4 14 18 19 22 29
   4798873.87900  28484552.23000                   2797589.58640  28484558.75840
   6164811.71100  25229025.55900                   4872359.76840  25229029.28540
  -8070598.59500  25013483.33200                  -6211512.63840  25013486.32040
  -5235519.35600  26685753.95700                  -3740920.11240  26685758.51640
  -1250215.55100  25176366.47300                   -753900.70940  25176369.61340
   2723839.04900  24558569.72300                   2190444.07140  24558572.06640
 96  9  5  3 46 30.0120000  0  6  4 14 18 19 22 29
   4866230.76300  28497370.12100                   2850075.44740  28497376.47340
   6281724.74800  25251274.05900                   4963460.81540  25251278.00840
  -8092223.04400  25009368.20700                  -6228362.83240  25009371.10140
  -5269762.48000  26679237.30100                  -3767603.01640  26679241.62540
  -1167466.11800  25192112.86300                   -689420.62540  25192115.86340
   2776588.18800  24568607.64400                   2231547.29640  24568609.95340
 96  9  5  3 47  0.0120000  0  6  4 14 18 19 22 29
   4933972.77000  28510261.70700                   2902861.42040  28510268.30540
   6399029.60500  25273595.70700                   5054867.19140  25273599.75040
  -8113647.25400  25005291.02700                  -6245057.00040  25005293.92240
  -5303832.50700  26672754.38700                  -3794151.03140  26672759.06240
  -1084194.91800  25207959.04300                   -624533.95840  25207962.23040
   2829615.79300  24578698.36300                   2272867.50340  24578700.73040
 96  9  5  3 47 30.0120000  0  6  4 14 18 19 22 29
   5002095.71000  28523224.52700                   2955944.17240  28523231.94940
   6516722.18100  25295992.00400                   5146575.68040  25295996.07040
  -8134873.01900  25001252.22300                  -6261596.54040  25001255.10540
  -5337745.21700  26666300.84000                  -3820576.47940  26666304.81240
  -1000405.71300  25223903.73800                   -559243.65740  25223906.70340
   2882890.36500  24588836.35500                   2314380.15340  24588838.51240
 96  9  5  3 48  0.0130000  0  6  4 14 18 19 22 29
   5070604.73500  28536261.71200                   3009327.76440  28536266.69240
   6634816.77900  25318464.92300                   5238597.43240  25318468.70840
  -8155895.27300  24997251.73500                  -6277977.50640  24997254.46640
  -5371487.93500  26659879.44600                  -3846869.44940  26659883.61840
   -916092.84500  25239947.53200                   -493545.30640  25239950.68440
   2936406.53700  24599020.04800                   2356081.06040  24599022.35640
 96  9  5  3 48 30.0130000  0  6  4 14 18 19 22 29
   5139469.11600  28549364.86000                   3062988.30540  28549368.01340
   6753298.81600  25341010.98500                   5330921.08040  25341015.05240
  -8176716.33100  24993289.78200                  -6294201.69040  24993292.63040
  -5405071.75800  26653489.36000                  -3873038.62840  26653494.20040
   -831281.83700  25256086.98500                   -427458.79340  25256090.16140
   2990148.71800  24609246.97000                   2397958.07940  24609249.02040
 96  9  5  3 49  0.0130000  0  6  4 14 18 19 22 29
   5208690.00700  28562537.72700                   3116926.63340  28562542.69640
   6872164.14900  25363630.30600                   5423543.41140  25363634.20840
  -8197350.67900  24989363.30600                  -6310280.39140  24989366.03640
  -5438514.05100  26647124.68800                  -3899097.48940  26647129.51740
   -745972.36600  25272320.88400                   -360983.87240  25272323.60240
   3044123.43100  24619517.82900                   2440016.29840  24619520.12640
 96  9  5  3 49 30.0130000  0  6  4 14 18 19 22 29
   5278328.48600  28575789.06300                   3171190.40040  28575793.32940
   6991455.18000  25386330.95400                   5516497.45340  25386334.84540
  -8217767.81400  24985478.32900                  -6326189.83240  24985481.05940
  -5471764.66000  26640797.46200                  -3925007.01940  26640802.03240
   -660111.55400  25288659.26700                   -294079.33140  25288662.30240
   3098405.76000  24629847.44600                   2482314.21740  24629849.61440
 96  9  5  3 50  0.0130000  0  6  4 14 18 19 22 29
   5348365.85800  28589118.00900                   3225764.95040  28589125.45440
   7111149.18300  25409108.14900                   5609765.49440  25409111.93440
  -8238003.03000  24981627.57900                  -6341957.52340  24981630.32140
  -5504827.38800  26634505.86000                  -3950770.12340  26634510.34940
   -573739.39600  25305095.39900                   -226776.33740  25305098.43440
   3153006.03500  24640237.49300                   2524859.88440  24640239.81340
 96  9  5  3 50 30.0130000  0  6  4 14 18 19 22 29
   5418835.86700  28602527.84500                   3280676.64040  28602535.07940
   7231271.76300  25431966.53200                   5703367.49440  25431970.27040
  -8258019.40600  24977818.82100                  -6357554.70040  24977821.58740
  -5537680.67400  26628254.04800                  -3976370.03240  26628258.77040
   -486831.31700  25321633.53200                   -159055.75440  25321636.69640
   3207965.96700  24650695.99300                   2567685.80540  24650698.19640
 96  9  5  3 51  0.0130000  0  6  4 14 18 19 22 29
   5489697.52800  28616013.07100                   3335893.39840  28616019.94240
   7351755.60500  25454893.86800                   5797250.99240  25454897.70040
  -8277867.50200  24974040.90700                  -6373020.74240  24974043.76740
  -5570359.74800  26622035.35200                  -4001834.19640  26622039.74740
   -399429.49700  25338265.69600                    -90950.43340  25338268.82540
   3263249.32600  24661216.22700                   2610763.74440  24661218.37240
 96  9  5  3 51 30.0130000  0  6  4 14 18 19 22 29
   5560906.05300  28629562.32100                   3391380.60740  28629566.56340
   7472561.20600  25477882.25900                   5891385.22440  25477886.39540
  -8297560.55000  24970293.75100                  -6388365.96440  24970296.50540
  -5602883.00900  26615846.61000                  -4027176.93740  26615850.98140
   -311574.01100  25354983.93100                    -22491.60940  25354987.11840
   3318816.55200  24671789.94600                   2654062.88440  24671792.25540
 96  9  5  3 52  0.0130000  0  6  4 14 18 19 22 29
   5632475.23200  28643181.56300                   3447148.74740  28643189.04440
   7593720.46500  25500938.29000                   5985795.02640  25500942.19240
  -8317044.09000  24966586.00900                  -6403547.93740  24966588.98540
  -5635211.51600  26609694.75100                  -4052367.94340  26609699.02840
   -223224.79700  25371795.96200                     46351.94240  25371799.46640
   3374674.69300  24682419.72000                   2697588.70740  24682422.13440
 96  9  5  3 52 30.0130000  0  6  4 14 18 19 22 29
   5704461.50300  28656879.73500                   3503241.96640  28656884.84540
   7715284.93600  25524071.08700                   6080520.57740  25524075.15340
  -8336238.85100  24962933.69600                  -6418504.88540  24962936.52040
  -5667275.92700  26603592.64900                  -4077353.13740  26603596.90340
   -134297.53700  25388718.80600                    115645.91140  25388722.12240
   3430863.34100  24693112.27400                   2741372.07340  24693114.47740
 96  9  5  3 53  0.0130000  0  6  4 14 18 19 22 29
   5776816.56100  28670649.93800                   3559622.43340  28670654.66140
   7837214.55700  25547273.40700                   6175530.67140  25547277.48540
  -8355191.58600  24959327.25900                  -6433273.24540  24959330.03640
  -5699095.35900  26597537.72700                  -4102147.45140  26597542.36840
    -44826.83100  25405744.00100                    185363.34940  25405747.00140
   3487331.87900  24703857.65700                   2785373.53040  24703860.02440
 96  9  5  3 53 30.0130000  0  6  4 14 18 19 22 29
   5849513.07300  28684482.45400                   3616269.05340  28684488.30240
   7959509.03000  25570545.43100                   6270825.05340  25570549.52040
  -8373923.44500  24955762.79000                  -6447869.48740  24955765.70840
  -5730687.46200  26591525.79800                  -4126764.62940  26591530.01740
     45154.96000  25422867.52400                    255479.03740  25422870.61840
   3544047.91000  24714650.18100                   2829567.84640  24714652.43140
 96  9  5  3 54  0.0130000  0  6  4 14 18 19 22 29
   5922514.35600  28698374.67300                   3673153.13840  28698379.50140
   8082126.14100  25593878.64900                   6366370.84440  25593882.62240
  -8392479.06800  24952231.46200                  -6462328.39840  24952234.41540
  -5762102.05700  26585548.17300                  -4151243.46840  26585552.46240
    135606.94200  25440079.76700                    325961.10540  25440082.73140
   3600988.87800  24725485.56300                   2873937.43840  24725487.79040
 96  9  5  3 54 30.0130000  0  6  4 14 18 19 22 29
   5995842.36700  28712328.24300                   3730291.75940  28712331.92340
   8205090.47400  25617278.04800                   6462187.20440  25617281.78640
  -8410846.06700  24948736.11000                  -6476640.33440  24948738.92340
  -5793345.17400  26579602.29800                  -4175588.70540  26579607.11440
    226534.37000  25457382.17300                    396813.65140  25457385.43140
   3658191.23100  24736371.11800                   2918510.70440  24736373.27440
 96  9  5  3 55  0.0130000  0  6  4 14 18 19 22 29
   6069579.92200  28726358.91500                   3787749.53440  28726366.52440
   8328502.99900  25640762.82100                   6558352.80140  25640766.70040
  -8428940.24500  24945293.01700                  -6490739.68340  24945295.94640
  -5824348.18800  26573702.11800                  -4199746.85140  26573706.33740
    318002.02400  25474788.19600                    468087.15140  25474791.54840
   3715745.76500  24747323.32100                   2963358.39640  24747325.58340
 96  9  5  3 55 30.0130000  0  6  4 14 18 19 22 29
   6143714.00600  28740467.35200                   3845516.30540  28740469.97740
   8452323.90000  25664325.01700                   6654836.61540  25664329.28240
  -8446782.07800  24941897.71200                  -6504642.39940  24941900.59540
  -5855169.83600  26567837.72000                  -4223763.67340  26567842.37240
    409986.43600  25492291.95400                    539763.31640  25492295.18840
   3773631.31500  24758338.68100                   3008464.02540  24758340.86040
 96  9  5  3 56  0.0130000  0  7  3  4 14 18 19 22 29
     -5824.51410  28778505.29800
   6218160.29300  28754634.50100                   3903526.40640  28754639.90340
   8576432.04600  25687942.11000                   6751544.24940  25687946.00140
  -8464466.85000  24938532.61000                  -6518422.72640  24938535.35240
  -5885924.57500  26561984.81300                  -4247728.35740  26561989.29040
    502411.99200  25509879.93800                    611783.23140  25509882.96240
   3831753.49700  24769398.68800                   3053754.03540  24769400.96240
 96  9  5  3 56 30.0130000  0  7  3  4 14 18 19 22 29
    -40750.36900  28771858.69600
   6293005.66500  28768877.15700                   3961847.44940  28768879.47740
   8700909.79300  25711629.02400                   6848539.88140  25711633.18440
  -8481912.94200  24935212.64900                  -6532017.06740  24935215.49740
  -5916518.06900  26556163.36000                  -4271567.39940  26556167.62640
    595366.12500  25527569.15700                    684215.02240  25527572.30940
   3890184.29200  24780517.90700                   3099284.52640  24780520.16940
 96  9  5  3 57  0.0130000  0  7  3  4 14 18 19 22 29
    -75585.53400  28765230.14900
   6368237.89400  28783192.61800                   4020469.97840  28783195.33740
   8825715.42300  25735378.79000                   6945791.00940  25735382.69240
  -8499137.18400  24931934.43100                  -6545438.54440  24931937.27840
  -5946945.15400  26550373.57900                  -4295276.77740  26550377.75140
    688842.74600  25545356.75900                    757053.94940  25545359.79440
   3948917.19500  24791694.54000                   3145050.41940  24791696.72040
 96  9  5  3 57 30.0130000  0  7  3  4 14 18 19 22 29
   -110383.79100  28758607.82900                    -16263.59250  28758610.87640
   6443804.00100  28797573.14200                   4079352.68840  28797577.92340
   8950784.32700  25759178.36800                   7043247.28740  25759182.17740
  -8516188.15200  24928690.28200                  -6558724.99840  24928693.01340
  -5977253.22200  26544605.79000                  -4318893.40040  26544610.54840
    782799.88600  25563236.54000                    830267.30840  25563239.61040
   4007918.02200  24802921.67300                   3191025.08940  24802924.11040
 96  9  5  3 58  0.0130000  0  7  3  4 14 18 19 22 29
   -145106.01300  28752000.04000                    -43319.85040  28752002.11440
   6519714.56900  28812017.54800                   4138503.73740  28812023.00940
   9076176.82000  25783040.36000                   7140955.71040  25783044.18140
  -8533021.75000  24925487.11800                  -6571842.06440  24925490.01340
  -6007383.19000  26538872.23500                  -4342371.26740  26538876.38440
    877257.93600  25581211.33700                    903870.98840  25581214.68840
   4067233.38100  24814209.05600                   3237244.84940  24814211.49340
 96  9  5  3 58 30.0130000  0  7  3  4 14 18 19 22 29
   -179695.52300  28745419.08700                    -70272.70140  28745422.76740
   6595997.81300  28826533.90700                   4197945.20440  28826541.61040
   9201959.02000  25806976.04800                   7238967.79640  25806980.02040
  -8549577.60800  24922336.36000                  -6584742.72540  24922339.18440
  -6037262.24900  26533186.36000                  -4365653.61140  26533190.88440
    972246.29800  25599286.84500                    977887.89740  25599289.84540
   4126925.03300  24825568.12600                   3283757.82440  24825570.39940
 96  9  5  3 59  0.0130000  0  6  3 14 18 19 22 29
   -214155.68200  28738860.24300                    -97124.74940  28738864.55640
   9328121.11000  25830983.65700                   7337275.90840  25830987.99340
  -8565860.03000  24919238.23500                  -6597430.31340  24919241.01340
  -6066906.69300  26527544.91500                  -4388753.13940  26527548.80640
   1067741.85200  25617458.97000                   1052300.01540  25617461.84140
   4186973.55500  24836995.25100                   3330548.87440  24836997.39540
 96  9  5  3 59 30.0130000  0  6  3 14 18 19 22 29
   -248520.57100  28732321.75900                   -123902.56240  28732326.02440
   9454643.66300  25855060.00900                   7435864.90940  25855063.91140
  -8581901.98900  24916185.23500                  -6609930.52940  24916188.15340
  -6096358.72900  26521940.31300                  -4411702.73540  26521944.43840
   1163697.56800  25635718.75900                   1127070.70240  25635721.70040
   4247326.35600  24848479.70400                   3377577.03140  24848481.98940
 96  9  5  4  0  0.0130000  0  6  3 14 18 19 22 29
   -282851.75100  28725788.07100                   -150654.10240  28725792.26740
   9581456.64600  25879191.76700                   7534680.21240  25879195.71640
  -8597775.95000  24913164.54000                  -6622299.83640  24913167.32940
  -6125667.49000  26516363.47000                  -4434540.69640  26516367.19640
   1260053.62300  25654054.23500                   1202153.34540  25654057.31740
   4307905.39200  24860007.61000                   3424781.47540  24860009.97740
 96  9  5  4  0 30.0130000  0  6  3 14 18 19 22 29
   -317037.69300  28719283.45400                   -177292.49540  28719288.44640
   9708638.08500  25903393.98500                   7633782.61340  25903397.77040
  -8613384.33300  24910194.17300                  -6634462.19940  24910197.02040
  -6154732.00300  26510832.51700                  -4457188.33340  26510836.51340
   1356918.82100  25672488.00100                   1277632.72540  25672491.00140
   4368798.23000  24871594.99300                   3472230.43840  24871597.06740
 96  9  5  4  1  0.0130000  0  6  3 14 18 19 22 29
   -351140.94300  28712793.47700                   -203866.40840  28712797.84940
   9836125.47600  25927653.73500                   7733123.43140  25927658.14240
  -8628786.78200  24907263.68800                  -6646464.09840  24907266.50140
  -6183625.77700  26505334.02400                  -4479702.92340  26505338.19640
   1454241.67100  25691007.69600                   1353468.71740  25691010.93140
   4429939.52000  24883230.09500                   3519872.99540  24883232.27440
 96  9  5  4  1 30.0130000  0  6  3 14 18 19 22 29
   -385099.01600  28706330.79000                   -230327.21640  28706334.70440
   9963988.99900  25951985.54000                   7832757.33140  25951989.50140
  -8643907.96500  24904385.89200                  -6658246.82640  24904388.63440
  -6212276.74200  26499882.03200                  -4502028.31340  26499886.07540
   1552095.90700  25709628.51700                   1429718.76840  25709631.73940
   4491409.79300  24894927.06300                   3567771.90840  24894929.37240
 96  9  5  4  2  0.0130000  0  6  3 14 18 19 22 29
   -418942.19100  28699891.53200                   -256698.43740  28699896.75940
  10092186.17800  25976380.61800                   7932651.22940  25976384.38040
  -8658773.01600  24901557.08700                  -6669829.96940  24901559.79440
  -6240718.47500  26494470.10200                  -4524190.66340  26494474.11040
   1650445.39200  25728343.84500                   1506354.73640  25728346.88040
   4553176.61600  24906681.24300                   3615901.90440  24906683.59940
 96  9  5  4  2 30.0130000  0  6  3 14 18 19 22 29
   -452631.09400  28693480.47700                   -282949.53440  28693485.04840
  10220753.26100  26000846.34500                   8032833.35640  26000850.44640
  -8673332.36600  24898786.61800                  -6681174.90740  24898789.31340
  -6268942.98800  26489098.74300                  -4546183.75740  26489102.99740
   1749302.55300  25747155.65700                   1583386.29040  25747158.65740
   4615276.00900  24918498.32900                   3664291.03640  24918500.67340
 96  9  5  4  3  0.0130000  0  6  3 14 18 19 22 29
   -486140.08000  28687103.37600                   -309060.42640  28687107.86440
  10349712.80500  26025386.39900                   8133321.30540  26025390.37240
  -8687563.31000  24896079.03200                  -6692263.94640  24896081.76340
  -6296930.34800  26483772.39900                  -4567992.04540  26483776.53640
   1848681.81900  25766066.94600                   1660824.67740  25766070.00540
   4677744.31600  24930385.54000                   3712967.63640  24930387.87240
 96  9  5  4  3 30.0130000  0  6  3 14 18 19 22 29
   -519508.40000  28680753.25900                   -335061.63840  28680757.37240
  10479004.78800  26049989.80600                   8234068.29540  26049994.07140
  -8701525.09500  24893421.89200                  -6703143.25040  24893424.71640
  -6324721.82100  26478484.25100                  -4589647.71440  26478488.54040
   1948533.68500  25785068.23500                   1738631.32540  25785071.21240
   4740541.01100  24942335.25100                   3761900.12640  24942337.67740
 96  9  5  4  4  0.0130000  0  6  3 14 18 19 22 29
   -552792.57100  28674420.60200                   -360997.33240  28674425.65340
  10608557.94800  26074642.81300                   8335018.79840  26074646.63440
  -8715289.46600  24890802.36800                  -6713868.72340  24890805.09940
  -6352377.65900  26473221.54000                  -4611197.67040  26473225.58340
   2048798.02600  25804147.83700                   1816759.38540  25804151.17740
   4803606.68600  24954336.39200                   3811042.21040  24954338.77040
 96  9  5  4  4 30.0130000  0  6  3 14 18 19 22 29
   -585914.88400  28668116.42300                   -386806.89440  28668120.57140
  10738448.08700  26099360.35200                   8436231.87940  26099364.19640
  -8728787.74300  24888234.03200                  -6724386.84840  24888236.76340
  -6379823.46000  26467998.59500                  -4632583.97540  26468002.97740
   2149542.27300  25823319.04000                   1895261.38840  25823322.19240
   4867012.28900  24966402.10200                   3860449.16740  24966404.44640
 96  9  5  4  5  0.0130000  0  6  3 14 18 19 22 29
   -618890.66800  28661842.13400                   -412502.31240  28661845.52040
  10868662.07300  26124138.93100                   8537697.31840  26124142.93840
  -8742047.06200  24885710.39900                  -6734718.77140  24885713.07140
  -6407046.30500  26462818.22700                  -4653796.55340  26462822.27040
   2250763.36800  25842580.68800                   1974134.97640  25842583.58340
   4930751.70900  24978531.25100                   3910116.24340  24978533.57140
 96  9  5  4  5 30.0130000  0  6  3 14 18 19 22 29
   -651711.76200  28655596.12600                   -438077.12540  28655602.09140
  10999206.57400  26148980.68100                   8639420.31240  26148984.63040
  -8755049.85600  24883236.30600                  -6744850.80540  24883239.10640
  -6434040.23100  26457681.13400                  -4674830.74040  26457684.82540
   2352470.47800  25861934.72000                   2053387.26940  25861937.48540
   4994820.39000  24990723.09500                   3960039.89140  24990725.47440
 96  9  5  4  6  0.0130000  0  6  3 14 18 19 22 29
   -684367.47100  28649382.08700                   -463523.13540  28649386.14240
  11130080.61900  26173885.37600                   8741400.06540  26173889.27840
  -8767774.54700  24880815.07100                  -6754766.13840  24880817.79040
  -6460805.93300  26452587.77400                  -4695687.09240  26452591.74740
   2454654.24000  25881379.74300                   2133010.97540  25881382.64940
   5059213.38200  25002976.76700                   4010216.24140  25002979.12240
 96  9  5  4  6 30.0130000  0  6  3 14 18 19 22 29
   -716830.73200  28643204.50900                   -488819.15140  28643206.81740
  11261298.38600  26198855.29000                   8843647.67040  26198859.12240
  -8780200.85600  24878450.24300                  -6764448.96740  24878452.95040
  -6487324.12000  26447542.14200                  -4716350.58240  26447546.34940
   2557319.71000  25900916.22700                   2213010.04540  25900918.94640
   5123954.93400  25015296.79800                   4060664.20240  25015299.15340
 96  9  5  4  7  0.0130000  0  6  3 14 18 19 22 29
   -749123.41300  28637059.68800                   -513982.27640  28637062.80640
  11392820.27300  26223882.95400                   8946132.26840  26223886.97440
  -8792353.46800  24876137.25100                  -6773918.51940  24876139.99340
  -6513618.29000  26442538.28200                  -4736839.51140  26442542.02040
   2660447.92100  25920541.03200                   2293369.69540  25920543.64540
   5189028.47500  25027679.61000                   4111370.85540  25027681.87240
 96  9  5  4  7 30.0130000  0  6  3 14 18 19 22 29
   -781225.29500  28630950.89900                   -538996.70440  28630952.65740
  11524652.08000  26248969.97000                   9048858.32940  26248974.35240
  -8804197.22400  24873883.99300                  -6783147.40640  24873886.82940
  -6539697.05800  26437575.48500                  -4757160.58740  26437579.43440
   2764056.78500  25940256.94600                   2374103.87640  25940260.05240
   5254441.32800  25040127.25900                   4162341.90640  25040129.50940
 96  9  5  4  8  0.0130000  0  6  3 14 18 19 22 29
   -813128.02000  28624879.29000                   -563855.92040  28624882.72440
  11656812.56700  26274119.35200                   9151840.53340  26274122.93840
  -8815730.06600  24871689.33700                  -6792134.02940  24871692.05640
  -6565556.56300  26432654.86800                  -4777310.82540  26432658.87640
   2868150.94400  25960065.25900                   2455216.20540  25960068.25940
   5320211.12600  25052642.87600                   4213591.09540  25052645.19640
 96  9  5  4  8 30.0130000  0  6  3 14 18 19 22 29
   -844888.63000  28618836.11800                   -588604.46640  28618841.16940
  11789253.51000  26299321.66500                   9255041.27140  26299326.00140
  -8827015.02400  24869541.50100                  -6800927.49640  24869544.32540
  -6591250.53500  26427765.60200                  -4797332.07340  26427769.43440
   2972686.17400  25979957.82100                   2536672.22240  25979960.86840
   5386278.92500  25065215.00100                   4265072.49640  25065217.27440
 96  9  5  4  9  0.0130000  0  6  3 14 18 19 22 29
   -876522.11900  28612816.57900                   -613253.91140  28612820.34140
  11921960.05200  26324574.89900                   9358448.96340  26324578.91940
  -8838051.68700  24867441.29800                  -6809527.48240  24867444.12240
  -6616802.85400  26422903.28200                  -4817242.93240  26422906.93840
   3077658.65300  25999933.43100                   2618468.96140  25999936.36040
   5452631.47100  25077841.59500                   4316775.77640  25077844.05640
 96  9  5  4  9 30.0140000  0  6  3 14 18 19 22 29
   -908000.64800  28606826.37300                   -637782.56840  28606830.82640
  12054966.37800  26349885.42000                   9462090.26340  26349889.59240
  -8848805.66700  24865395.13900                  -6817907.19740  24865397.88140
  -6642176.13500  26418073.97500                  -4837014.28240  26418078.02940
   3183088.15000  26019995.86500                   2700621.81540  26019998.63140
   5519301.79000  25090528.65400                   4368726.66840  25090530.90440
 96  9  5  4 10  0.0140000  0  6  3 14 18 19 22 29
   -939322.50200  28600864.95900                   -662189.16740  28600870.39640
  12188250.28000  26375248.24800                   9565947.85240  26375252.26740
  -8859304.62700  24863397.23200                  -6826088.19340  24863399.95140
  -6667353.30900  26413283.13900                  -4856632.83440  26413287.29940
   3288945.37500  26040139.77900                   2783107.96040  26040142.67440
   5586285.92400  25103275.35700                   4420922.09340  25103277.71340
 96  9  5  4 10 30.0140000  0  6  3 14 18 19 22 29
   -970449.14600  28594942.03700                   -686443.66640  28594946.23240
  12321816.89100  26400665.10700                   9670025.73940  26400669.57240
  -8869516.54500  24861453.90400                  -6834045.52040  24861456.67040
  -6692296.19100  26408536.50600                  -4876068.80840  26408540.54940
   3395264.67900  26060372.13900                   2865954.16840  26060375.13940
   5653623.97900  25116089.38900                   4473393.29840  25116091.39240
 96  9  5  4 11  0.0140000  0  6  3 14 18 19 22 29
  -1001406.27900  28589050.93500                   -710566.02740  28589055.61140
  12455644.58000  26426131.99800                   9774307.04640  26426136.12340
  -8879454.64300  24859562.74000                  -6841789.48240  24859565.43540
  -6717024.56500  26403831.27900                  -4895337.63540  26403834.94740
   3502009.90200  26080684.40400                   2949132.25340  26080687.74440
   5721306.46900  25128968.60000                   4526132.89640  25128970.96740
 96  9  5  4 11 30.0140000  0  6  3 14 18 19 22 29
  -1032181.29500  28583195.44300                   -734546.57640  28583198.15040
  12589745.59400  26451650.22500                   9878801.36440  26451653.91640
  -8889124.88900  24857722.47500                  -6849324.72440  24857725.22840
  -6741525.79900  26399168.78700                  -4914429.46340  26399172.66640
   3609183.40300  26101078.95100                   3032644.07340  26101081.93940
   5789332.27500  25141913.63900                   4579140.01640  25141915.95940
 96  9  5  4 12  0.0140000  0  6  3 14 18 19 22 29
  -1062754.18800  28577376.85000                   -758369.55840  28577380.48240
  12724139.90900  26477224.71700                   9983524.18940  26477228.98240
  -8898511.12900  24855936.53700                  -6856638.66740  24855939.31440
  -6765817.29900  26394545.90400                  -4933357.87040  26394549.84240
   3716793.95100  26121556.60700                   3116496.44640  26121559.47840
   5857697.31100  25154923.25600                   4632411.47040  25154925.60040
 96  9  5  4 12 30.0140000  0  7  3 14 18 19 22 28 29
  -1093149.03000  28571593.91200                   -782053.83140  28571598.20140
  12858817.56700  26502853.01400                  10088467.81240  26502856.82240
  -8907612.84400  24854204.27900                  -6863730.90340  24854207.08040
  -6789933.98400  26389956.32600                  -4952150.06440  26389960.39240
   3824821.37100  26142113.88900                   3200673.65640  26142117.34640
      7406.87310  28951987.20900                      5771.13410  28951990.76000
   5926366.51400  25167990.45900                   4685919.93840  25167992.81440
 96  9  5  4 13  0.0140000  0  7  3 14 18 19 22 28 29
  -1123333.55800  28565849.86500                   -805574.23440  28565854.75240
  12993834.54700  26528546.19300                  10193675.87440  26528549.93240
  -8916388.93000  24852534.41200                  -6870569.39840  24852537.21340
  -6813843.79400  26385406.79500                  -4970781.04440  26385410.72140
   3933288.61400  26162754.49000                   3285193.58440  26162757.60740
     27948.17500  28955897.13900                     21777.38400  28955900.05700
   5995359.68400  25181119.56800                   4739680.84940  25181121.78340
 96  9  5  4 13 30.0140000  0  7  3 14 18 19 22 28 29
  -1153293.00500  28560148.35700                   -828919.20940  28560153.37340
  13129175.82800  26554300.27900                  10299136.59440  26554304.39240
  -8924845.11400  24850925.51400                  -6877158.63040  24850928.24440
  -6837551.71900  26380895.49800                  -4989254.71940  26380899.52940
   4042194.63600  26183478.70100                   3370055.41840  26183481.64240
     48971.14000  28959896.87300                     38158.93300  28959899.76000
   6064658.15900  25194306.61500                   4793679.66040  25194309.08840
 96  9  5  4 14  0.0140000  0  7  3 14 18 19 22 28 29
  -1183090.80100  28554478.20900                   -852138.26940  28554481.42040
  13264779.87200  26580105.03700                  10404802.09440  26580108.84640
  -8933023.04600  24849368.95900                  -6883531.03040  24849371.67840
  -6861102.51100  26376413.67000                  -5007605.95040  26376417.15040
   4151484.59600  26204275.67000                   3455216.42340  26204278.64640
     70428.17300  28963981.25600                     54878.72800  28963983.29500
   6134211.06900  25207541.85700                   4847876.73040  25207544.09640
 96  9  5  4 14 30.0140000  0  7  3 14 18 19 22 28 29
  -1212697.78700  28548844.05300                   -875208.59940  28548849.53740
  13400670.57200  26605964.35000                  10510690.93540  26605968.22840
  -8940891.03000  24847871.43500                  -6889661.92140  24847874.13140
  -6884435.48900  26371973.59200                  -5025787.45840  26371977.33040
   4261204.73300  26225153.96700                   3540712.64340  26225157.57640
     92358.08000  28968153.07600                     71966.98700  28968156.52100
   6204078.48600  25220837.33400                   4902318.86640  25220839.46740
 96  9  5  4 15  0.0140000  0  7  3 14 18 19 22 28 29
  -1242080.99400  28543252.11500                   -898104.56140  28543256.05340
  13536858.51700  26631879.90400                  10616811.42040  26631883.22140
  -8948426.66800  24846437.84200                  -6895533.84040  24846440.64240
  -6907523.94400  26367580.13900                  -5043778.41940  26367583.88940
   4371381.04200  26246120.39600                   3626564.30440  26246123.49040
    114785.16600  28972420.51400                     89442.67300  28972423.90000
   6274306.83500  25234201.31800                   4957042.25340  25234203.67440
 96  9  5  4 15 30.0140000  0  7  3 14 18 19 22 28 29
  -1271267.48000  28537698.60700                   -920847.24540  28537702.70940
  13673300.54000  26657843.84200                  10723129.88040  26657847.86140
  -8955656.20100  24845061.92800                  -6901167.23740  24845064.76440
  -6930394.91000  26363227.70100                  -5061599.91240  26363231.34640
   4481994.91800  26267169.70100                   3712756.94140  26267172.57240
    137688.67500  28976779.77100                    107289.56300  28976782.52500
   6344889.93400  25247632.80300                   5012042.07240  25247635.07640
 96  9  5  4 16  0.0140000  0  7  3 14 18 19 22 28 29
  -1300289.33300  28532175.24800                   -943461.67540  28532178.41240
  13809966.06800  26683850.98200                  10829622.49240  26683854.88540
  -8962603.53700  24843739.98200                  -6906580.73940  24843742.70140
  -6953069.80100  26358912.88900                  -5079268.61940  26358916.58040
   4593007.38600  26288294.92000                   3799260.16840  26288297.77940
    161037.35800  28981222.41200                    125483.37800  28981225.01400
   6415827.98900  25261132.00600                   5067318.47840  25261134.50240
 96  9  5  4 16 30.0140000  0  7  3 14 18 19 22 28 29
  -1329062.49000  28526700.02100                   -965882.23840  28526702.89240
  13946916.01400  26709911.18500                  10936336.74540  26709914.95940
  -8969219.28500  24842480.99000                  -6911735.86340  24842483.65040
  -6975497.69000  26354644.68500                  -5096744.87540  26354648.68240
   4704468.90400  26309505.27100                   3886113.29840  26309508.11940
    184891.71800  28985761.99000                    144071.20800  28985765.04900
   6487178.05800  25274709.28700                   5122915.93240  25274711.65440
 96  9  5  4 17  0.0140000  0  7  3 14 18 19 22 28 29
  -1357643.39200  28521261.46700                   -988153.05440  28521264.36140
  14084081.39200  26736012.96700                  11043218.86640  26736016.82240
  -8975572.27500  24841271.95100                  -6916686.23540  24841274.82240
  -6997749.40200  26350410.85000                  -5114083.83440  26350414.62340
   4816303.55800  26330786.69300                   3973257.19340  26330789.85740
    209189.79000  28990386.08400                    163004.77700  28990388.87300
   6558859.38800  25288349.99800                   5178771.51040  25288352.34240
 96  9  5  4 17 30.0140000  0  7  3 14 18 19 22 28 29
  -1385983.76200  28515868.44300                  -1010236.40440  28515875.12340
  14221515.13000  26762165.81800                  11150310.08640  26762169.97840
  -8981616.58900  24840121.79500                  -6921396.09240  24840124.52540
  -7019770.82600  26346220.34200                  -5131243.35940  26346223.97540
   4928557.06000  26352147.14600                   4060727.47340  26352150.63940
    233981.76800  28995103.66200                    182323.22800  28995106.48600
   6630905.90100  25302060.10700                   5234911.64540  25302062.34640
 96  9  5  4 18  0.0140000  0  7  3 14 18 19 22 28 29
  -1414094.91800  28510519.42800                  -1032141.16540  28510522.59240
  14359203.21500  26788366.89600                  11257599.50740  26788371.40840
  -8987372.54800  24839026.45100                  -6925881.24740  24839029.25240
  -7041586.22800  26342068.80300                  -5148242.35040  26342072.64640
   5041208.58100  26373584.29500                   4148507.87640  26373587.30740
    259252.82300  28999912.04500                    202014.96600  28999915.24800
   6703271.43400  25315830.56000                   5291300.37340  25315833.03340
 96  9  5  4 18 30.0140000  0  7  3 14 18 19 22 28 29
  -1441980.63300  28505213.32600                  -1053870.27040  28505218.47140
  14497139.07200  26814615.35700                  11365081.99040  26814619.34240
  -8992838.07400  24837986.55300                  -6930140.09740  24837989.35340
  -7063217.99600  26337952.31000                  -5165098.25040  26337956.23640
   5154258.67300  26395097.28700                   4236598.86540  26395100.94340
    285001.29400  29004812.34200                    222078.71800  29004814.95500
   6775930.17100  25329656.73200                   5347917.57340  25329658.83040
 96  9  5  4 19  0.0140000  0  7  3 14 18 19 22 28 29
  -1469685.37000  28499940.99000                  -1075458.33340  28499945.92440
  14635275.51900  26840901.31800                  11472720.79840  26840905.03340
  -8998034.16100  24836997.42800                  -6934188.99240  24837000.21740
  -7084699.97400  26333864.56000                  -5181837.43140  26333868.65040
   5267669.19700  26416678.52900                   4324970.70540  26416681.55340
    311191.27900  29009795.67000                    242486.54200  29009799.08400
   6848851.93400  25343533.74000                   5404739.72340  25343535.74440
 96  9  5  4 19 30.0140000  0  7  3 14 18 19 22 28 29
  -1497152.25600  28494712.88900                  -1096861.03240  28494717.15440
  14773664.39600  26867236.70100                  11580556.27740  26867240.88540
  -9002900.87300  24836071.74800                  -6937981.22840  24836074.46740
  -7105979.94800  26329814.95900                  -5198419.20540  26329819.07240
   5381484.99100  26438336.99800                   4413658.34040  26438339.97540
    337871.16200  29014872.73200                    263276.05400  29014875.17800
   6922081.78400  25357468.81800                   5461801.94440  25357471.13940
 96  9  5  4 20  0.0140000  0  7  3 14 18 19 22 28 29
  -1524363.70300  28489535.70100                  -1118064.76540  28489538.54940
  14912311.10400  26893620.10700                  11688592.68740  26893623.96340
  -9007427.53900  24835210.41200                  -6941508.49640  24835213.15440
  -7127044.64300  26325807.00600                  -5214833.22840  26325811.06040
   5495705.66600  26460072.76400                   4502661.47040  26460075.60040
    365054.45200  29020046.13900                    284457.89000  29020048.20900
   6995634.27800  25371465.50600                   5519115.57540  25371467.67440
 96  9  5  4 20 30.0140000  0  8  3 14 18 19 22 27 28 29
  -1551317.13400  28484406.01400                  -1139067.36440  28484410.26740
  15051204.92400  26920050.54500                  11796821.65540  26920054.33040
  -9011619.56400  24834412.74000                  -6944774.99840  24834415.44740
  -7147883.42100  26321841.11500                  -5231071.21140  26321844.81840
   5610328.07600  26481884.32600                   4591977.63240  26481887.60740
     -7509.30110  29373877.00600
    392736.18000  29025313.05300                    306028.08300  29025315.96700
   7069533.24600  25385527.96700                   5576699.17840  25385530.14640
 96  9  5  4 21  0.0140000  0  8  3 14 18 19 22 27 28 29
  -1578062.91000  28479316.78700                  -1159908.21740  28479319.65840
  15190295.97000  26946518.36500                  11905204.27640  26946522.84240
  -9015537.35900  24833667.00600                  -6947827.81240  24833669.70140
  -7168528.04700  26317912.35700                  -5247157.91040  26317916.27140
   5725311.42100  26503765.20900                   4681575.05740  26503768.06840
                  29365305.75600
    420867.17100  29030666.58400                    327948.36500  29030669.32200
   7143740.14000  25399649.09200                   5634522.73040  25399651.26040
 96  9  5  4 21 30.0140000  0  8  3 14 18 19 22 27 28 29
  -1604529.72900  28474278.82600                  -1180531.65940  28474282.47140
  15329652.93000  26973037.65400                  12013794.13440  26973041.28740
  -9019109.68100  24832987.35700                  -6950611.42740  24832989.98240
  -7188910.54700  26314033.82600                  -5263040.34840  26314037.70540
   5840723.74100  26525727.10700                   4771506.73740  26525730.17840
     -7488.29710  29356750.63100
    449518.03200  29036118.89600                    350273.73700  29036121.12700
   7218334.00900  25413843.90400                   5692647.82040  25413846.06040
 96  9  5  4 22  0.0140000  0  8  3 14 18 19 22 27 28 29
  -1630776.85100  28469285.35000                  -1200983.94240  28469289.53340
  15469206.53400  26999593.66200                  12122537.22040  26999597.69340
  -9022395.00000  24832361.98200                  -6953171.40140  24832364.79540
  -7209094.84500  26310192.89600                  -5278768.34540  26310197.16240
   5956511.06300  26547760.81800                   4861730.62440  26547763.85340
                  29348201.26400
    478633.19600  29041658.75600                    372960.90100  29041661.79500
   7293278.22000  25428105.33400                   5751045.90340  25428107.57240
 96  9  5  4 22 30.0140000  0  8  3 14 18 19 22 27 28 29
  -1656823.79300  28464329.13900                  -1221280.23040  28464333.20540
  15608933.73800  27026183.06000                  12231415.56040  27026186.96340
  -9025400.76200  24831789.92000                  -6955513.53540  24831792.59240
  -7229106.70200  26306384.52100                  -5294361.98140  26306388.41240
   6072659.78600  26569863.03700                   4952236.12740  26569866.13140
    -43420.83000  29339652.42800
    508190.99700  29047283.42800                    395992.95600  29047285.68200
   7368557.87200  25442430.40400                   5809705.37240  25442432.78340
 96  9  5  4 23  0.0140000  0  8  3 14 18 19 22 27 28 29
  -1682617.11200  28459420.17000                  -1241378.88940  28459424.35340
  15748881.19400  27052813.91200                  12340465.54140  27052817.66240
  -9028067.82400  24831282.16200                  -6957591.75440  24831284.93940
  -7248911.75200  26302615.74800                  -5309794.46040  26302619.39240
   6189195.37100  26592039.24800                   5043043.07340  26592042.44740
    -16441.30910  29331117.87300
    538239.05900  29053000.68500                    419407.03600  29053004.60300
   7444189.44300  25456822.56000                   5868639.05840  25456824.96340
 96  9  5  4 23 30.0140000  0  8  3 14 18 19 22 27 28 29
  -1708085.64000  28454573.72500                  -1261224.50140  28454577.80340
  15889097.04000  27079496.14600                  12449724.64340  27079499.94340
  -9030328.07300  24830852.27900                  -6959352.96940  24830854.98640
  -7268454.82300  26298896.61500                  -5325022.80340  26298900.20140
   6306157.43100  26614295.79500                   5134182.32940  26614299.00640
    -61162.48100  29322606.12300
    568836.96700  29058824.38100                    443249.59900  29058827.40400
   7520214.61300  25471290.19300                   5927879.45040  25471292.36140
 96  9  5  4 24  0.0140000  0  8  3 14 18 19 22 27 28 29
  -1733253.59100  28449784.95100                  -1280835.81540  28449788.46740
  16029555.94200  27106224.35700                  12559173.14340  27106229.01040
  -9032214.09600  24830493.60700                  -6960822.58740  24830496.26740
  -7287770.22900  26295221.16200                  -5340073.75140  26295224.68940
   6423516.78300  26636629.09200                   5225631.17340  26636632.27940
   -105780.99700  29314115.58400
    599957.90900  29064747.02100                    467499.67200  29064749.83800
   7596585.62800  25485822.50600                   5987389.32540  25485824.73240
 96  9  5  4 24 30.0140000  0  8  3 14 18 19 22 27 28 29
  -1758093.84100  28445057.35000                  -1300191.84840  28445060.77140
  16170293.48900  27133005.95900                  12668838.77540  27133009.59240
  -9033695.80700  24830211.55300                  -6961977.15640  24830214.24840
  -7306834.10300  26291593.27900                  -5354928.68840  26291596.95940
   6541283.73900  26659039.17000                   5317397.64040  26659041.94740
   -150266.73500  29305651.70100
    631626.25400  29070772.40400                    492176.32600  29070774.83000
   7673307.08300  25500422.17800                   6047172.28040  25500424.61540
 96  9  5  4 25  0.0140000  0  8  3 14 18 19 22 27 28 29
  -1782626.60000  28440389.37300                  -1319308.18940  28440393.15840
  16311289.88500  27159836.51400                  12778706.10440  27159840.24040
  -9034802.68900  24830000.91200                  -6962839.64740  24830003.76040
  -7325665.55100  26288010.15400                  -5369602.52340  26288013.68240
   6659435.60800  26681523.12300                   5409464.01940  26681526.60340
   -194629.33300  29297209.08400
    663824.22100  29076898.84200                    517265.66900  29076902.93900
   7750366.54800  25515086.48200                   6107218.61740  25515088.76740
 96  9  5  4 25 30.0140000  0  8  3 14 18 19 22 27 28 29
  -1806893.03600  28435770.67000                  -1338217.09840  28435773.57640
  16452519.05600  27186711.87300                  12888754.81540  27186715.99840
  -9035570.62200  24829854.81800                  -6963438.03240  24829857.46740
  -7344287.09800  26284466.52900                  -5384112.80040  26284470.19740
   6777961.46300  26704077.32600                   5501821.82040  26704080.70140
   -238898.29900  29288784.45900
    696530.05700  29083123.46700                    542750.75000  29083125.74400
   7827778.28500  25529817.38100                   6167539.44440  25529819.87740
 96  9  5  4 26  0.0140000  0  8  3 14 18 19 22 27 28 29
  -1830917.25800  28431200.10700                  -1356937.28040  28431202.83840
  16593973.72900  27213629.77100                  12998979.23040  27213633.62740
  -9036024.69000  24829768.40400                  -6963791.84440  24829771.11140
  -7362726.40700  26280957.61500                  -5398481.06840  26280961.52940
   6896839.60500  26726699.45900                   5594454.13540  26726702.52940
   -283094.27700  29280374.70100                    -32141.08650  29280373.60040
    729724.90000  29089439.73200                    568616.85900  29089442.89600
   7905545.84200  25544615.61500                   6228137.53440  25544617.79540
 96  9  5  4 26 30.0140000  0  8  3 14 18 19 22 27 28 29
  -1854678.33200  28426678.59200                  -1375452.36540  28426684.58040
  16735670.07700  27240593.21700                  13109392.00540  27240597.18940
  -9036146.37600  24829744.89600                  -6963886.66040  24829747.59240
  -7380952.96600  26277489.41200                  -5412683.55740  26277493.24440
   7016091.23300  26749392.03700                   5687377.48040  26749395.07240
   -327200.92000  29271980.76400
    763431.26600  29095854.63100                    594881.60100  29095856.76000
   7983700.97800  25559487.99800                   6289037.63840  25559490.31840
 96  9  5  4 27  0.0140000  0  9  3 14 18 19 22 27 28 29 31
  -1878201.07900  28422202.15400                  -1393781.70540  28422206.51440
  16877571.17200  27267596.18500                  13219964.29140  27267600.65040
  -9035970.47200  24829778.20100                  -6963749.58640  24829780.94340
  -7398992.80500  26274056.16200                  -5426740.55540  26274059.45540
   7135704.38400  26772153.94300                   5780582.53240  26772157.14240
   -371252.56400  29263597.26400
    797628.85000  29102361.97500                    621529.09000  29102363.90400
   8062225.16800  25574430.85700                   6350225.32240  25574433.14240
     -8992.40110  29048531.65400
 96  9  5  4 27 30.0140000  0  9  3 14 18 19 22 27 28 29 31
  -1901468.89900  28417773.85000                  -1411912.44140  28417778.87740
  17019672.66500  27294637.06800                  13330692.73340  27294641.94340
  -9035475.42700  24829872.87300                  -6963363.83440  24829875.65040
  -7416838.71900  26270660.40400                  -5440646.44040  26270664.20140
   7255674.14600  26794983.09200                   5874065.45340  26794986.24440
   -415252.36600  29255226.07600                     -1142.19850  29255225.99440
    832322.98700  29108963.15400                    648563.50000  29108966.33800
   8141100.83900  25589440.52100                   6411686.88440  25589442.72540
    -62974.37100  29038257.77900
 96  9  5  4 28  0.0140000  0  9  3 14 18 19 22 27 28 29 31
  -1924394.67100  28413411.92800                  -1429776.67040  28413414.11940
  17162024.76400  27321726.22500                  13441616.45340  27321730.33840
  -9034579.63100  24830043.53700                  -6962665.80940  24830046.13940
  -7434421.87100  26267314.07600                  -5454347.57540  26267318.01440
   7376053.87000  26817891.04500                   5967867.83440  26817894.01040
   -459135.53000  29246874.63100                    -35336.87640  29246878.19340
    867571.60800  29115670.99800                    676029.96200  29115673.90000
   8220353.99100  25604521.79500                   6473442.58740  25604523.77540
   -116935.00900  29027988.42800
 96  9  5  4 28 30.0140000  0  9  3 14 18 19 22 27 28 29 31
  -1947031.82500  28409104.13900                  -1447415.95040  28409108.19340
  17304555.19900  27348848.42000                  13552679.14240  27348852.40440
  -9033322.14700  24830282.52100                  -6961685.94540  24830285.17040
  -7451787.24300  26264009.55300                  -5467879.01140  26264013.26740
   7496793.78100  26840866.78700                   6061950.87940  26840869.62340
   -502957.16000  29238536.63900                    -69483.48340  29238536.72140
    903320.84000  29122474.33400                    703886.53700  29122476.78300
   8299912.27400  25619661.35000                   6535436.05040  25619663.85740
   -170920.13600  29017718.10000
 96  9  5  4 29  0.0140000  0  9  3 14 18 19 22 27 28 29 31
  -1969349.77400  28404857.06800                  -1464806.49840  28404860.54940
  17447269.23200  27376006.27100                  13663884.88540  27376010.05740
  -9031684.50200  24830593.97500                  -6960409.85240  24830596.60040
  -7468930.47300  26260747.10700                  -5481237.34640  26260750.97540
   7617905.67600  26863913.81800                   6156323.77540  26863916.81840
   -546704.43000  29230211.25600                   -103572.23840  29230213.38940
    939583.72100  29129374.95100                    732143.32900  29129377.15400
   8379788.23900  25634861.27100                   6597677.06840  25634863.46340
   -224910.28200  29007442.36500
 96  9  5  4 29 30.0140000  0  9  3 14 18 19 22 27 28 29 31
  -1991350.01800  28400669.92000                  -1481949.49740  28400672.68540
  17590145.93000  27403194.24800                  13775217.41140  27403197.97540
  -9029683.34400  24830974.77900                  -6958850.50540  24830977.59240
  -7485861.66500  26257525.55300                  -5494430.44740  26257529.50240
   7739365.78400  26887026.76400                   6250968.00740  26887029.68240
   -590390.21800  29221897.30300                   -137613.00740  29221900.46740
    976339.03700  29136369.17000                    760783.85100  29136371.68500
   8459968.82800  25650119.11500                   6660155.44540  25650121.34240
   -278937.74700  28997161.34200
 96  9  5  4 30  0.0140000  0  9  3 14 18 19 22 27 28 29 31
  -2013020.82100  28396547.32600                  -1498835.80840  28396551.10040
  17733213.76100  27430419.48200                  13886698.83040  27430423.98240
  -9027315.50500  24831425.59200                  -6957005.43440  24831428.12340
  -7502573.56600  26254345.13900                  -5507452.67440  26254348.94740
   7861200.62800  26910211.49000                   6345904.24940  26910214.26740
   -633995.35600  29213600.50600                   -171591.03640  29213604.30340
   1013605.86300  29143460.85000                    789822.96000  29143463.44700
   8540487.45100  25665440.95100                   6722897.22940  25665443.41240
   -332992.12700  28986875.43500                    -22465.65150  28986878.50640
